<?xml version="1.0" encoding="UTF-8" standalone="no" ?>
<gpx xmlns="http://www.topografix.com/GPX/1/1" xmlns:xsi="http://www.w3.org/2001/XMLSchema-instance" xsi:schemaLocation="http://www.topografix.com/GPX/1/1 http://www.topografix.com/GPX/1/1/gpx.xsd" version="1.1" creator="VisuGPX - https://www.visugpx.com">
  <metadata>
    <name>GR©7 De Castelnaudary aux Pyrénées (2020)</name>
    <desc><![CDATA[Tronçon traversant l'Aude et les Pyrénées-Orientales]]></desc>
  </metadata>
  <trk>
    <name><![CDATA[GR7 Des Vosges aux Pyrénées (2020)]]></name>
    <desc><![CDATA[Randonnée pédestre sur le GR7 en suivant la ligne du partage des eaux depuis les Vosges jusqu'aux Pyrénées. Gîtes d'étapes, Chambres d'hôtes, Maison d'hôtes, Hôtels, Camping, Refuges, Auberges.]]></desc>
    <extensions>
      <line xmlns="http://www.topografix.com/GPX/gpx_style/0/2">
        <color>0000FF</color>
        <width>4</width>
      </line>
    </extensions>
    <trkseg>
      <trkpt lat="43.24873" lon="2.06611">
        <ele>145.044</ele>
        <time>2015-08-26T12:39:40Z</time>
      </trkpt>
      <trkpt lat="43.24702" lon="2.06516">
        <ele>145.418</ele>
        <time>2015-08-26T12:40:00Z</time>
      </trkpt>
      <trkpt lat="43.24653" lon="2.06511">
        <ele>146.008</ele>
        <time>2015-08-26T12:40:20Z</time>
      </trkpt>
      <trkpt lat="43.24659" lon="2.06475">
        <ele>145.452</ele>
        <time>2015-08-26T12:40:40Z</time>
      </trkpt>
      <trkpt lat="43.24761" lon="2.06523">
        <ele>145.017</ele>
        <time>2015-08-26T12:41:00Z</time>
      </trkpt>
      <trkpt lat="43.24783" lon="2.06525">
        <ele>145.028</ele>
        <time>2015-08-26T12:41:20Z</time>
      </trkpt>
      <trkpt lat="43.24834" lon="2.06357">
        <ele>143.073</ele>
        <time>2015-08-26T12:41:40Z</time>
      </trkpt>
      <trkpt lat="43.24902" lon="2.06086">
        <ele>142.072</ele>
        <time>2015-08-26T12:42:00Z</time>
      </trkpt>
      <trkpt lat="43.24864" lon="2.06045">
        <ele>142.055</ele>
        <time>2015-08-26T12:42:20Z</time>
      </trkpt>
      <trkpt lat="43.24834" lon="2.05964">
        <ele>142.372</ele>
        <time>2015-08-26T12:42:40Z</time>
      </trkpt>
      <trkpt lat="43.2477" lon="2.05907">
        <ele>144.046</ele>
        <time>2015-08-26T12:43:00Z</time>
      </trkpt>
      <trkpt lat="43.24554" lon="2.05805">
        <ele>145.039</ele>
        <time>2015-08-26T12:43:20Z</time>
      </trkpt>
      <trkpt lat="43.24465" lon="2.05729">
        <ele>145.201</ele>
        <time>2015-08-26T12:43:40Z</time>
      </trkpt>
      <trkpt lat="43.24312" lon="2.05572">
        <ele>147.821</ele>
        <time>2015-08-26T12:44:00Z</time>
      </trkpt>
      <trkpt lat="43.24237" lon="2.0551">
        <ele>149.008</ele>
        <time>2015-08-26T12:44:20Z</time>
      </trkpt>
      <trkpt lat="43.24193" lon="2.05376">
        <ele>150.099</ele>
        <time>2015-08-26T12:44:40Z</time>
      </trkpt>
      <trkpt lat="43.24127" lon="2.05298">
        <ele>150.044</ele>
        <time>2015-08-26T12:45:00Z</time>
      </trkpt>
      <trkpt lat="43.23986" lon="2.05206">
        <ele>152.085</ele>
        <time>2015-08-26T12:45:20Z</time>
      </trkpt>
      <trkpt lat="43.23951" lon="2.05168">
        <ele>152.81</ele>
        <time>2015-08-26T12:45:40Z</time>
      </trkpt>
      <trkpt lat="43.2392" lon="2.05029">
        <ele>153.019</ele>
        <time>2015-08-26T12:46:00Z</time>
      </trkpt>
      <trkpt lat="43.23751" lon="2.0481">
        <ele>155.022</ele>
        <time>2015-08-26T12:46:20Z</time>
      </trkpt>
      <trkpt lat="43.23373" lon="2.04383">
        <ele>159.279</ele>
        <time>2015-08-26T12:46:40Z</time>
      </trkpt>
      <trkpt lat="43.23379" lon="2.04334">
        <ele>160.053</ele>
        <time>2015-08-26T12:47:00Z</time>
      </trkpt>
      <trkpt lat="43.23401" lon="2.04277">
        <ele>160.024</ele>
        <time>2015-08-26T12:47:20Z</time>
      </trkpt>
      <trkpt lat="43.23306" lon="2.04167">
        <ele>160.004</ele>
        <time>2015-08-26T12:47:40Z</time>
      </trkpt>
      <trkpt lat="43.23238" lon="2.04055">
        <ele>161.414</ele>
        <time>2015-08-26T12:48:00Z</time>
      </trkpt>
      <trkpt lat="43.23189" lon="2.0395">
        <ele>162.208</ele>
        <time>2015-08-26T12:48:20Z</time>
      </trkpt>
      <trkpt lat="43.23084" lon="2.03795">
        <ele>164.048</ele>
        <time>2015-08-26T12:48:40Z</time>
      </trkpt>
      <trkpt lat="43.22994" lon="2.03704">
        <ele>165.023</ele>
        <time>2015-08-26T12:49:00Z</time>
      </trkpt>
      <trkpt lat="43.22947" lon="2.03583">
        <ele>166.044</ele>
        <time>2015-08-26T12:49:20Z</time>
      </trkpt>
      <trkpt lat="43.2289" lon="2.03546">
        <ele>167.019</ele>
        <time>2015-08-26T12:49:40Z</time>
      </trkpt>
      <trkpt lat="43.22822" lon="2.03546">
        <ele>168.728</ele>
        <time>2015-08-26T12:50:00Z</time>
      </trkpt>
      <trkpt lat="43.22758" lon="2.03534">
        <ele>169.911</ele>
        <time>2015-08-26T12:50:20Z</time>
      </trkpt>
      <trkpt lat="43.22698" lon="2.03556">
        <ele>170.058</ele>
        <time>2015-08-26T12:50:40Z</time>
      </trkpt>
      <trkpt lat="43.2267" lon="2.03618">
        <ele>170.052</ele>
        <time>2015-08-26T12:51:00Z</time>
      </trkpt>
      <trkpt lat="43.22538" lon="2.03665">
        <ele>171.028</ele>
        <time>2015-08-26T12:51:20Z</time>
      </trkpt>
      <trkpt lat="43.22458" lon="2.03674">
        <ele>173.489</ele>
        <time>2015-08-26T12:51:40Z</time>
      </trkpt>
      <trkpt lat="43.22228" lon="2.03792">
        <ele>194.217</ele>
        <time>2015-08-26T12:52:00Z</time>
      </trkpt>
      <trkpt lat="43.2223" lon="2.03888">
        <ele>194.908</ele>
        <time>2015-08-26T12:52:20Z</time>
      </trkpt>
      <trkpt lat="43.2224" lon="2.03959">
        <ele>194.568</ele>
        <time>2020-03-08T21:59:17Z</time>
      </trkpt>
      <trkpt lat="43.22183" lon="2.0412">
        <ele>196.753</ele>
        <time>2020-03-08T21:59:37Z</time>
      </trkpt>
      <trkpt lat="43.22079" lon="2.04037">
        <ele>214.024</ele>
        <time>2020-03-08T21:59:57Z</time>
      </trkpt>
      <trkpt lat="43.2209" lon="2.03996">
        <ele>214.919</ele>
        <time>2020-03-08T22:00:17Z</time>
      </trkpt>
      <trkpt lat="43.22054" lon="2.0397">
        <ele>217.858</ele>
        <time>2020-03-08T22:00:37Z</time>
      </trkpt>
      <trkpt lat="43.22061" lon="2.03954">
        <ele>216.471</ele>
        <time>2020-03-08T22:00:57Z</time>
      </trkpt>
      <trkpt lat="43.22037" lon="2.03932">
        <ele>213.988</ele>
        <time>2020-03-08T22:01:17Z</time>
      </trkpt>
      <trkpt lat="43.22003" lon="2.03991">
        <ele>216.572</ele>
        <time>2020-03-08T22:01:37Z</time>
      </trkpt>
      <trkpt lat="43.21991" lon="2.03976">
        <ele>213.953</ele>
        <time>2015-08-26T12:54:40Z</time>
      </trkpt>
      <trkpt lat="43.21925" lon="2.04122">
        <ele>213.404</ele>
        <time>2015-08-26T12:55:00Z</time>
      </trkpt>
      <trkpt lat="43.21891" lon="2.04064">
        <ele>205.514</ele>
        <time>2015-08-26T12:55:20Z</time>
      </trkpt>
      <trkpt lat="43.21812" lon="2.03979">
        <ele>195.708</ele>
        <time>2015-08-26T12:55:40Z</time>
      </trkpt>
      <trkpt lat="43.21763" lon="2.03897">
        <ele>190.841</ele>
        <time>2015-08-26T12:56:00Z</time>
      </trkpt>
      <trkpt lat="43.21739" lon="2.03836">
        <ele>188.696</ele>
        <time>2015-08-26T12:56:20Z</time>
      </trkpt>
      <trkpt lat="43.21758" lon="2.03786">
        <ele>187.677</ele>
        <time>2015-08-26T12:56:40Z</time>
      </trkpt>
      <trkpt lat="43.21778" lon="2.03791">
        <ele>188.562</ele>
        <time>2015-08-26T12:57:00Z</time>
      </trkpt>
      <trkpt lat="43.21811" lon="2.03722">
        <ele>188.411</ele>
        <time>2015-08-26T12:57:20Z</time>
      </trkpt>
      <trkpt lat="43.21864" lon="2.03645">
        <ele>186.684</ele>
        <time>2015-08-26T12:57:40Z</time>
      </trkpt>
      <trkpt lat="43.21841" lon="2.03574">
        <ele>183.451</ele>
        <time>2015-08-26T12:58:00Z</time>
      </trkpt>
      <trkpt lat="43.21835" lon="2.0351">
        <ele>181.395</ele>
        <time>2015-08-26T12:58:20Z</time>
      </trkpt>
      <trkpt lat="43.21863" lon="2.03387">
        <ele>180.924</ele>
        <time>2015-08-26T12:58:40Z</time>
      </trkpt>
      <trkpt lat="43.21856" lon="2.03276">
        <ele>184.504</ele>
        <time>2015-08-26T12:59:00Z</time>
      </trkpt>
      <trkpt lat="43.21822" lon="2.03221">
        <ele>186.614</ele>
        <time>2015-08-26T12:59:20Z</time>
      </trkpt>
      <trkpt lat="43.21759" lon="2.0317">
        <ele>189.808</ele>
        <time>2015-08-26T12:59:40Z</time>
      </trkpt>
      <trkpt lat="43.21733" lon="2.03163">
        <ele>190.588</ele>
        <time>2015-08-26T13:00:00Z</time>
      </trkpt>
      <trkpt lat="43.2167" lon="2.03195">
        <ele>192.953</ele>
        <time>2015-08-26T13:00:20Z</time>
      </trkpt>
      <trkpt lat="43.215" lon="2.03217">
        <ele>198.234</ele>
        <time>2015-08-26T13:00:40Z</time>
      </trkpt>
      <trkpt lat="43.21331" lon="2.03139">
        <ele>215.179</ele>
        <time>2015-08-26T13:01:00Z</time>
      </trkpt>
      <trkpt lat="43.21303" lon="2.03144">
        <ele>216.448</ele>
        <time>2015-08-26T13:01:20Z</time>
      </trkpt>
      <trkpt lat="43.21271" lon="2.03189">
        <ele>220.011</ele>
        <time>2015-08-26T13:01:40Z</time>
      </trkpt>
      <trkpt lat="43.21239" lon="2.03212">
        <ele>219.848</ele>
        <time>2015-08-26T13:02:00Z</time>
      </trkpt>
      <trkpt lat="43.21229" lon="2.03196">
        <ele>220.022</ele>
        <time>2015-08-26T13:02:20Z</time>
      </trkpt>
      <trkpt lat="43.21206" lon="2.03194">
        <ele>219.469</ele>
        <time>2015-08-26T13:02:40Z</time>
      </trkpt>
      <trkpt lat="43.21105" lon="2.03227">
        <ele>217.104</ele>
        <time>2015-08-26T13:03:00Z</time>
      </trkpt>
      <trkpt lat="43.21033" lon="2.03243">
        <ele>219.224</ele>
        <time>2015-08-26T13:03:20Z</time>
      </trkpt>
      <trkpt lat="43.20995" lon="2.03244">
        <ele>222.008</ele>
        <time>2015-08-26T13:03:40Z</time>
      </trkpt>
      <trkpt lat="43.20917" lon="2.03287">
        <ele>228.642</ele>
        <time>2015-08-26T13:04:00Z</time>
      </trkpt>
      <trkpt lat="43.20901" lon="2.03288">
        <ele>231.227</ele>
        <time>2015-08-26T13:04:20Z</time>
      </trkpt>
      <trkpt lat="43.20816" lon="2.03261">
        <ele>239.258</ele>
        <time>2015-08-26T13:04:40Z</time>
      </trkpt>
      <trkpt lat="43.20801" lon="2.03264">
        <ele>239.633</ele>
        <time>2015-08-26T13:05:00Z</time>
      </trkpt>
      <trkpt lat="43.20747" lon="2.03314">
        <ele>237.972</ele>
        <time>2015-08-26T13:05:20Z</time>
      </trkpt>
      <trkpt lat="43.20711" lon="2.03316">
        <ele>238.235</ele>
        <time>2015-08-26T13:05:40Z</time>
      </trkpt>
      <trkpt lat="43.20685" lon="2.03298">
        <ele>236.792</ele>
        <time>2015-08-26T13:06:00Z</time>
      </trkpt>
      <trkpt lat="43.20612" lon="2.03283">
        <ele>228.876</ele>
        <time>2015-08-26T13:06:20Z</time>
      </trkpt>
      <trkpt lat="43.2049" lon="2.03377">
        <ele>224.327</ele>
        <time>2015-08-26T13:06:40Z</time>
      </trkpt>
      <trkpt lat="43.20415" lon="2.03414">
        <ele>215.768</ele>
        <time>2015-08-26T13:07:00Z</time>
      </trkpt>
      <trkpt lat="43.2035" lon="2.03357">
        <ele>207.114</ele>
        <time>2015-08-26T13:07:20Z</time>
      </trkpt>
      <trkpt lat="43.20277" lon="2.03335">
        <ele>201.108</ele>
        <time>2015-08-26T13:07:40Z</time>
      </trkpt>
      <trkpt lat="43.20245" lon="2.03345">
        <ele>199.828</ele>
        <time>2015-08-26T13:08:00Z</time>
      </trkpt>
      <trkpt lat="43.20212" lon="2.0337">
        <ele>198.353</ele>
        <time>2015-08-26T13:08:20Z</time>
      </trkpt>
      <trkpt lat="43.20084" lon="2.03392">
        <ele>194.034</ele>
        <time>2015-08-26T13:08:40Z</time>
      </trkpt>
      <trkpt lat="43.20037" lon="2.03368">
        <ele>197.159</ele>
        <time>2015-08-26T13:09:00Z</time>
      </trkpt>
      <trkpt lat="43.20007" lon="2.03366">
        <ele>199.878</ele>
        <time>2015-08-26T13:09:20Z</time>
      </trkpt>
      <trkpt lat="43.19964" lon="2.03378">
        <ele>204.231</ele>
        <time>2015-08-26T13:09:40Z</time>
      </trkpt>
      <trkpt lat="43.1993" lon="2.03384">
        <ele>208.028</ele>
        <time>2015-08-26T13:10:00Z</time>
      </trkpt>
      <trkpt lat="43.19866" lon="2.03415">
        <ele>213.632</ele>
        <time>2015-08-26T13:10:20Z</time>
      </trkpt>
      <trkpt lat="43.19777" lon="2.03447">
        <ele>223.276</ele>
        <time>2015-08-26T13:10:40Z</time>
      </trkpt>
      <trkpt lat="43.19756" lon="2.03465">
        <ele>226.19</ele>
        <time>2015-08-26T13:11:00Z</time>
      </trkpt>
      <trkpt lat="43.19731" lon="2.03508">
        <ele>231.019</ele>
        <time>2015-08-26T13:11:20Z</time>
      </trkpt>
      <trkpt lat="43.19641" lon="2.03553">
        <ele>244.908</ele>
        <time>2015-08-26T13:11:40Z</time>
      </trkpt>
      <trkpt lat="43.19626" lon="2.0358">
        <ele>245.473</ele>
        <time>2015-08-26T13:12:00Z</time>
      </trkpt>
      <trkpt lat="43.19599" lon="2.03587">
        <ele>246.188</ele>
        <time>2015-08-26T13:12:20Z</time>
      </trkpt>
      <trkpt lat="43.19558" lon="2.03622">
        <ele>247.659</ele>
        <time>2015-08-26T13:12:40Z</time>
      </trkpt>
      <trkpt lat="43.19487" lon="2.03614">
        <ele>250.024</ele>
        <time>2015-08-26T13:13:00Z</time>
      </trkpt>
      <trkpt lat="43.19434" lon="2.03601">
        <ele>246.323</ele>
        <time>2015-08-26T13:13:20Z</time>
      </trkpt>
      <trkpt lat="43.19366" lon="2.03631">
        <ele>247.866</ele>
        <time>2015-08-26T13:13:40Z</time>
      </trkpt>
      <trkpt lat="43.19294" lon="2.0369">
        <ele>258.943</ele>
        <time>2015-08-26T13:14:00Z</time>
      </trkpt>
      <trkpt lat="43.19243" lon="2.03685">
        <ele>266.897</ele>
        <time>2015-08-26T13:14:20Z</time>
      </trkpt>
      <trkpt lat="43.19234" lon="2.03669">
        <ele>267.987</ele>
        <time>2015-08-26T13:14:40Z</time>
      </trkpt>
      <trkpt lat="43.19239" lon="2.03615">
        <ele>265.542</ele>
        <time>2015-08-26T13:15:00Z</time>
      </trkpt>
      <trkpt lat="43.19224" lon="2.03568">
        <ele>266.526</ele>
        <time>2015-08-26T13:15:20Z</time>
      </trkpt>
      <trkpt lat="43.19192" lon="2.03525">
        <ele>267.208</ele>
        <time>2015-08-26T13:15:40Z</time>
      </trkpt>
      <trkpt lat="43.1912" lon="2.035">
        <ele>273.584</ele>
        <time>2015-08-26T13:16:00Z</time>
      </trkpt>
      <trkpt lat="43.191" lon="2.03481">
        <ele>274.219</ele>
        <time>2015-08-26T13:16:20Z</time>
      </trkpt>
      <trkpt lat="43.19084" lon="2.03445">
        <ele>278.09</ele>
        <time>2015-08-26T13:16:40Z</time>
      </trkpt>
      <trkpt lat="43.19081" lon="2.03407">
        <ele>285.215</ele>
        <time>2015-08-26T13:17:00Z</time>
      </trkpt>
      <trkpt lat="43.19092" lon="2.03364">
        <ele>290.444</ele>
        <time>2015-08-26T13:17:20Z</time>
      </trkpt>
      <trkpt lat="43.19138" lon="2.03296">
        <ele>288.357</ele>
        <time>2015-08-26T13:17:40Z</time>
      </trkpt>
      <trkpt lat="43.19218" lon="2.03086">
        <ele>289.424</ele>
        <time>2015-08-26T13:18:00Z</time>
      </trkpt>
      <trkpt lat="43.19225" lon="2.03042">
        <ele>289.998</ele>
        <time>2015-08-26T13:18:20Z</time>
      </trkpt>
      <trkpt lat="43.19214" lon="2.02998">
        <ele>294.478</ele>
        <time>2015-08-26T13:18:40Z</time>
      </trkpt>
      <trkpt lat="43.19187" lon="2.02967">
        <ele>296.233</ele>
        <time>2015-08-26T13:19:00Z</time>
      </trkpt>
      <trkpt lat="43.19164" lon="2.02957">
        <ele>296.226</ele>
        <time>2015-08-26T13:19:20Z</time>
      </trkpt>
      <trkpt lat="43.19142" lon="2.03009">
        <ele>300.608</ele>
        <time>2015-08-26T13:19:40Z</time>
      </trkpt>
      <trkpt lat="43.19104" lon="2.03077">
        <ele>304.463</ele>
        <time>2015-08-26T13:20:00Z</time>
      </trkpt>
      <trkpt lat="43.19053" lon="2.03216">
        <ele>316.118</ele>
        <time>2015-08-26T13:20:20Z</time>
      </trkpt>
      <trkpt lat="43.18995" lon="2.03283">
        <ele>324.129</ele>
        <time>2015-08-26T13:20:40Z</time>
      </trkpt>
      <trkpt lat="43.18954" lon="2.03361">
        <ele>328.644</ele>
        <time>2015-08-26T13:21:00Z</time>
      </trkpt>
      <trkpt lat="43.18942" lon="2.03367">
        <ele>330.793</ele>
        <time>2015-08-26T13:21:20Z</time>
      </trkpt>
      <trkpt lat="43.18871" lon="2.03456">
        <ele>339.876</ele>
        <time>2015-08-26T13:21:40Z</time>
      </trkpt>
      <trkpt lat="43.18766" lon="2.03363">
        <ele>345.713</ele>
        <time>2015-08-26T13:22:00Z</time>
      </trkpt>
      <trkpt lat="43.18627" lon="2.03274">
        <ele>339.787</ele>
        <time>2015-08-26T13:22:20Z</time>
      </trkpt>
      <trkpt lat="43.18594" lon="2.03275">
        <ele>336.036</ele>
        <time>2015-08-26T13:22:40Z</time>
      </trkpt>
      <trkpt lat="43.18572" lon="2.03291">
        <ele>330.917</ele>
        <time>2015-08-26T13:23:00Z</time>
      </trkpt>
      <trkpt lat="43.18536" lon="2.03442">
        <ele>332.318</ele>
        <time>2015-08-26T13:23:20Z</time>
      </trkpt>
      <trkpt lat="43.1851" lon="2.03438">
        <ele>330.508</ele>
        <time>2015-08-26T13:23:40Z</time>
      </trkpt>
      <trkpt lat="43.18487" lon="2.0344">
        <ele>332.049</ele>
        <time>2015-08-26T13:24:00Z</time>
      </trkpt>
      <trkpt lat="43.18447" lon="2.0343">
        <ele>332.854</ele>
        <time>2015-08-26T13:24:20Z</time>
      </trkpt>
      <trkpt lat="43.18333" lon="2.03421">
        <ele>336.085</ele>
        <time>2015-08-26T13:24:40Z</time>
      </trkpt>
      <trkpt lat="43.18314" lon="2.03411">
        <ele>339.31</ele>
        <time>2015-08-26T13:25:00Z</time>
      </trkpt>
      <trkpt lat="43.18257" lon="2.03412">
        <ele>350.059</ele>
        <time>2015-08-26T13:25:20Z</time>
      </trkpt>
      <trkpt lat="43.18102" lon="2.0333">
        <ele>350.732</ele>
        <time>2015-08-26T13:25:40Z</time>
      </trkpt>
      <trkpt lat="43.18072" lon="2.03269">
        <ele>347.239</ele>
        <time>2015-08-26T13:26:00Z</time>
      </trkpt>
      <trkpt lat="43.17967" lon="2.03235">
        <ele>349.643</ele>
        <time>2015-08-26T13:26:20Z</time>
      </trkpt>
      <trkpt lat="43.17892" lon="2.03158">
        <ele>352.861</ele>
        <time>2015-08-26T13:26:40Z</time>
      </trkpt>
      <trkpt lat="43.17537" lon="2.02969">
        <ele>354.921</ele>
        <time>2015-08-26T13:27:00Z</time>
      </trkpt>
      <trkpt lat="43.1728" lon="2.02901">
        <ele>339.713</ele>
        <time>2015-08-26T13:27:20Z</time>
      </trkpt>
      <trkpt lat="43.17154" lon="2.02773">
        <ele>327.508</ele>
        <time>2015-08-26T13:27:40Z</time>
      </trkpt>
      <trkpt lat="43.17012" lon="2.02649">
        <ele>333.442</ele>
        <time>2015-08-26T13:28:00Z</time>
      </trkpt>
      <trkpt lat="43.1684" lon="2.02514">
        <ele>354.497</ele>
        <time>2015-08-26T13:28:20Z</time>
      </trkpt>
      <trkpt lat="43.16703" lon="2.02417">
        <ele>362.198</ele>
        <time>2015-08-26T13:28:40Z</time>
      </trkpt>
      <trkpt lat="43.16584" lon="2.02373">
        <ele>368.483</ele>
        <time>2015-08-26T13:29:00Z</time>
      </trkpt>
      <trkpt lat="43.16516" lon="2.02376">
        <ele>370.442</ele>
        <time>2015-08-26T13:29:20Z</time>
      </trkpt>
      <trkpt lat="43.16403" lon="2.02325">
        <ele>375.835</ele>
        <time>2015-08-26T13:29:40Z</time>
      </trkpt>
      <trkpt lat="43.16379" lon="2.02326">
        <ele>375.312</ele>
        <time>2015-08-26T13:30:00Z</time>
      </trkpt>
      <trkpt lat="43.16353" lon="2.02338">
        <ele>374.946</ele>
        <time>2015-08-26T13:30:20Z</time>
      </trkpt>
      <trkpt lat="43.16297" lon="2.02389">
        <ele>377.426</ele>
        <time>2015-08-26T13:30:40Z</time>
      </trkpt>
      <trkpt lat="43.16289" lon="2.02388">
        <ele>376.647</ele>
        <time>2015-08-26T13:31:00Z</time>
      </trkpt>
      <trkpt lat="43.16249" lon="2.02361">
        <ele>374.011</ele>
        <time>2015-08-26T13:31:20Z</time>
      </trkpt>
      <trkpt lat="43.16205" lon="2.02336">
        <ele>375.308</ele>
        <time>2015-08-26T13:31:40Z</time>
      </trkpt>
      <trkpt lat="43.16177" lon="2.02294">
        <ele>378.158</ele>
        <time>2015-08-26T13:32:00Z</time>
      </trkpt>
      <trkpt lat="43.16153" lon="2.02267">
        <ele>377.523</ele>
        <time>2015-08-26T13:32:20Z</time>
      </trkpt>
      <trkpt lat="43.16138" lon="2.02173">
        <ele>382.224</ele>
        <time>2015-08-26T13:32:40Z</time>
      </trkpt>
      <trkpt lat="43.16126" lon="2.02128">
        <ele>385.099</ele>
        <time>2015-08-26T13:33:00Z</time>
      </trkpt>
      <trkpt lat="43.16103" lon="2.02094">
        <ele>388.128</ele>
        <time>2015-08-26T13:33:20Z</time>
      </trkpt>
      <trkpt lat="43.16096" lon="2.02063">
        <ele>389.981</ele>
        <time>2015-08-26T13:33:40Z</time>
      </trkpt>
      <trkpt lat="43.16071" lon="2.02017">
        <ele>390.068</ele>
        <time>2015-08-26T13:34:00Z</time>
      </trkpt>
      <trkpt lat="43.16059" lon="2.02008">
        <ele>390.062</ele>
        <time>2015-08-26T13:34:20Z</time>
      </trkpt>
      <trkpt lat="43.1604" lon="2.01966">
        <ele>390.798</ele>
        <time>2015-08-26T13:34:40Z</time>
      </trkpt>
      <trkpt lat="43.16013" lon="2.01934">
        <ele>391.215</ele>
        <time>2015-08-26T13:35:00Z</time>
      </trkpt>
      <trkpt lat="43.15994" lon="2.01859">
        <ele>391.326</ele>
        <time>2015-08-26T13:35:20Z</time>
      </trkpt>
      <trkpt lat="43.15984" lon="2.01836">
        <ele>392.008</ele>
        <time>2015-08-26T13:35:40Z</time>
      </trkpt>
      <trkpt lat="43.15965" lon="2.01819">
        <ele>393.145</ele>
        <time>2015-08-26T13:36:00Z</time>
      </trkpt>
      <trkpt lat="43.15938" lon="2.01818">
        <ele>393.41</ele>
        <time>2015-08-26T13:36:20Z</time>
      </trkpt>
      <trkpt lat="43.15871" lon="2.01802">
        <ele>401.621</ele>
        <time>2015-08-26T13:36:40Z</time>
      </trkpt>
      <trkpt lat="43.15827" lon="2.01863">
        <ele>395.316</ele>
        <time>2015-08-26T13:37:00Z</time>
      </trkpt>
      <trkpt lat="43.15761" lon="2.01923">
        <ele>391.725</ele>
        <time>2015-08-26T13:37:20Z</time>
      </trkpt>
      <trkpt lat="43.15717" lon="2.01988">
        <ele>386.968</ele>
        <time>2015-08-26T13:37:40Z</time>
      </trkpt>
      <trkpt lat="43.15706" lon="2.01989">
        <ele>386.825</ele>
        <time>2015-08-26T13:38:00Z</time>
      </trkpt>
      <trkpt lat="43.1568" lon="2.01932">
        <ele>387.989</ele>
        <time>2015-08-26T13:38:20Z</time>
      </trkpt>
      <trkpt lat="43.15652" lon="2.01793">
        <ele>390.057</ele>
        <time>2015-08-26T13:38:40Z</time>
      </trkpt>
      <trkpt lat="43.15639" lon="2.01749">
        <ele>391</ele>
        <time>2015-08-26T13:39:00Z</time>
      </trkpt>
      <trkpt lat="43.15633" lon="2.01673">
        <ele>389.82</ele>
        <time>2015-08-26T13:39:20Z</time>
      </trkpt>
      <trkpt lat="43.1561" lon="2.01548">
        <ele>383.608</ele>
        <time>2015-08-26T13:39:40Z</time>
      </trkpt>
      <trkpt lat="43.15472" lon="2.01367">
        <ele>374.221</ele>
        <time>2015-08-26T13:40:00Z</time>
      </trkpt>
      <trkpt lat="43.15385" lon="2.01257">
        <ele>359.636</ele>
        <time>2019-03-29T03:03:51Z</time>
      </trkpt>
      <trkpt lat="43.15334" lon="2.0127">
        <ele>355.067</ele>
        <time>2015-08-26T13:41:00Z</time>
      </trkpt>
      <trkpt lat="43.1528" lon="2.01256">
        <ele>355.082</ele>
        <time>2015-08-26T13:41:20Z</time>
      </trkpt>
      <trkpt lat="43.15247" lon="2.01258">
        <ele>355.391</ele>
        <time>2015-08-26T13:41:40Z</time>
      </trkpt>
      <trkpt lat="43.15044" lon="2.01249">
        <ele>350.294</ele>
        <time>2015-08-26T13:42:00Z</time>
      </trkpt>
      <trkpt lat="43.1481" lon="2.01084">
        <ele>353.011</ele>
        <time>2015-08-26T13:42:20Z</time>
      </trkpt>
      <trkpt lat="43.1477" lon="2.01015">
        <ele>353.345</ele>
        <time>2015-08-26T13:42:40Z</time>
      </trkpt>
      <trkpt lat="43.14654" lon="2.0088">
        <ele>367.223</ele>
        <time>2015-08-26T13:43:00Z</time>
      </trkpt>
      <trkpt lat="43.14621" lon="2.00802">
        <ele>372.583</ele>
        <time>2015-08-26T13:43:20Z</time>
      </trkpt>
      <trkpt lat="43.14603" lon="2.00752">
        <ele>374.811</ele>
        <time>2015-08-26T13:43:40Z</time>
      </trkpt>
      <trkpt lat="43.14578" lon="2.00703">
        <ele>379.608</ele>
        <time>2015-08-26T13:44:00Z</time>
      </trkpt>
      <trkpt lat="43.14573" lon="2.00666">
        <ele>382.028</ele>
        <time>2015-08-26T13:44:20Z</time>
      </trkpt>
      <trkpt lat="43.14549" lon="2.00625">
        <ele>382.273</ele>
        <time>2015-08-26T13:44:40Z</time>
      </trkpt>
      <trkpt lat="43.14529" lon="2.00555">
        <ele>385.434</ele>
        <time>2015-08-26T13:45:00Z</time>
      </trkpt>
      <trkpt lat="43.14495" lon="2.00484">
        <ele>390.879</ele>
        <time>2015-08-26T13:45:20Z</time>
      </trkpt>
      <trkpt lat="43.14481" lon="2.0047">
        <ele>395.088</ele>
        <time>2015-08-26T13:45:40Z</time>
      </trkpt>
      <trkpt lat="43.14462" lon="2.00471">
        <ele>397.241</ele>
        <time>2015-08-26T13:46:00Z</time>
      </trkpt>
      <trkpt lat="43.1444" lon="2.00496">
        <ele>396.838</ele>
        <time>2015-08-26T13:46:20Z</time>
      </trkpt>
      <trkpt lat="43.14429" lon="2.00489">
        <ele>395.452</ele>
        <time>2015-08-26T13:46:40Z</time>
      </trkpt>
      <trkpt lat="43.14429" lon="2.00341">
        <ele>387.814</ele>
        <time>2015-08-26T13:47:00Z</time>
      </trkpt>
      <trkpt lat="43.14413" lon="2.00292">
        <ele>382.154</ele>
        <time>2015-08-26T13:47:20Z</time>
      </trkpt>
      <trkpt lat="43.14389" lon="2.00283">
        <ele>379.809</ele>
        <time>2015-08-26T13:47:40Z</time>
      </trkpt>
      <trkpt lat="43.14346" lon="2.00275">
        <ele>383.208</ele>
        <time>2015-08-26T13:48:00Z</time>
      </trkpt>
      <trkpt lat="43.14285" lon="2.00229">
        <ele>381.157</ele>
        <time>2015-08-26T13:48:20Z</time>
      </trkpt>
      <trkpt lat="43.14234" lon="2.0017">
        <ele>378.482</ele>
        <time>2015-08-26T13:48:40Z</time>
      </trkpt>
      <trkpt lat="43.14205" lon="2.00119">
        <ele>377.253</ele>
        <time>2015-08-26T13:49:00Z</time>
      </trkpt>
      <trkpt lat="43.14188" lon="2.00109">
        <ele>377.558</ele>
        <time>2015-08-26T13:49:20Z</time>
      </trkpt>
      <trkpt lat="43.14108" lon="2.00156">
        <ele>382.977</ele>
        <time>2015-08-26T13:49:40Z</time>
      </trkpt>
      <trkpt lat="43.14044" lon="2.00156">
        <ele>394.09</ele>
        <time>2015-08-26T13:50:00Z</time>
      </trkpt>
      <trkpt lat="43.14033" lon="2.00144">
        <ele>394.827</ele>
        <time>2015-08-26T13:50:20Z</time>
      </trkpt>
      <trkpt lat="43.13954" lon="2.00154">
        <ele>393.511</ele>
        <time>2015-08-26T13:50:40Z</time>
      </trkpt>
      <trkpt lat="43.13841" lon="2.00202">
        <ele>396.931</ele>
        <time>2015-08-26T13:51:00Z</time>
      </trkpt>
      <trkpt lat="43.1376" lon="2.00204">
        <ele>399.661</ele>
        <time>2015-08-26T13:51:20Z</time>
      </trkpt>
      <trkpt lat="43.13719" lon="2.00152">
        <ele>398.307</ele>
        <time>2015-08-26T13:51:40Z</time>
      </trkpt>
      <trkpt lat="43.13648" lon="2.00121">
        <ele>396.208</ele>
        <time>2015-08-26T13:52:00Z</time>
      </trkpt>
      <trkpt lat="43.13602" lon="2.00118">
        <ele>398.969</ele>
        <time>2015-08-26T13:52:20Z</time>
      </trkpt>
      <trkpt lat="43.13455" lon="2.00081">
        <ele>405.274</ele>
        <time>2015-08-26T13:52:40Z</time>
      </trkpt>
      <trkpt lat="43.13367" lon="2.00031">
        <ele>406.165</ele>
        <time>2015-08-26T13:53:00Z</time>
      </trkpt>
      <trkpt lat="43.13344" lon="2.00033">
        <ele>406.94</ele>
        <time>2015-08-26T13:53:20Z</time>
      </trkpt>
      <trkpt lat="43.13237" lon="2.00135">
        <ele>405.559</ele>
        <time>2015-08-26T13:53:40Z</time>
      </trkpt>
      <trkpt lat="43.13117" lon="2.00161">
        <ele>407.172</ele>
        <time>2015-08-26T13:54:00Z</time>
      </trkpt>
      <trkpt lat="43.13034" lon="2.0015">
        <ele>406.689</ele>
        <time>2015-08-26T13:54:20Z</time>
      </trkpt>
      <trkpt lat="43.1298" lon="2.00165">
        <ele>407.143</ele>
        <time>2015-08-26T13:54:40Z</time>
      </trkpt>
      <trkpt lat="43.1293" lon="2.00106">
        <ele>412.077</ele>
        <time>2015-08-26T13:55:00Z</time>
      </trkpt>
      <trkpt lat="43.12899" lon="2.00104">
        <ele>413.761</ele>
        <time>2015-08-26T13:55:20Z</time>
      </trkpt>
      <trkpt lat="43.12867" lon="2.00123">
        <ele>409.427</ele>
        <time>2015-08-26T13:55:40Z</time>
      </trkpt>
      <trkpt lat="43.12839" lon="2.00063">
        <ele>404.408</ele>
        <time>2015-08-26T13:56:00Z</time>
      </trkpt>
      <trkpt lat="43.12824" lon="2.00084">
        <ele>402.413</ele>
        <time>2015-08-26T13:56:20Z</time>
      </trkpt>
      <trkpt lat="43.12811" lon="2.00139">
        <ele>399.428</ele>
        <time>2015-08-26T13:56:40Z</time>
      </trkpt>
      <trkpt lat="43.1279" lon="2.00166">
        <ele>395.089</ele>
        <time>2015-08-26T13:57:00Z</time>
      </trkpt>
      <trkpt lat="43.12725" lon="2.0017">
        <ele>393.014</ele>
        <time>2015-08-26T13:57:20Z</time>
      </trkpt>
      <trkpt lat="43.12696" lon="2.00162">
        <ele>394.593</ele>
        <time>2015-08-26T13:57:40Z</time>
      </trkpt>
      <trkpt lat="43.12635" lon="2.0012">
        <ele>399.916</ele>
        <time>2015-08-26T13:58:00Z</time>
      </trkpt>
      <trkpt lat="43.12541" lon="2.00089">
        <ele>401.313</ele>
        <time>2015-08-26T13:58:20Z</time>
      </trkpt>
      <trkpt lat="43.12516" lon="2.00095">
        <ele>399.357</ele>
        <time>2015-08-26T13:58:40Z</time>
      </trkpt>
      <trkpt lat="43.12489" lon="2.00113">
        <ele>396.053</ele>
        <time>2015-08-26T13:59:00Z</time>
      </trkpt>
      <trkpt lat="43.12417" lon="2.00133">
        <ele>397.604</ele>
        <time>2015-08-26T13:59:20Z</time>
      </trkpt>
      <trkpt lat="43.12399" lon="2.00151">
        <ele>394.414</ele>
        <time>2015-08-26T13:59:40Z</time>
      </trkpt>
      <trkpt lat="43.1238" lon="2.00154">
        <ele>393.908</ele>
        <time>2015-08-26T14:00:00Z</time>
      </trkpt>
      <trkpt lat="43.12364" lon="2.00145">
        <ele>394.541</ele>
        <time>2015-08-26T14:00:20Z</time>
      </trkpt>
      <trkpt lat="43.12322" lon="2.00068">
        <ele>390.866</ele>
        <time>2015-08-26T14:00:40Z</time>
      </trkpt>
      <trkpt lat="43.12291" lon="2.00039">
        <ele>388.367</ele>
        <time>2015-08-26T14:01:00Z</time>
      </trkpt>
      <trkpt lat="43.12248" lon="2.00063">
        <ele>387.952</ele>
        <time>2015-08-26T14:01:20Z</time>
      </trkpt>
      <trkpt lat="43.12233" lon="2.00062">
        <ele>386.571</ele>
        <time>2015-08-26T14:01:40Z</time>
      </trkpt>
      <trkpt lat="43.1222" lon="2.00053">
        <ele>385.154</ele>
        <time>2015-08-26T14:02:00Z</time>
      </trkpt>
      <trkpt lat="43.12169" lon="1.99977">
        <ele>385.651</ele>
        <time>2015-08-26T14:02:20Z</time>
      </trkpt>
      <trkpt lat="43.12144" lon="1.99968">
        <ele>384.535</ele>
        <time>2015-08-26T14:02:40Z</time>
      </trkpt>
      <trkpt lat="43.12118" lon="1.99993">
        <ele>386.176</ele>
        <time>2015-08-26T14:03:00Z</time>
      </trkpt>
      <trkpt lat="43.12084" lon="2.00005">
        <ele>383.89</ele>
        <time>2015-08-26T14:03:20Z</time>
      </trkpt>
      <trkpt lat="43.12049" lon="2.00022">
        <ele>382.519</ele>
        <time>2015-08-26T14:03:40Z</time>
      </trkpt>
      <trkpt lat="43.12016" lon="2.00032">
        <ele>381.208</ele>
        <time>2015-08-26T14:04:00Z</time>
      </trkpt>
      <trkpt lat="43.11763" lon="1.99942">
        <ele>386.243</ele>
        <time>2015-08-26T14:04:20Z</time>
      </trkpt>
      <trkpt lat="43.11705" lon="1.99936">
        <ele>393.728</ele>
        <time>2019-03-29T03:27:51Z</time>
      </trkpt>
      <trkpt lat="43.11644" lon="1.99869">
        <ele>407.249</ele>
        <time>2015-08-26T14:06:20Z</time>
      </trkpt>
      <trkpt lat="43.11606" lon="1.99856">
        <ele>411.854</ele>
        <time>2015-08-26T14:06:40Z</time>
      </trkpt>
      <trkpt lat="43.11566" lon="1.99851">
        <ele>416.043</ele>
        <time>2015-08-26T14:07:00Z</time>
      </trkpt>
      <trkpt lat="43.11537" lon="1.99854">
        <ele>419.496</ele>
        <time>2015-08-26T14:07:20Z</time>
      </trkpt>
      <trkpt lat="43.11502" lon="1.99876">
        <ele>425.893</ele>
        <time>2015-08-26T14:07:40Z</time>
      </trkpt>
      <trkpt lat="43.11463" lon="1.99909">
        <ele>433.427</ele>
        <time>2015-08-26T14:08:00Z</time>
      </trkpt>
      <trkpt lat="43.11434" lon="1.99909">
        <ele>434.992</ele>
        <time>2015-08-26T14:08:20Z</time>
      </trkpt>
      <trkpt lat="43.11376" lon="1.99891">
        <ele>430.473</ele>
        <time>2015-08-26T14:08:40Z</time>
      </trkpt>
      <trkpt lat="43.11297" lon="1.99836">
        <ele>433.82</ele>
        <time>2015-08-26T14:09:00Z</time>
      </trkpt>
      <trkpt lat="43.11224" lon="1.99816">
        <ele>435.008</ele>
        <time>2015-08-26T14:09:20Z</time>
      </trkpt>
      <trkpt lat="43.11149" lon="1.99811">
        <ele>437.965</ele>
        <time>2015-08-26T14:09:40Z</time>
      </trkpt>
      <trkpt lat="43.11104" lon="1.99839">
        <ele>440.75</ele>
        <time>2015-08-26T14:10:00Z</time>
      </trkpt>
      <trkpt lat="43.11034" lon="1.99856">
        <ele>446.231</ele>
        <time>2015-08-26T14:10:20Z</time>
      </trkpt>
      <trkpt lat="43.10978" lon="1.99854">
        <ele>449.996</ele>
        <time>2015-08-26T14:10:40Z</time>
      </trkpt>
      <trkpt lat="43.10934" lon="1.99837">
        <ele>449.185</ele>
        <time>2015-08-26T14:11:00Z</time>
      </trkpt>
      <trkpt lat="43.10915" lon="1.99797">
        <ele>447.278</ele>
        <time>2015-08-26T14:11:20Z</time>
      </trkpt>
      <trkpt lat="43.10918" lon="1.99748">
        <ele>444.885</ele>
        <time>2015-08-26T14:11:40Z</time>
      </trkpt>
      <trkpt lat="43.10912" lon="1.99722">
        <ele>444.179</ele>
        <time>2015-08-26T14:12:00Z</time>
      </trkpt>
      <trkpt lat="43.1088" lon="1.99674">
        <ele>445.813</ele>
        <time>2015-08-26T14:12:20Z</time>
      </trkpt>
      <trkpt lat="43.10873" lon="1.99585">
        <ele>446.643</ele>
        <time>2015-08-26T14:12:40Z</time>
      </trkpt>
      <trkpt lat="43.10865" lon="1.99558">
        <ele>443.607</ele>
        <time>2015-08-26T14:13:00Z</time>
      </trkpt>
      <trkpt lat="43.1087" lon="1.99468">
        <ele>442.808</ele>
        <time>2015-08-26T14:13:20Z</time>
      </trkpt>
      <trkpt lat="43.10864" lon="1.99405">
        <ele>444.177</ele>
        <time>2015-08-26T14:13:40Z</time>
      </trkpt>
      <trkpt lat="43.10864" lon="1.99373">
        <ele>444.672</ele>
        <time>2015-08-26T14:14:00Z</time>
      </trkpt>
      <trkpt lat="43.10871" lon="1.99352">
        <ele>444.943</ele>
        <time>2015-08-26T14:14:20Z</time>
      </trkpt>
      <trkpt lat="43.10891" lon="1.99269">
        <ele>442.448</ele>
        <time>2015-08-26T14:14:40Z</time>
      </trkpt>
      <trkpt lat="43.10883" lon="1.99218">
        <ele>440.717</ele>
        <time>2015-08-26T14:15:00Z</time>
      </trkpt>
      <trkpt lat="43.1089" lon="1.9916">
        <ele>440.76</ele>
        <time>2015-08-26T14:15:20Z</time>
      </trkpt>
      <trkpt lat="43.10898" lon="1.99073">
        <ele>438.367</ele>
        <time>2015-08-26T14:15:40Z</time>
      </trkpt>
      <trkpt lat="43.10923" lon="1.99034">
        <ele>436.521</ele>
        <time>2015-08-26T14:16:00Z</time>
      </trkpt>
      <trkpt lat="43.1095" lon="1.99029">
        <ele>435.516</ele>
        <time>2015-08-26T14:16:20Z</time>
      </trkpt>
      <trkpt lat="43.1096" lon="1.99011">
        <ele>434.176</ele>
        <time>2015-08-26T14:16:40Z</time>
      </trkpt>
      <trkpt lat="43.10978" lon="1.98916">
        <ele>433.913</ele>
        <time>2015-08-26T14:17:00Z</time>
      </trkpt>
      <trkpt lat="43.10989" lon="1.98681">
        <ele>434.208</ele>
        <time>2015-08-26T14:17:20Z</time>
      </trkpt>
      <trkpt lat="43.11025" lon="1.98527">
        <ele>432.357</ele>
        <time>2015-08-26T14:17:40Z</time>
      </trkpt>
      <trkpt lat="43.11028" lon="1.98461">
        <ele>433.032</ele>
        <time>2015-08-26T14:18:00Z</time>
      </trkpt>
      <trkpt lat="43.1102" lon="1.98389">
        <ele>431.473</ele>
        <time>2015-08-26T14:18:20Z</time>
      </trkpt>
      <trkpt lat="43.11028" lon="1.98322">
        <ele>432.928</ele>
        <time>2015-08-26T14:18:40Z</time>
      </trkpt>
      <trkpt lat="43.11025" lon="1.98294">
        <ele>434.497</ele>
        <time>2015-08-26T14:19:00Z</time>
      </trkpt>
      <trkpt lat="43.11008" lon="1.98261">
        <ele>436.06</ele>
        <time>2015-08-26T14:19:20Z</time>
      </trkpt>
      <trkpt lat="43.11003" lon="1.98214">
        <ele>439.197</ele>
        <time>2015-08-26T14:19:40Z</time>
      </trkpt>
      <trkpt lat="43.10861" lon="1.98054">
        <ele>433.091</ele>
        <time>2015-08-26T14:20:00Z</time>
      </trkpt>
      <trkpt lat="43.10846" lon="1.98021">
        <ele>432.571</ele>
        <time>2015-08-26T14:20:20Z</time>
      </trkpt>
      <trkpt lat="43.10829" lon="1.9793">
        <ele>427.941</ele>
        <time>2015-08-26T14:20:40Z</time>
      </trkpt>
      <trkpt lat="43.10771" lon="1.97871">
        <ele>427.615</ele>
        <time>2015-08-26T14:21:00Z</time>
      </trkpt>
      <trkpt lat="43.10759" lon="1.97773">
        <ele>419.308</ele>
        <time>2015-08-26T14:21:20Z</time>
      </trkpt>
      <trkpt lat="43.10741" lon="1.97694">
        <ele>416.833</ele>
        <time>2015-08-26T14:21:40Z</time>
      </trkpt>
      <trkpt lat="43.10725" lon="1.97435">
        <ele>415.278</ele>
        <time>2015-08-26T14:22:00Z</time>
      </trkpt>
      <trkpt lat="43.1073" lon="1.97384">
        <ele>412.759</ele>
        <time>2015-08-26T14:22:20Z</time>
      </trkpt>
      <trkpt lat="43.10708" lon="1.97385">
        <ele>411.554</ele>
        <time>2015-08-26T14:22:40Z</time>
      </trkpt>
      <trkpt lat="43.10703" lon="1.97349">
        <ele>412.543</ele>
        <time>2015-08-26T14:23:00Z</time>
      </trkpt>
      <trkpt lat="43.1069" lon="1.97285">
        <ele>414.346</ele>
        <time>2015-08-26T14:23:20Z</time>
      </trkpt>
      <trkpt lat="43.10645" lon="1.97201">
        <ele>416.693</ele>
        <time>2015-08-26T14:23:40Z</time>
      </trkpt>
      <trkpt lat="43.10635" lon="1.97158">
        <ele>415.897</ele>
        <time>2015-08-26T14:24:00Z</time>
      </trkpt>
      <trkpt lat="43.10634" lon="1.97118">
        <ele>416.198</ele>
        <time>2015-08-26T14:24:20Z</time>
      </trkpt>
      <trkpt lat="43.10646" lon="1.9705">
        <ele>420.415</ele>
        <time>2015-08-26T14:24:40Z</time>
      </trkpt>
      <trkpt lat="43.1064" lon="1.96999">
        <ele>422.026</ele>
        <time>2015-08-26T14:25:00Z</time>
      </trkpt>
      <trkpt lat="43.1064" lon="1.96954">
        <ele>419.508</ele>
        <time>2015-08-26T14:25:20Z</time>
      </trkpt>
      <trkpt lat="43.10656" lon="1.96862">
        <ele>416.895</ele>
        <time>2015-08-26T14:25:40Z</time>
      </trkpt>
      <trkpt lat="43.10675" lon="1.96815">
        <ele>417.13</ele>
        <time>2015-08-26T14:26:00Z</time>
      </trkpt>
      <trkpt lat="43.1065" lon="1.96554">
        <ele>421.661</ele>
        <time>2015-08-26T14:26:20Z</time>
      </trkpt>
      <trkpt lat="43.10637" lon="1.96501">
        <ele>418.516</ele>
        <time>2015-08-26T14:26:40Z</time>
      </trkpt>
      <trkpt lat="43.10642" lon="1.96441">
        <ele>416.885</ele>
        <time>2015-08-26T14:27:00Z</time>
      </trkpt>
      <trkpt lat="43.10635" lon="1.9635">
        <ele>412.218</ele>
        <time>2015-08-26T14:27:20Z</time>
      </trkpt>
      <trkpt lat="43.10614" lon="1.96277">
        <ele>406.155</ele>
        <time>2015-08-26T14:27:40Z</time>
      </trkpt>
      <trkpt lat="43.10549" lon="1.96189">
        <ele>408.049</ele>
        <time>2015-08-26T14:28:00Z</time>
      </trkpt>
      <trkpt lat="43.1051" lon="1.96178">
        <ele>412.579</ele>
        <time>2015-08-26T14:28:20Z</time>
      </trkpt>
      <trkpt lat="43.10454" lon="1.96146">
        <ele>410.805</ele>
        <time>2015-08-26T14:28:40Z</time>
      </trkpt>
      <trkpt lat="43.10413" lon="1.96144">
        <ele>409.025</ele>
        <time>2015-08-26T14:29:00Z</time>
      </trkpt>
      <trkpt lat="43.10657" lon="1.95905">
        <ele>404.808</ele>
        <time>2015-08-26T14:29:20Z</time>
      </trkpt>
      <trkpt lat="43.10668" lon="1.95683">
        <ele>387.643</ele>
        <time>2015-08-26T14:29:40Z</time>
      </trkpt>
      <trkpt lat="43.1069" lon="1.95595">
        <ele>381.238</ele>
        <time>2015-08-26T14:30:00Z</time>
      </trkpt>
      <trkpt lat="43.10734" lon="1.95533">
        <ele>374.829</ele>
        <time>2015-08-26T14:30:20Z</time>
      </trkpt>
      <trkpt lat="43.10788" lon="1.95433">
        <ele>373.154</ele>
        <time>2015-08-26T14:30:40Z</time>
      </trkpt>
      <trkpt lat="43.10864" lon="1.95404">
        <ele>370.883</ele>
        <time>2015-08-26T14:31:00Z</time>
      </trkpt>
      <trkpt lat="43.10977" lon="1.95322">
        <ele>367.056</ele>
        <time>2015-08-26T14:31:20Z</time>
      </trkpt>
      <trkpt lat="43.11049" lon="1.95172">
        <ele>364.773</ele>
        <time>2015-08-26T14:31:40Z</time>
      </trkpt>
      <trkpt lat="43.11072" lon="1.95046">
        <ele>354.497</ele>
        <time>2015-08-26T14:32:00Z</time>
      </trkpt>
      <trkpt lat="43.11086" lon="1.94982">
        <ele>358.657</ele>
        <time>2015-08-26T14:32:20Z</time>
      </trkpt>
      <trkpt lat="43.11171" lon="1.94819">
        <ele>355.5</ele>
        <time>2015-08-26T14:32:40Z</time>
      </trkpt>
      <trkpt lat="43.11203" lon="1.94638">
        <ele>347.52</ele>
        <time>2015-08-26T14:33:00Z</time>
      </trkpt>
      <trkpt lat="43.11202" lon="1.94584">
        <ele>345.908</ele>
        <time>2015-08-26T14:33:20Z</time>
      </trkpt>
      <trkpt lat="43.11194" lon="1.94542">
        <ele>345.651</ele>
        <time>2015-08-26T14:33:40Z</time>
      </trkpt>
      <trkpt lat="43.11171" lon="1.94479">
        <ele>346.636</ele>
        <time>2015-08-26T14:34:00Z</time>
      </trkpt>
      <trkpt lat="43.11146" lon="1.94277">
        <ele>344.347</ele>
        <time>2015-08-26T14:34:20Z</time>
      </trkpt>
      <trkpt lat="43.11121" lon="1.94146">
        <ele>339.592</ele>
        <time>2015-08-26T14:34:40Z</time>
      </trkpt>
      <trkpt lat="43.11109" lon="1.94009">
        <ele>338.181</ele>
        <time>2015-08-26T14:35:00Z</time>
      </trkpt>
      <trkpt lat="43.11089" lon="1.93973">
        <ele>337.834</ele>
        <time>2015-08-26T14:35:20Z</time>
      </trkpt>
      <trkpt lat="43.1109" lon="1.93931">
        <ele>336.371</ele>
        <time>2015-08-26T14:35:40Z</time>
      </trkpt>
      <trkpt lat="43.11082" lon="1.93883">
        <ele>334.975</ele>
        <time>2015-08-26T14:36:00Z</time>
      </trkpt>
      <trkpt lat="43.11051" lon="1.93773">
        <ele>336.646</ele>
        <time>2015-08-26T14:36:20Z</time>
      </trkpt>
      <trkpt lat="43.11033" lon="1.93664">
        <ele>337.988</ele>
        <time>2015-08-26T14:36:40Z</time>
      </trkpt>
      <trkpt lat="43.11012" lon="1.9362">
        <ele>337.616</ele>
        <time>2015-08-26T14:37:00Z</time>
      </trkpt>
      <trkpt lat="43.10981" lon="1.93532">
        <ele>337.508</ele>
        <time>2015-08-26T14:37:20Z</time>
      </trkpt>
      <trkpt lat="43.10955" lon="1.93484">
        <ele>338.91</ele>
        <time>2015-08-26T14:37:40Z</time>
      </trkpt>
      <trkpt lat="43.10941" lon="1.93402">
        <ele>337.715</ele>
        <time>2015-08-26T14:38:00Z</time>
      </trkpt>
      <trkpt lat="43.10918" lon="1.93348">
        <ele>336.856</ele>
        <time>2015-08-26T14:38:20Z</time>
      </trkpt>
      <trkpt lat="43.10974" lon="1.9325">
        <ele>329.171</ele>
        <time>2015-08-26T14:38:40Z</time>
      </trkpt>
      <trkpt lat="43.10989" lon="1.93237">
        <ele>329.69</ele>
        <time>2015-08-26T14:39:00Z</time>
      </trkpt>
      <trkpt lat="43.10992" lon="1.93166">
        <ele>329.783</ele>
        <time>2015-08-26T14:39:20Z</time>
      </trkpt>
      <trkpt lat="43.11001" lon="1.93151">
        <ele>329.55</ele>
        <time>2015-08-26T14:39:40Z</time>
      </trkpt>
      <trkpt lat="43.11033" lon="1.93127">
        <ele>330.164</ele>
        <time>2015-08-26T14:40:00Z</time>
      </trkpt>
      <trkpt lat="43.1108" lon="1.93104">
        <ele>334.234</ele>
        <time>2015-08-26T14:40:20Z</time>
      </trkpt>
      <trkpt lat="43.1109" lon="1.93086">
        <ele>336.355</ele>
        <time>2015-08-26T14:40:40Z</time>
      </trkpt>
      <trkpt lat="43.11067" lon="1.93018">
        <ele>340.01</ele>
        <time>2015-08-26T14:41:00Z</time>
      </trkpt>
      <trkpt lat="43.11023" lon="1.92909">
        <ele>336.008</ele>
        <time>2015-08-26T14:41:20Z</time>
      </trkpt>
      <trkpt lat="43.11045" lon="1.9265">
        <ele>330.099</ele>
        <time>2015-08-26T14:41:40Z</time>
      </trkpt>
      <trkpt lat="43.10916" lon="1.92526">
        <ele>327.184</ele>
        <time>2015-08-26T14:42:00Z</time>
      </trkpt>
      <trkpt lat="43.10922" lon="1.92498">
        <ele>329.375</ele>
        <time>2015-08-26T14:42:20Z</time>
      </trkpt>
      <trkpt lat="43.10887" lon="1.92465">
        <ele>331.54</ele>
        <time>2015-08-26T14:42:40Z</time>
      </trkpt>
      <trkpt lat="43.10871" lon="1.92432">
        <ele>331.229</ele>
        <time>2015-08-26T14:43:00Z</time>
      </trkpt>
      <trkpt lat="43.10872" lon="1.92386">
        <ele>335.152</ele>
        <time>2015-08-26T14:43:20Z</time>
      </trkpt>
      <trkpt lat="43.11028" lon="1.92251">
        <ele>348.919</ele>
        <time>2015-08-26T14:43:40Z</time>
      </trkpt>
      <trkpt lat="43.11066" lon="1.9226">
        <ele>352.943</ele>
        <time>2015-08-26T14:44:00Z</time>
      </trkpt>
      <trkpt lat="43.11091" lon="1.92273">
        <ele>352.326</ele>
        <time>2015-08-26T14:44:20Z</time>
      </trkpt>
      <trkpt lat="43.11152" lon="1.92186">
        <ele>354.447</ele>
        <time>2015-08-26T14:44:40Z</time>
      </trkpt>
      <trkpt lat="43.11193" lon="1.92084">
        <ele>355.011</ele>
        <time>2015-08-26T14:45:00Z</time>
      </trkpt>
      <trkpt lat="43.11274" lon="1.91949">
        <ele>349.708</ele>
        <time>2015-08-26T14:45:20Z</time>
      </trkpt>
      <trkpt lat="43.11304" lon="1.91821">
        <ele>354.888</ele>
        <time>2015-08-26T14:45:40Z</time>
      </trkpt>
      <trkpt lat="43.11297" lon="1.91802">
        <ele>354.443</ele>
        <time>2015-08-26T14:46:00Z</time>
      </trkpt>
      <trkpt lat="43.11347" lon="1.91446">
        <ele>333.634</ele>
        <time>2015-08-26T14:46:20Z</time>
      </trkpt>
      <trkpt lat="43.11363" lon="1.91445">
        <ele>334.179</ele>
        <time>2015-08-26T14:46:40Z</time>
      </trkpt>
      <trkpt lat="43.11406" lon="1.91331">
        <ele>328.488</ele>
        <time>2015-08-26T14:47:00Z</time>
      </trkpt>
      <trkpt lat="43.11428" lon="1.91334">
        <ele>329.481</ele>
        <time>2015-08-26T14:47:20Z</time>
      </trkpt>
      <trkpt lat="43.11492" lon="1.91164">
        <ele>338.538</ele>
        <time>2015-08-26T14:47:40Z</time>
      </trkpt>
      <trkpt lat="43.1154" lon="1.9104">
        <ele>351.512</ele>
        <time>2015-08-26T14:48:00Z</time>
      </trkpt>
      <trkpt lat="43.11557" lon="1.9096">
        <ele>354.271</ele>
        <time>2015-08-26T14:48:20Z</time>
      </trkpt>
      <trkpt lat="43.11585" lon="1.9089">
        <ele>357.541</ele>
        <time>2015-08-26T14:48:40Z</time>
      </trkpt>
      <trkpt lat="43.11604" lon="1.90851">
        <ele>363.315</ele>
        <time>2015-08-26T14:49:00Z</time>
      </trkpt>
      <trkpt lat="43.11624" lon="1.90838">
        <ele>366.808</ele>
        <time>2015-08-26T14:49:20Z</time>
      </trkpt>
      <trkpt lat="43.11663" lon="1.90706">
        <ele>375.123</ele>
        <time>2015-08-26T14:49:40Z</time>
      </trkpt>
      <trkpt lat="43.1168" lon="1.90633">
        <ele>377.228</ele>
        <time>2015-08-26T14:50:00Z</time>
      </trkpt>
      <trkpt lat="43.11692" lon="1.9051">
        <ele>387.229</ele>
        <time>2015-08-26T14:50:20Z</time>
      </trkpt>
      <trkpt lat="43.11689" lon="1.90473">
        <ele>390.414</ele>
        <time>2015-08-26T14:50:40Z</time>
      </trkpt>
      <trkpt lat="43.11678" lon="1.90451">
        <ele>391.643</ele>
        <time>2015-08-26T14:51:00Z</time>
      </trkpt>
      <trkpt lat="43.11629" lon="1.90419">
        <ele>400.266</ele>
        <time>2015-08-26T14:51:20Z</time>
      </trkpt>
      <trkpt lat="43.11579" lon="1.90418">
        <ele>401.563</ele>
        <time>2015-08-26T14:51:40Z</time>
      </trkpt>
      <trkpt lat="43.11553" lon="1.90423">
        <ele>400.467</ele>
        <time>2015-08-26T14:52:00Z</time>
      </trkpt>
      <trkpt lat="43.11545" lon="1.90389">
        <ele>399.681</ele>
        <time>2015-08-26T14:52:20Z</time>
      </trkpt>
      <trkpt lat="43.11523" lon="1.9034">
        <ele>394.361</ele>
        <time>2015-08-26T14:52:40Z</time>
      </trkpt>
      <trkpt lat="43.11461" lon="1.90227">
        <ele>378.617</ele>
        <time>2015-08-26T14:53:00Z</time>
      </trkpt>
      <trkpt lat="43.1144" lon="1.90203">
        <ele>373.808</ele>
        <time>2015-08-26T14:53:20Z</time>
      </trkpt>
      <trkpt lat="43.11423" lon="1.90192">
        <ele>370.994</ele>
        <time>2015-08-26T14:53:40Z</time>
      </trkpt>
      <trkpt lat="43.11425" lon="1.90179">
        <ele>371.159</ele>
        <time>2015-08-26T14:54:00Z</time>
      </trkpt>
      <trkpt lat="43.11316" lon="1.89926">
        <ele>383.93</ele>
        <time>2019-03-29T04:16:11Z</time>
      </trkpt>
      <trkpt lat="43.11249" lon="1.899">
        <ele>381.195</ele>
        <time>2019-03-29T04:16:31Z</time>
      </trkpt>
      <trkpt lat="43.11201" lon="1.89878">
        <ele>378.634</ele>
        <time>2019-03-29T04:16:51Z</time>
      </trkpt>
      <trkpt lat="43.1116" lon="1.89922">
        <ele>372.887</ele>
        <time>2019-03-29T04:17:11Z</time>
      </trkpt>
      <trkpt lat="43.11179" lon="1.89808">
        <ele>362.924</ele>
        <time>2019-03-29T04:17:31Z</time>
      </trkpt>
      <trkpt lat="43.11224" lon="1.89725">
        <ele>355.798</ele>
        <time>2019-03-29T04:17:51Z</time>
      </trkpt>
      <trkpt lat="43.11244" lon="1.89639">
        <ele>344.818</ele>
        <time>2019-03-29T04:18:11Z</time>
      </trkpt>
      <trkpt lat="43.11214" lon="1.89673">
        <ele>347.998</ele>
        <time>2019-03-29T04:18:31Z</time>
      </trkpt>
      <trkpt lat="43.11129" lon="1.89641">
        <ele>346.617</ele>
        <time>2019-03-29T04:18:51Z</time>
      </trkpt>
      <trkpt lat="43.11103" lon="1.89667">
        <ele>349.408</ele>
        <time>2019-03-29T04:19:11Z</time>
      </trkpt>
      <trkpt lat="43.11087" lon="1.89717">
        <ele>348.217</ele>
        <time>2019-03-29T04:19:31Z</time>
      </trkpt>
      <trkpt lat="43.10993" lon="1.89737">
        <ele>338.192</ele>
        <time>2019-03-29T04:19:51Z</time>
      </trkpt>
      <trkpt lat="43.10929" lon="1.89727">
        <ele>328.223</ele>
        <time>2019-03-29T04:20:11Z</time>
      </trkpt>
      <trkpt lat="43.1091" lon="1.89669">
        <ele>324.738</ele>
        <time>2019-03-29T04:20:31Z</time>
      </trkpt>
      <trkpt lat="43.1087" lon="1.89677">
        <ele>323.327</ele>
        <time>2019-03-29T04:20:51Z</time>
      </trkpt>
      <trkpt lat="43.1086" lon="1.89625">
        <ele>323.58</ele>
        <time>2019-03-29T04:21:11Z</time>
      </trkpt>
      <trkpt lat="43.10835" lon="1.89583">
        <ele>326.947</ele>
        <time>2019-03-29T04:21:31Z</time>
      </trkpt>
      <trkpt lat="43.10826" lon="1.89582">
        <ele>327.411</ele>
        <time>2015-08-26T15:01:00Z</time>
      </trkpt>
      <trkpt lat="43.10768" lon="1.89581">
        <ele>327.855</ele>
        <time>2015-08-26T15:01:20Z</time>
      </trkpt>
      <trkpt lat="43.10735" lon="1.89573">
        <ele>327.607</ele>
        <time>2015-08-26T15:01:40Z</time>
      </trkpt>
      <trkpt lat="43.10707" lon="1.89569">
        <ele>328.617</ele>
        <time>2015-08-26T15:02:00Z</time>
      </trkpt>
      <trkpt lat="43.10679" lon="1.89557">
        <ele>329.708</ele>
        <time>2015-08-26T15:02:20Z</time>
      </trkpt>
      <trkpt lat="43.10645" lon="1.89518">
        <ele>329.731</ele>
        <time>2015-08-26T15:02:40Z</time>
      </trkpt>
      <trkpt lat="43.10622" lon="1.8951">
        <ele>328.746</ele>
        <time>2015-08-26T15:03:00Z</time>
      </trkpt>
      <trkpt lat="43.10571" lon="1.89524">
        <ele>330.187</ele>
        <time>2015-08-26T15:03:20Z</time>
      </trkpt>
      <trkpt lat="43.10521" lon="1.89476">
        <ele>338.482</ele>
        <time>2015-08-26T15:03:40Z</time>
      </trkpt>
      <trkpt lat="43.10501" lon="1.89474">
        <ele>340.771</ele>
        <time>2015-08-26T15:04:00Z</time>
      </trkpt>
      <trkpt lat="43.10414" lon="1.89524">
        <ele>347.754</ele>
        <time>2015-08-26T15:04:20Z</time>
      </trkpt>
      <trkpt lat="43.10427" lon="1.89484">
        <ele>350.011</ele>
        <time>2015-08-26T15:04:40Z</time>
      </trkpt>
      <trkpt lat="43.10436" lon="1.89402">
        <ele>355.135</ele>
        <time>2015-08-26T15:05:00Z</time>
      </trkpt>
      <trkpt lat="43.10449" lon="1.89338">
        <ele>359.637</ele>
        <time>2015-08-26T15:05:20Z</time>
      </trkpt>
      <trkpt lat="43.10505" lon="1.89267">
        <ele>364.349</ele>
        <time>2015-08-26T15:05:40Z</time>
      </trkpt>
      <trkpt lat="43.10519" lon="1.8924">
        <ele>364.113</ele>
        <time>2015-08-26T15:06:00Z</time>
      </trkpt>
      <trkpt lat="43.10543" lon="1.89178">
        <ele>362.008</ele>
        <time>2015-08-26T15:06:20Z</time>
      </trkpt>
      <trkpt lat="43.10589" lon="1.89125">
        <ele>359.339</ele>
        <time>2015-08-26T15:06:40Z</time>
      </trkpt>
      <trkpt lat="43.10639" lon="1.89079">
        <ele>352.564</ele>
        <time>2015-08-26T15:07:00Z</time>
      </trkpt>
      <trkpt lat="43.10658" lon="1.89023">
        <ele>344.455</ele>
        <time>2015-08-26T15:07:20Z</time>
      </trkpt>
      <trkpt lat="43.10648" lon="1.88988">
        <ele>340.68</ele>
        <time>2015-08-26T15:07:40Z</time>
      </trkpt>
      <trkpt lat="43.10639" lon="1.88982">
        <ele>339.629</ele>
        <time>2015-08-26T15:08:00Z</time>
      </trkpt>
      <trkpt lat="43.10539" lon="1.88975">
        <ele>336.432</ele>
        <time>2015-08-26T15:08:20Z</time>
      </trkpt>
      <trkpt lat="43.10535" lon="1.88965">
        <ele>335.989</ele>
        <time>2015-08-26T15:08:40Z</time>
      </trkpt>
      <trkpt lat="43.10619" lon="1.88825">
        <ele>339.483</ele>
        <time>2015-08-26T15:09:00Z</time>
      </trkpt>
      <trkpt lat="43.10648" lon="1.88747">
        <ele>344.355</ele>
        <time>2015-08-26T15:09:20Z</time>
      </trkpt>
      <trkpt lat="43.10701" lon="1.8866">
        <ele>353.507</ele>
        <time>2015-08-26T15:09:40Z</time>
      </trkpt>
      <trkpt lat="43.10701" lon="1.88598">
        <ele>357.117</ele>
        <time>2015-08-26T15:10:00Z</time>
      </trkpt>
      <trkpt lat="43.10716" lon="1.88549">
        <ele>358.708</ele>
        <time>2015-08-26T15:10:20Z</time>
      </trkpt>
      <trkpt lat="43.10732" lon="1.88523">
        <ele>359.161</ele>
        <time>2015-08-26T15:10:40Z</time>
      </trkpt>
      <trkpt lat="43.10763" lon="1.88527">
        <ele>360.016</ele>
        <time>2015-08-26T15:11:00Z</time>
      </trkpt>
      <trkpt lat="43.10912" lon="1.88363">
        <ele>365.817</ele>
        <time>2015-08-26T15:11:20Z</time>
      </trkpt>
      <trkpt lat="43.10889" lon="1.88338">
        <ele>365.962</ele>
        <time>2015-08-26T15:11:40Z</time>
      </trkpt>
      <trkpt lat="43.10802" lon="1.8828">
        <ele>353.741</ele>
        <time>2015-08-26T15:12:00Z</time>
      </trkpt>
      <trkpt lat="43.10632" lon="1.88191">
        <ele>347.464</ele>
        <time>2015-08-26T15:12:20Z</time>
      </trkpt>
      <trkpt lat="43.1061" lon="1.88207">
        <ele>350.141</ele>
        <time>2020-03-09T00:17:17Z</time>
      </trkpt>
      <trkpt lat="43.10577" lon="1.88196">
        <ele>344.175</ele>
        <time>2020-03-09T00:17:37Z</time>
      </trkpt>
      <trkpt lat="43.10533" lon="1.88203">
        <ele>338.394</ele>
        <time>2020-03-09T00:17:57Z</time>
      </trkpt>
      <trkpt lat="43.1049" lon="1.88179">
        <ele>334.357</ele>
        <time>2020-03-09T00:18:17Z</time>
      </trkpt>
      <trkpt lat="43.10464" lon="1.88147">
        <ele>335.022</ele>
        <time>2015-08-26T15:13:40Z</time>
      </trkpt>
      <trkpt lat="43.10394" lon="1.8809">
        <ele>344.808</ele>
        <time>2020-03-09T00:18:57Z</time>
      </trkpt>
      <trkpt lat="43.10327" lon="1.88072">
        <ele>353.695</ele>
        <time>2015-08-26T15:14:20Z</time>
      </trkpt>
      <trkpt lat="43.10272" lon="1.88051">
        <ele>358.96</ele>
        <time>2020-03-09T00:19:37Z</time>
      </trkpt>
      <trkpt lat="43.10252" lon="1.88021">
        <ele>356.691</ele>
        <time>2020-03-09T00:19:57Z</time>
      </trkpt>
      <trkpt lat="43.10242" lon="1.88029">
        <ele>357.336</ele>
        <time>2015-08-26T15:14:40Z</time>
      </trkpt>
      <trkpt lat="43.10197" lon="1.88037">
        <ele>354.955</ele>
        <time>2015-08-26T15:15:00Z</time>
      </trkpt>
      <trkpt lat="43.10135" lon="1.88005">
        <ele>346.628</ele>
        <time>2015-08-26T15:15:20Z</time>
      </trkpt>
      <trkpt lat="43.10087" lon="1.88019">
        <ele>347.395</ele>
        <time>2015-08-26T15:15:40Z</time>
      </trkpt>
      <trkpt lat="43.10157" lon="1.87898">
        <ele>326.189</ele>
        <time>2015-08-26T15:16:00Z</time>
      </trkpt>
      <trkpt lat="43.10116" lon="1.87837">
        <ele>320.531</ele>
        <time>2015-08-26T15:16:20Z</time>
      </trkpt>
      <trkpt lat="43.10078" lon="1.87793">
        <ele>316.161</ele>
        <time>2015-08-26T15:16:40Z</time>
      </trkpt>
      <trkpt lat="43.09976" lon="1.87732">
        <ele>306.007</ele>
        <time>2015-08-26T15:17:00Z</time>
      </trkpt>
      <trkpt lat="43.09956" lon="1.8773">
        <ele>305.008</ele>
        <time>2015-08-26T15:17:20Z</time>
      </trkpt>
      <trkpt lat="43.09932" lon="1.87719">
        <ele>303.449</ele>
        <time>2015-08-26T15:17:40Z</time>
      </trkpt>
      <trkpt lat="43.09912" lon="1.87695">
        <ele>299.984</ele>
        <time>2015-08-26T15:18:00Z</time>
      </trkpt>
      <trkpt lat="43.09907" lon="1.87651">
        <ele>299.765</ele>
        <time>2015-08-26T15:18:20Z</time>
      </trkpt>
      <trkpt lat="43.09874" lon="1.876">
        <ele>298.54</ele>
        <time>2015-08-26T15:18:40Z</time>
      </trkpt>
      <trkpt lat="43.09778" lon="1.87511">
        <ele>295.449</ele>
        <time>2015-08-26T15:19:00Z</time>
      </trkpt>
      <trkpt lat="43.09649" lon="1.87457">
        <ele>293.042</ele>
        <time>2015-08-26T15:19:20Z</time>
      </trkpt>
      <trkpt lat="43.09641" lon="1.87595">
        <ele>295.039</ele>
        <time>2015-08-26T15:19:40Z</time>
      </trkpt>
      <trkpt lat="43.09614" lon="1.87625">
        <ele>295.043</ele>
        <time>2015-08-26T15:20:00Z</time>
      </trkpt>
      <trkpt lat="43.08911" lon="1.87614">
        <ele>300.293</ele>
        <time>2015-08-26T15:20:20Z</time>
      </trkpt>
      <trkpt lat="43.0864" lon="1.87608">
        <ele>306.065</ele>
        <time>2015-08-26T16:40:40Z</time>
      </trkpt>
      <trkpt lat="43.08515" lon="1.87606">
        <ele>307.208</ele>
        <time>2015-08-26T16:41:00Z</time>
      </trkpt>
      <trkpt lat="43.08458" lon="1.87616">
        <ele>307.845</ele>
        <time>2015-08-26T16:41:20Z</time>
      </trkpt>
      <trkpt lat="43.08448" lon="1.87645">
        <ele>306.83</ele>
        <time>2015-08-26T16:41:40Z</time>
      </trkpt>
      <trkpt lat="43.0843" lon="1.87655">
        <ele>306.731</ele>
        <time>2015-08-26T16:42:00Z</time>
      </trkpt>
      <trkpt lat="43.084" lon="1.87911">
        <ele>303.566</ele>
        <time>2015-08-26T16:42:20Z</time>
      </trkpt>
      <trkpt lat="43.08268" lon="1.89995">
        <ele>311.985</ele>
        <time>2015-08-26T16:42:40Z</time>
      </trkpt>
      <trkpt lat="43.08112" lon="1.90095">
        <ele>319.588</ele>
        <time>2015-08-26T16:43:00Z</time>
      </trkpt>
      <trkpt lat="43.07994" lon="1.90128">
        <ele>323.445</ele>
        <time>2015-08-26T16:43:20Z</time>
      </trkpt>
      <trkpt lat="43.07961" lon="1.90232">
        <ele>319.139</ele>
        <time>2015-08-26T16:43:40Z</time>
      </trkpt>
      <trkpt lat="43.07894" lon="1.9029">
        <ele>320.183</ele>
        <time>2015-08-26T16:44:00Z</time>
      </trkpt>
      <trkpt lat="43.07767" lon="1.90543">
        <ele>322.825</ele>
        <time>2015-08-26T16:44:20Z</time>
      </trkpt>
      <trkpt lat="43.0751" lon="1.90762">
        <ele>330.217</ele>
        <time>2015-08-26T16:44:40Z</time>
      </trkpt>
      <trkpt lat="43.07433" lon="1.90804">
        <ele>331.508</ele>
        <time>2015-08-26T16:45:00Z</time>
      </trkpt>
      <trkpt lat="43.07397" lon="1.90819">
        <ele>331.694</ele>
        <time>2015-08-26T16:45:20Z</time>
      </trkpt>
      <trkpt lat="43.07311" lon="1.90835">
        <ele>335.729</ele>
        <time>2015-08-26T16:45:40Z</time>
      </trkpt>
      <trkpt lat="43.0722" lon="1.90768">
        <ele>340.51</ele>
        <time>2015-08-26T16:46:00Z</time>
      </trkpt>
      <trkpt lat="43.07142" lon="1.90823">
        <ele>346.865</ele>
        <time>2015-08-26T16:46:20Z</time>
      </trkpt>
      <trkpt lat="43.0707" lon="1.9086">
        <ele>349.474</ele>
        <time>2015-08-26T16:46:40Z</time>
      </trkpt>
      <trkpt lat="43.06989" lon="1.90964">
        <ele>359.547</ele>
        <time>2015-08-26T16:47:00Z</time>
      </trkpt>
      <trkpt lat="43.0685" lon="1.91058">
        <ele>362.184</ele>
        <time>2015-08-26T16:47:20Z</time>
      </trkpt>
      <trkpt lat="43.06797" lon="1.91045">
        <ele>367.038</ele>
        <time>2015-08-26T16:47:40Z</time>
      </trkpt>
      <trkpt lat="43.0676" lon="1.91016">
        <ele>364.478</ele>
        <time>2015-08-26T16:48:00Z</time>
      </trkpt>
      <trkpt lat="43.06703" lon="1.91087">
        <ele>368.633</ele>
        <time>2015-08-26T16:48:20Z</time>
      </trkpt>
      <trkpt lat="43.06635" lon="1.91161">
        <ele>376.526</ele>
        <time>2015-08-26T16:48:40Z</time>
      </trkpt>
      <trkpt lat="43.06607" lon="1.91163">
        <ele>379.808</ele>
        <time>2015-08-26T16:49:00Z</time>
      </trkpt>
      <trkpt lat="43.06577" lon="1.91154">
        <ele>384.553</ele>
        <time>2015-08-26T16:49:20Z</time>
      </trkpt>
      <trkpt lat="43.06559" lon="1.91165">
        <ele>385.948</ele>
        <time>2015-08-26T16:49:40Z</time>
      </trkpt>
      <trkpt lat="43.0646" lon="1.91196">
        <ele>393.189</ele>
        <time>2015-08-26T16:50:00Z</time>
      </trkpt>
      <trkpt lat="43.06444" lon="1.91324">
        <ele>388.274</ele>
        <time>2015-08-26T16:50:20Z</time>
      </trkpt>
      <trkpt lat="43.06443" lon="1.91439">
        <ele>390.993</ele>
        <time>2015-08-26T16:50:40Z</time>
      </trkpt>
      <trkpt lat="43.06463" lon="1.91548">
        <ele>398.336</ele>
        <time>2015-08-26T16:51:00Z</time>
      </trkpt>
      <trkpt lat="43.06473" lon="1.91623">
        <ele>401.163</ele>
        <time>2015-08-26T16:51:20Z</time>
      </trkpt>
      <trkpt lat="43.06516" lon="1.91693">
        <ele>407.017</ele>
        <time>2015-08-26T16:51:40Z</time>
      </trkpt>
      <trkpt lat="43.06547" lon="1.91762">
        <ele>408.193</ele>
        <time>2015-08-26T16:52:00Z</time>
      </trkpt>
      <trkpt lat="43.0654" lon="1.91776">
        <ele>406.365</ele>
        <time>2015-08-26T16:52:20Z</time>
      </trkpt>
      <trkpt lat="43.0653" lon="1.91836">
        <ele>408.521</ele>
        <time>2015-08-26T16:52:40Z</time>
      </trkpt>
      <trkpt lat="43.06505" lon="1.91906">
        <ele>404.008</ele>
        <time>2015-08-26T16:53:00Z</time>
      </trkpt>
      <trkpt lat="43.06482" lon="1.92022">
        <ele>399.145</ele>
        <time>2015-08-26T16:53:20Z</time>
      </trkpt>
      <trkpt lat="43.06449" lon="1.92101">
        <ele>392.51</ele>
        <time>2015-08-26T16:53:40Z</time>
      </trkpt>
      <trkpt lat="43.06427" lon="1.9221">
        <ele>389.961</ele>
        <time>2015-08-26T16:54:00Z</time>
      </trkpt>
      <trkpt lat="43.06409" lon="1.92259">
        <ele>387.036</ele>
        <time>2015-08-26T16:54:20Z</time>
      </trkpt>
      <trkpt lat="43.06405" lon="1.92284">
        <ele>386.765</ele>
        <time>2015-08-26T16:54:40Z</time>
      </trkpt>
      <trkpt lat="43.06438" lon="1.92455">
        <ele>374.818</ele>
        <time>2015-08-26T16:55:00Z</time>
      </trkpt>
      <trkpt lat="43.06401" lon="1.92523">
        <ele>365.935</ele>
        <time>2015-08-26T16:55:20Z</time>
      </trkpt>
      <trkpt lat="43.06378" lon="1.92538">
        <ele>364.729</ele>
        <time>2015-08-26T16:55:40Z</time>
      </trkpt>
      <trkpt lat="43.06334" lon="1.92695">
        <ele>358.987</ele>
        <time>2015-08-26T16:56:00Z</time>
      </trkpt>
      <trkpt lat="43.06248" lon="1.92981">
        <ele>344.742</ele>
        <time>2015-08-26T16:56:20Z</time>
      </trkpt>
      <trkpt lat="43.06232" lon="1.93093">
        <ele>340.126</ele>
        <time>2015-08-26T16:56:40Z</time>
      </trkpt>
      <trkpt lat="43.0617" lon="1.93261">
        <ele>322.408</ele>
        <time>2019-03-29T10:09:02Z</time>
      </trkpt>
      <trkpt lat="43.06098" lon="1.93257">
        <ele>320.534</ele>
        <time>2020-12-02T00:02:28Z</time>
      </trkpt>
      <trkpt lat="43.06047" lon="1.93354">
        <ele>326.119</ele>
        <time>2020-12-02T00:02:48Z</time>
      </trkpt>
      <trkpt lat="43.06027" lon="1.93354">
        <ele>328.15</ele>
        <time>2015-08-26T16:58:00Z</time>
      </trkpt>
      <trkpt lat="43.05968" lon="1.93334">
        <ele>332.525</ele>
        <time>2015-08-26T16:58:20Z</time>
      </trkpt>
      <trkpt lat="43.05898" lon="1.93323">
        <ele>339.144</ele>
        <time>2015-08-26T16:58:40Z</time>
      </trkpt>
      <trkpt lat="43.05792" lon="1.93326">
        <ele>348.587</ele>
        <time>2015-08-26T16:59:00Z</time>
      </trkpt>
      <trkpt lat="43.05653" lon="1.93444">
        <ele>356.994</ele>
        <time>2015-08-26T16:59:20Z</time>
      </trkpt>
      <trkpt lat="43.05595" lon="1.93465">
        <ele>358.298</ele>
        <time>2015-08-26T16:59:40Z</time>
      </trkpt>
      <trkpt lat="43.05458" lon="1.93453">
        <ele>360.255</ele>
        <time>2015-08-26T17:00:00Z</time>
      </trkpt>
      <trkpt lat="43.05309" lon="1.93447">
        <ele>368.707</ele>
        <time>2015-08-26T17:00:20Z</time>
      </trkpt>
      <trkpt lat="43.05228" lon="1.9361">
        <ele>376.617</ele>
        <time>2015-08-26T17:00:40Z</time>
      </trkpt>
      <trkpt lat="43.05047" lon="1.93441">
        <ele>377.808</ele>
        <time>2015-08-26T17:01:00Z</time>
      </trkpt>
      <trkpt lat="43.05023" lon="1.93475">
        <ele>377.681</ele>
        <time>2015-08-26T17:01:20Z</time>
      </trkpt>
      <trkpt lat="43.04998" lon="1.93529">
        <ele>376.736</ele>
        <time>2015-08-26T17:01:40Z</time>
      </trkpt>
      <trkpt lat="43.04985" lon="1.93522">
        <ele>374.727</ele>
        <time>2015-08-26T17:02:00Z</time>
      </trkpt>
      <trkpt lat="43.04959" lon="1.93602">
        <ele>373.112</ele>
        <time>2015-08-26T17:02:20Z</time>
      </trkpt>
      <trkpt lat="43.04868" lon="1.93568">
        <ele>361.861</ele>
        <time>2015-08-26T17:02:40Z</time>
      </trkpt>
      <trkpt lat="43.04805" lon="1.93578">
        <ele>353.394</ele>
        <time>2015-08-26T17:03:00Z</time>
      </trkpt>
      <trkpt lat="43.04715" lon="1.93548">
        <ele>341.151</ele>
        <time>2015-08-26T17:03:20Z</time>
      </trkpt>
      <trkpt lat="43.04686" lon="1.93578">
        <ele>332.985</ele>
        <time>2015-08-26T17:03:40Z</time>
      </trkpt>
      <trkpt lat="43.04703" lon="1.93619">
        <ele>330.993</ele>
        <time>2015-08-26T17:04:00Z</time>
      </trkpt>
      <trkpt lat="43.04685" lon="1.9366">
        <ele>327.065</ele>
        <time>2015-08-26T17:04:20Z</time>
      </trkpt>
      <trkpt lat="43.04671" lon="1.93717">
        <ele>327.021</ele>
        <time>2015-08-26T17:04:40Z</time>
      </trkpt>
      <trkpt lat="43.04555" lon="1.93659">
        <ele>326.008</ele>
        <time>2015-08-26T17:05:00Z</time>
      </trkpt>
      <trkpt lat="43.04512" lon="1.93827">
        <ele>325.045</ele>
        <time>2015-08-26T17:05:20Z</time>
      </trkpt>
      <trkpt lat="43.04455" lon="1.93904">
        <ele>325.01</ele>
        <time>2015-08-26T17:05:40Z</time>
      </trkpt>
      <trkpt lat="43.04444" lon="1.93941">
        <ele>325.071</ele>
        <time>2015-08-26T17:06:00Z</time>
      </trkpt>
      <trkpt lat="43.04448" lon="1.94018">
        <ele>325.026</ele>
        <time>2015-08-26T17:06:20Z</time>
      </trkpt>
      <trkpt lat="43.04383" lon="1.94142">
        <ele>327.095</ele>
        <time>2015-08-26T17:06:40Z</time>
      </trkpt>
      <trkpt lat="43.04314" lon="1.94277">
        <ele>328.068</ele>
        <time>2015-08-26T17:07:00Z</time>
      </trkpt>
      <trkpt lat="43.04194" lon="1.94265">
        <ele>329.085</ele>
        <time>2015-08-26T17:07:20Z</time>
      </trkpt>
      <trkpt lat="43.0366" lon="1.94196">
        <ele>330.849</ele>
        <time>2015-08-26T17:07:40Z</time>
      </trkpt>
      <trkpt lat="43.03593" lon="1.94202">
        <ele>336.434</ele>
        <time>2015-08-26T17:08:00Z</time>
      </trkpt>
      <trkpt lat="43.03524" lon="1.94227">
        <ele>338.155</ele>
        <time>2015-08-26T17:08:20Z</time>
      </trkpt>
      <trkpt lat="43.03458" lon="1.94266">
        <ele>335.81</ele>
        <time>2015-08-26T17:08:40Z</time>
      </trkpt>
      <trkpt lat="43.03389" lon="1.94341">
        <ele>336.208</ele>
        <time>2015-08-26T17:09:00Z</time>
      </trkpt>
      <trkpt lat="43.03337" lon="1.94432">
        <ele>336.889</ele>
        <time>2015-08-26T17:09:20Z</time>
      </trkpt>
      <trkpt lat="43.03149" lon="1.94926">
        <ele>336.534</ele>
        <time>2015-08-26T17:09:40Z</time>
      </trkpt>
      <trkpt lat="43.0308" lon="1.95034">
        <ele>340.785</ele>
        <time>2015-08-26T17:10:00Z</time>
      </trkpt>
      <trkpt lat="43.02791" lon="1.95331">
        <ele>343.02</ele>
        <time>2015-08-26T17:10:20Z</time>
      </trkpt>
      <trkpt lat="43.02744" lon="1.95395">
        <ele>343.049</ele>
        <time>2015-08-26T17:10:40Z</time>
      </trkpt>
      <trkpt lat="43.02704" lon="1.95471">
        <ele>342.392</ele>
        <time>2015-08-26T17:11:00Z</time>
      </trkpt>
      <trkpt lat="43.02663" lon="1.95585">
        <ele>342.939</ele>
        <time>2015-08-26T17:11:20Z</time>
      </trkpt>
      <trkpt lat="43.02644" lon="1.95684">
        <ele>343.223</ele>
        <time>2015-08-26T17:11:40Z</time>
      </trkpt>
      <trkpt lat="43.02617" lon="1.96017">
        <ele>345.888</ele>
        <time>2015-08-26T17:12:00Z</time>
      </trkpt>
      <trkpt lat="43.0259" lon="1.96123">
        <ele>343.724</ele>
        <time>2015-08-26T17:12:20Z</time>
      </trkpt>
      <trkpt lat="43.02556" lon="1.96199">
        <ele>341.026</ele>
        <time>2015-08-26T17:12:40Z</time>
      </trkpt>
      <trkpt lat="43.02499" lon="1.96282">
        <ele>339.008</ele>
        <time>2015-08-26T17:13:00Z</time>
      </trkpt>
      <trkpt lat="43.02438" lon="1.96341">
        <ele>337.084</ele>
        <time>2015-08-26T17:13:20Z</time>
      </trkpt>
      <trkpt lat="43.02332" lon="1.9639">
        <ele>335.059</ele>
        <time>2015-08-26T17:13:40Z</time>
      </trkpt>
      <trkpt lat="43.02161" lon="1.964">
        <ele>345.94</ele>
        <time>2020-12-02T00:19:08Z</time>
      </trkpt>
      <trkpt lat="43.02172" lon="1.96417">
        <ele>343.355</ele>
        <time>2020-12-02T00:19:28Z</time>
      </trkpt>
      <trkpt lat="43.02157" lon="1.96463">
        <ele>342.434</ele>
        <time>2020-12-02T00:19:48Z</time>
      </trkpt>
      <trkpt lat="43.02167" lon="1.96498">
        <ele>341.947</ele>
        <time>2020-12-02T00:20:08Z</time>
      </trkpt>
      <trkpt lat="43.02164" lon="1.9652">
        <ele>343.644</ele>
        <time>2020-12-02T00:20:28Z</time>
      </trkpt>
      <trkpt lat="43.02182" lon="1.96553">
        <ele>342.898</ele>
        <time>2020-12-02T00:20:48Z</time>
      </trkpt>
      <trkpt lat="43.02197" lon="1.96625">
        <ele>343.242</ele>
        <time>2020-12-02T00:21:08Z</time>
      </trkpt>
      <trkpt lat="43.02258" lon="1.96827">
        <ele>339.722</ele>
        <time>2020-12-02T00:21:28Z</time>
      </trkpt>
      <trkpt lat="43.02251" lon="1.96839">
        <ele>340.014</ele>
        <time>2020-12-02T00:21:48Z</time>
      </trkpt>
      <trkpt lat="43.0224" lon="1.96832">
        <ele>340.708</ele>
        <time>2020-12-02T00:22:08Z</time>
      </trkpt>
      <trkpt lat="43.02226" lon="1.96816">
        <ele>341.78</ele>
        <time>2020-12-02T00:22:28Z</time>
      </trkpt>
      <trkpt lat="43.0221" lon="1.96814">
        <ele>342.585</ele>
        <time>2020-12-02T00:22:48Z</time>
      </trkpt>
      <trkpt lat="43.02196" lon="1.96837">
        <ele>342.826</ele>
        <time>2020-12-02T00:23:08Z</time>
      </trkpt>
      <trkpt lat="43.0216" lon="1.96805">
        <ele>343.091</ele>
        <time>2020-12-02T00:23:28Z</time>
      </trkpt>
      <trkpt lat="43.0214" lon="1.96758">
        <ele>344.07</ele>
        <time>2020-12-02T00:23:48Z</time>
      </trkpt>
      <trkpt lat="43.02138" lon="1.96713">
        <ele>345.053</ele>
        <time>2020-12-02T00:24:08Z</time>
      </trkpt>
      <trkpt lat="43.02087" lon="1.96723">
        <ele>344.14</ele>
        <time>2020-12-02T00:24:28Z</time>
      </trkpt>
      <trkpt lat="43.01988" lon="1.96727">
        <ele>344.334</ele>
        <time>2020-12-02T00:24:48Z</time>
      </trkpt>
      <trkpt lat="43.01956" lon="1.96681">
        <ele>345.822</ele>
        <time>2020-12-02T00:25:08Z</time>
      </trkpt>
      <trkpt lat="43.01879" lon="1.96607">
        <ele>348.062</ele>
        <time>2020-12-02T00:25:28Z</time>
      </trkpt>
      <trkpt lat="43.01807" lon="1.96551">
        <ele>347.008</ele>
        <time>2020-12-02T00:25:48Z</time>
      </trkpt>
      <trkpt lat="43.01778" lon="1.96453">
        <ele>347.008</ele>
        <time>2020-12-02T00:26:08Z</time>
      </trkpt>
      <trkpt lat="43.01754" lon="1.96413">
        <ele>347.248</ele>
        <time>2020-12-02T00:26:28Z</time>
      </trkpt>
      <trkpt lat="43.01649" lon="1.96315">
        <ele>347.243</ele>
        <time>2020-12-02T00:26:48Z</time>
      </trkpt>
      <trkpt lat="43.01544" lon="1.96244">
        <ele>347.144</ele>
        <time>2020-12-02T00:27:08Z</time>
      </trkpt>
      <trkpt lat="43.01514" lon="1.96231">
        <ele>347.319</ele>
        <time>2020-12-02T00:27:28Z</time>
      </trkpt>
      <trkpt lat="43.01521" lon="1.96184">
        <ele>348.588</ele>
        <time>2020-12-02T00:27:48Z</time>
      </trkpt>
      <trkpt lat="43.01517" lon="1.96152">
        <ele>349.831</ele>
        <time>2020-12-02T00:28:08Z</time>
      </trkpt>
      <trkpt lat="43.01247" lon="1.96199">
        <ele>359.748</ele>
        <time>2019-03-29T10:26:42Z</time>
      </trkpt>
      <trkpt lat="43.00929" lon="1.96436">
        <ele>381.222</ele>
        <time>2019-03-29T10:27:02Z</time>
      </trkpt>
      <trkpt lat="43.00807" lon="1.96654">
        <ele>350.556</ele>
        <time>2019-03-29T10:27:22Z</time>
      </trkpt>
      <trkpt lat="43.00736" lon="1.97295">
        <ele>353.759</ele>
        <time>2019-03-29T10:27:42Z</time>
      </trkpt>
      <trkpt lat="43.00893" lon="1.98202">
        <ele>356.814</ele>
        <time>2019-03-29T10:28:02Z</time>
      </trkpt>
      <trkpt lat="43.00876" lon="1.98391">
        <ele>361.008</ele>
        <time>2019-03-29T10:28:22Z</time>
      </trkpt>
      <trkpt lat="43.00803" lon="1.98576">
        <ele>359.161</ele>
        <time>2019-03-29T10:28:42Z</time>
      </trkpt>
      <trkpt lat="43.00679" lon="1.9868">
        <ele>359.036</ele>
        <time>2019-03-29T10:29:02Z</time>
      </trkpt>
      <trkpt lat="43.00448" lon="1.98765">
        <ele>359.027</ele>
        <time>2019-03-29T10:29:22Z</time>
      </trkpt>
      <trkpt lat="43.00325" lon="1.98849">
        <ele>364.282</ele>
        <time>2019-03-29T10:29:42Z</time>
      </trkpt>
      <trkpt lat="43.0032" lon="1.98947">
        <ele>359.051</ele>
        <time>2019-03-29T10:30:02Z</time>
      </trkpt>
      <trkpt lat="43.00589" lon="1.98888">
        <ele>359.014</ele>
        <time>2019-03-29T10:30:22Z</time>
      </trkpt>
      <trkpt lat="43.00586" lon="1.9896">
        <ele>359.051</ele>
        <time>2019-03-29T10:30:42Z</time>
      </trkpt>
      <trkpt lat="43.00567" lon="1.98986">
        <ele>359.075</ele>
        <time>2019-03-29T10:31:02Z</time>
      </trkpt>
      <trkpt lat="43.00553" lon="1.99181">
        <ele>364.019</ele>
        <time>2019-03-29T10:31:22Z</time>
      </trkpt>
      <trkpt lat="43.00444" lon="1.99217">
        <ele>365.809</ele>
        <time>2019-03-29T10:31:42Z</time>
      </trkpt>
      <trkpt lat="43.0046" lon="1.99249">
        <ele>367.419</ele>
        <time>2019-03-29T10:32:02Z</time>
      </trkpt>
      <trkpt lat="43.00464" lon="1.99264">
        <ele>367.808</ele>
        <time>2015-08-26T17:30:20Z</time>
      </trkpt>
      <trkpt lat="43.00495" lon="1.99286">
        <ele>368.357</ele>
        <time>2015-08-26T17:30:40Z</time>
      </trkpt>
      <trkpt lat="43.00483" lon="1.99326">
        <ele>370.582</ele>
        <time>2015-08-26T17:31:00Z</time>
      </trkpt>
      <trkpt lat="43.00482" lon="1.99369">
        <ele>374.073</ele>
        <time>2015-08-26T17:31:20Z</time>
      </trkpt>
      <trkpt lat="43.00463" lon="1.99409">
        <ele>376.538</ele>
        <time>2015-08-26T17:31:40Z</time>
      </trkpt>
      <trkpt lat="43.00455" lon="1.996">
        <ele>391.257</ele>
        <time>2015-08-26T17:32:00Z</time>
      </trkpt>
      <trkpt lat="43.00436" lon="1.99651">
        <ele>392.16</ele>
        <time>2015-08-26T17:32:20Z</time>
      </trkpt>
      <trkpt lat="43.00434" lon="1.99695">
        <ele>398.047</ele>
        <time>2015-08-26T17:32:40Z</time>
      </trkpt>
      <trkpt lat="43.00419" lon="1.99766">
        <ele>407.591</ele>
        <time>2015-08-26T17:33:00Z</time>
      </trkpt>
      <trkpt lat="43.00432" lon="1.99834">
        <ele>417.898</ele>
        <time>2015-08-26T17:33:20Z</time>
      </trkpt>
      <trkpt lat="43.00412" lon="1.99919">
        <ele>425.715</ele>
        <time>2015-08-26T17:33:40Z</time>
      </trkpt>
      <trkpt lat="43.00456" lon="1.99909">
        <ele>432.726</ele>
        <time>2015-08-26T17:34:00Z</time>
      </trkpt>
      <trkpt lat="43.00474" lon="1.99918">
        <ele>438.508</ele>
        <time>2015-08-26T17:34:20Z</time>
      </trkpt>
      <trkpt lat="43.00455" lon="1.99988">
        <ele>448.185</ele>
        <time>2015-08-26T17:34:40Z</time>
      </trkpt>
      <trkpt lat="43.00487" lon="2.00096">
        <ele>465.46</ele>
        <time>2015-08-26T17:35:00Z</time>
      </trkpt>
      <trkpt lat="43.00481" lon="2.00166">
        <ele>471.361</ele>
        <time>2015-08-26T17:35:20Z</time>
      </trkpt>
      <trkpt lat="43.00544" lon="2.00363">
        <ele>482.766</ele>
        <time>2015-08-26T17:35:40Z</time>
      </trkpt>
      <trkpt lat="43.00583" lon="2.00551">
        <ele>488.015</ele>
        <time>2015-08-26T17:36:00Z</time>
      </trkpt>
      <trkpt lat="43.0055" lon="2.00558">
        <ele>489.048</ele>
        <time>2015-08-26T17:36:20Z</time>
      </trkpt>
      <trkpt lat="43.00552" lon="2.00615">
        <ele>497.515</ele>
        <time>2015-08-26T17:36:40Z</time>
      </trkpt>
      <trkpt lat="43.00503" lon="2.00809">
        <ele>509.349</ele>
        <time>2015-08-26T17:37:00Z</time>
      </trkpt>
      <trkpt lat="43.00469" lon="2.00885">
        <ele>516.943</ele>
        <time>2015-08-26T17:37:20Z</time>
      </trkpt>
      <trkpt lat="43.0039" lon="2.0099">
        <ele>529.964</ele>
        <time>2015-08-26T17:37:40Z</time>
      </trkpt>
      <trkpt lat="43.00335" lon="2.01235">
        <ele>529.81</ele>
        <time>2015-08-26T17:38:00Z</time>
      </trkpt>
      <trkpt lat="43.00247" lon="2.01429">
        <ele>540.008</ele>
        <time>2015-08-26T17:38:20Z</time>
      </trkpt>
      <trkpt lat="43.00223" lon="2.01499">
        <ele>540.07</ele>
        <time>2015-08-26T17:38:40Z</time>
      </trkpt>
      <trkpt lat="43.00213" lon="2.01739">
        <ele>536.775</ele>
        <time>2015-08-26T17:39:00Z</time>
      </trkpt>
      <trkpt lat="43.00215" lon="2.01801">
        <ele>538.436</ele>
        <time>2015-08-26T17:39:20Z</time>
      </trkpt>
      <trkpt lat="43.00206" lon="2.01905">
        <ele>538.941</ele>
        <time>2015-08-26T17:39:40Z</time>
      </trkpt>
      <trkpt lat="43.00171" lon="2.01975">
        <ele>541.07</ele>
        <time>2015-08-26T17:40:00Z</time>
      </trkpt>
      <trkpt lat="43.00068" lon="2.02011">
        <ele>535.453</ele>
        <time>2015-08-26T17:40:20Z</time>
      </trkpt>
      <trkpt lat="43.0007" lon="2.01912">
        <ele>527.06</ele>
        <time>2015-08-26T17:40:40Z</time>
      </trkpt>
      <trkpt lat="43.00014" lon="2.01837">
        <ele>521.264</ele>
        <time>2015-08-26T17:41:00Z</time>
      </trkpt>
      <trkpt lat="42.99853" lon="2.0183">
        <ele>509.695</ele>
        <time>2015-08-26T17:41:20Z</time>
      </trkpt>
      <trkpt lat="42.99903" lon="2.0161">
        <ele>490.449</ele>
        <time>2015-08-26T17:41:40Z</time>
      </trkpt>
      <trkpt lat="42.99949" lon="2.01573">
        <ele>490.223</ele>
        <time>2015-08-26T17:42:00Z</time>
      </trkpt>
      <trkpt lat="42.99944" lon="2.01547">
        <ele>488.908</ele>
        <time>2015-08-26T17:42:20Z</time>
      </trkpt>
      <trkpt lat="42.99893" lon="2.01406">
        <ele>492.625</ele>
        <time>2015-08-26T17:42:40Z</time>
      </trkpt>
      <trkpt lat="42.99835" lon="2.01313">
        <ele>494.51</ele>
        <time>2015-08-26T17:43:00Z</time>
      </trkpt>
      <trkpt lat="42.99767" lon="2.01233">
        <ele>496.151</ele>
        <time>2015-08-26T17:43:20Z</time>
      </trkpt>
      <trkpt lat="42.99656" lon="2.01168">
        <ele>506.316</ele>
        <time>2015-08-26T17:43:40Z</time>
      </trkpt>
      <trkpt lat="42.99512" lon="2.01186">
        <ele>488.925</ele>
        <time>2015-08-26T17:44:00Z</time>
      </trkpt>
      <trkpt lat="42.99476" lon="2.01119">
        <ele>494.088</ele>
        <time>2015-08-26T17:44:20Z</time>
      </trkpt>
      <trkpt lat="42.99407" lon="2.01083">
        <ele>487.655</ele>
        <time>2015-08-26T17:44:40Z</time>
      </trkpt>
      <trkpt lat="42.99342" lon="2.01029">
        <ele>487.749</ele>
        <time>2015-08-26T17:45:00Z</time>
      </trkpt>
      <trkpt lat="42.99293" lon="2.00981">
        <ele>488.037</ele>
        <time>2015-08-26T17:45:20Z</time>
      </trkpt>
      <trkpt lat="42.99225" lon="2.00944">
        <ele>497.649</ele>
        <time>2015-08-26T17:45:40Z</time>
      </trkpt>
      <trkpt lat="42.99201" lon="2.00918">
        <ele>499.813</ele>
        <time>2015-08-26T17:46:00Z</time>
      </trkpt>
      <trkpt lat="42.99173" lon="2.00901">
        <ele>498.808</ele>
        <time>2015-08-26T17:46:20Z</time>
      </trkpt>
      <trkpt lat="42.99151" lon="2.00882">
        <ele>498.639</ele>
        <time>2015-08-26T17:46:40Z</time>
      </trkpt>
      <trkpt lat="42.99096" lon="2.00846">
        <ele>503.144</ele>
        <time>2015-08-26T17:47:00Z</time>
      </trkpt>
      <trkpt lat="42.9901" lon="2.00759">
        <ele>507.275</ele>
        <time>2015-08-26T17:47:20Z</time>
      </trkpt>
      <trkpt lat="42.99007" lon="2.00727">
        <ele>503.53</ele>
        <time>2015-08-26T17:47:40Z</time>
      </trkpt>
      <trkpt lat="42.99026" lon="2.0068">
        <ele>501.269</ele>
        <time>2015-08-26T17:48:00Z</time>
      </trkpt>
      <trkpt lat="42.99003" lon="2.0064">
        <ele>492.512</ele>
        <time>2015-08-26T17:48:20Z</time>
      </trkpt>
      <trkpt lat="42.98961" lon="2.00597">
        <ele>479.829</ele>
        <time>2015-08-26T17:48:40Z</time>
      </trkpt>
      <trkpt lat="42.98861" lon="2.00482">
        <ele>443.653</ele>
        <time>2015-08-26T17:49:00Z</time>
      </trkpt>
      <trkpt lat="42.98845" lon="2.0048">
        <ele>439.296</ele>
        <time>2015-08-26T17:49:20Z</time>
      </trkpt>
      <trkpt lat="42.98783" lon="2.0052">
        <ele>426.731</ele>
        <time>2015-08-26T17:49:40Z</time>
      </trkpt>
      <trkpt lat="42.98609" lon="2.00482">
        <ele>387.124</ele>
        <time>2015-08-26T17:50:00Z</time>
      </trkpt>
      <trkpt lat="42.98593" lon="2.00466">
        <ele>384.108</ele>
        <time>2015-08-26T17:50:20Z</time>
      </trkpt>
      <trkpt lat="42.98563" lon="2.00463">
        <ele>379.825</ele>
        <time>2015-08-26T17:50:40Z</time>
      </trkpt>
      <trkpt lat="42.98531" lon="2.00561">
        <ele>377.97</ele>
        <time>2015-08-26T17:51:00Z</time>
      </trkpt>
      <trkpt lat="42.98507" lon="2.00658">
        <ele>378.081</ele>
        <time>2015-08-26T17:51:20Z</time>
      </trkpt>
      <trkpt lat="42.984" lon="2.0073">
        <ele>370.336</ele>
        <time>2015-08-26T17:51:40Z</time>
      </trkpt>
      <trkpt lat="42.98415" lon="2.0077">
        <ele>370.415</ele>
        <time>2015-08-26T17:52:00Z</time>
      </trkpt>
      <trkpt lat="42.98437" lon="2.00803">
        <ele>370.858</ele>
        <time>2015-08-26T17:52:20Z</time>
      </trkpt>
      <trkpt lat="42.98457" lon="2.00797">
        <ele>370.035</ele>
        <time>2015-08-26T17:52:40Z</time>
      </trkpt>
      <trkpt lat="42.9852" lon="2.00908">
        <ele>370.049</ele>
        <time>2015-08-26T17:53:00Z</time>
      </trkpt>
      <trkpt lat="42.98548" lon="2.01028">
        <ele>370.856</ele>
        <time>2015-08-26T17:53:20Z</time>
      </trkpt>
      <trkpt lat="42.98541" lon="2.01057">
        <ele>372.659</ele>
        <time>2015-08-26T17:53:40Z</time>
      </trkpt>
      <trkpt lat="42.98549" lon="2.0114">
        <ele>374.714</ele>
        <time>2015-08-26T17:54:00Z</time>
      </trkpt>
      <trkpt lat="42.98546" lon="2.01197">
        <ele>376.508</ele>
        <time>2015-08-26T17:54:20Z</time>
      </trkpt>
      <trkpt lat="42.98564" lon="2.0129">
        <ele>378.341</ele>
        <time>2015-08-26T17:54:40Z</time>
      </trkpt>
      <trkpt lat="42.98559" lon="2.01343">
        <ele>381.916</ele>
        <time>2015-08-26T17:55:00Z</time>
      </trkpt>
      <trkpt lat="42.98562" lon="2.01385">
        <ele>385.257</ele>
        <time>2015-08-26T17:55:20Z</time>
      </trkpt>
      <trkpt lat="42.9863" lon="2.01364">
        <ele>381.462</ele>
        <time>2015-08-26T17:55:40Z</time>
      </trkpt>
      <trkpt lat="42.98647" lon="2.01416">
        <ele>382.951</ele>
        <time>2015-08-26T17:56:00Z</time>
      </trkpt>
      <trkpt lat="42.98667" lon="2.01444">
        <ele>385.034</ele>
        <time>2015-08-26T17:56:20Z</time>
      </trkpt>
      <trkpt lat="42.98676" lon="2.01489">
        <ele>385.791</ele>
        <time>2015-08-26T17:56:40Z</time>
      </trkpt>
      <trkpt lat="42.98673" lon="2.01588">
        <ele>386.425</ele>
        <time>2015-08-26T17:57:00Z</time>
      </trkpt>
      <trkpt lat="42.98722" lon="2.01588">
        <ele>389.044</ele>
        <time>2015-08-26T17:57:20Z</time>
      </trkpt>
      <trkpt lat="42.9873" lon="2.01621">
        <ele>389.805</ele>
        <time>2015-08-26T17:57:40Z</time>
      </trkpt>
      <trkpt lat="42.98743" lon="2.01632">
        <ele>391.215</ele>
        <time>2015-08-26T17:58:00Z</time>
      </trkpt>
      <trkpt lat="42.98748" lon="2.01788">
        <ele>390.908</ele>
        <time>2015-08-26T17:58:20Z</time>
      </trkpt>
      <trkpt lat="42.98755" lon="2.01876">
        <ele>390.73</ele>
        <time>2015-08-26T17:58:40Z</time>
      </trkpt>
      <trkpt lat="42.98737" lon="2.01962">
        <ele>392.115</ele>
        <time>2015-08-26T17:59:00Z</time>
      </trkpt>
      <trkpt lat="42.98717" lon="2.01959">
        <ele>389.056</ele>
        <time>2015-08-26T17:59:20Z</time>
      </trkpt>
      <trkpt lat="42.98683" lon="2.02005">
        <ele>389.751</ele>
        <time>2015-08-26T17:59:40Z</time>
      </trkpt>
      <trkpt lat="42.98662" lon="2.02069">
        <ele>394.91</ele>
        <time>2015-08-26T18:00:00Z</time>
      </trkpt>
      <trkpt lat="42.98616" lon="2.02073">
        <ele>393.833</ele>
        <time>2015-08-26T18:00:20Z</time>
      </trkpt>
      <trkpt lat="42.98588" lon="2.02088">
        <ele>395.92</ele>
        <time>2015-08-26T18:00:40Z</time>
      </trkpt>
      <trkpt lat="42.98537" lon="2.02206">
        <ele>398.454</ele>
        <time>2015-08-26T18:01:00Z</time>
      </trkpt>
      <trkpt lat="42.98467" lon="2.02318">
        <ele>400.418</ele>
        <time>2015-08-26T18:01:20Z</time>
      </trkpt>
      <trkpt lat="42.98436" lon="2.02448">
        <ele>402.898</ele>
        <time>2015-08-26T18:01:40Z</time>
      </trkpt>
      <trkpt lat="42.98449" lon="2.02491">
        <ele>403.517</ele>
        <time>2015-08-26T18:02:00Z</time>
      </trkpt>
      <trkpt lat="42.98431" lon="2.02555">
        <ele>407.008</ele>
        <time>2015-08-26T18:02:20Z</time>
      </trkpt>
      <trkpt lat="42.98381" lon="2.02606">
        <ele>409.057</ele>
        <time>2015-08-26T18:02:40Z</time>
      </trkpt>
      <trkpt lat="42.9829" lon="2.02628">
        <ele>409.082</ele>
        <time>2015-08-26T18:03:00Z</time>
      </trkpt>
      <trkpt lat="42.98222" lon="2.02735">
        <ele>410.073</ele>
        <time>2015-08-26T18:03:20Z</time>
      </trkpt>
      <trkpt lat="42.98225" lon="2.02762">
        <ele>410.028</ele>
        <time>2015-08-26T18:03:40Z</time>
      </trkpt>
      <trkpt lat="42.98217" lon="2.02832">
        <ele>410.057</ele>
        <time>2015-08-26T18:04:00Z</time>
      </trkpt>
      <trkpt lat="42.98278" lon="2.02857">
        <ele>411.23</ele>
        <time>2015-08-26T18:04:20Z</time>
      </trkpt>
      <trkpt lat="42.98291" lon="2.02857">
        <ele>416.217</ele>
        <time>2015-08-26T18:04:40Z</time>
      </trkpt>
      <trkpt lat="42.98319" lon="2.02942">
        <ele>421.751</ele>
        <time>2015-08-26T18:05:00Z</time>
      </trkpt>
      <trkpt lat="42.98309" lon="2.03026">
        <ele>418.381</ele>
        <time>2015-08-26T18:05:20Z</time>
      </trkpt>
      <trkpt lat="42.98333" lon="2.03111">
        <ele>423.161</ele>
        <time>2015-08-26T18:05:40Z</time>
      </trkpt>
      <trkpt lat="42.98372" lon="2.03201">
        <ele>436.617</ele>
        <time>2015-08-26T18:06:00Z</time>
      </trkpt>
      <trkpt lat="42.98406" lon="2.03325">
        <ele>447.608</ele>
        <time>2015-08-26T18:06:20Z</time>
      </trkpt>
      <trkpt lat="42.98344" lon="2.03496">
        <ele>471.754</ele>
        <time>2015-08-26T18:06:40Z</time>
      </trkpt>
      <trkpt lat="42.98297" lon="2.03544">
        <ele>481.029</ele>
        <time>2015-08-26T18:07:00Z</time>
      </trkpt>
      <trkpt lat="42.9824" lon="2.03613">
        <ele>489.78</ele>
        <time>2015-08-26T18:07:20Z</time>
      </trkpt>
      <trkpt lat="42.98213" lon="2.03659">
        <ele>499.775</ele>
        <time>2015-08-26T18:07:40Z</time>
      </trkpt>
      <trkpt lat="42.98139" lon="2.03767">
        <ele>524.734</ele>
        <time>2015-08-26T18:08:00Z</time>
      </trkpt>
      <trkpt lat="42.98129" lon="2.03789">
        <ele>530.097</ele>
        <time>2015-08-26T18:08:20Z</time>
      </trkpt>
      <trkpt lat="42.98127" lon="2.03814">
        <ele>532.864</ele>
        <time>2015-08-26T18:08:40Z</time>
      </trkpt>
      <trkpt lat="42.98131" lon="2.0384">
        <ele>536.278</ele>
        <time>2015-08-26T18:09:00Z</time>
      </trkpt>
      <trkpt lat="42.9815" lon="2.03851">
        <ele>536.354</ele>
        <time>2015-08-26T18:09:20Z</time>
      </trkpt>
      <trkpt lat="42.98124" lon="2.03931">
        <ele>549.056</ele>
        <time>2015-08-26T18:09:40Z</time>
      </trkpt>
      <trkpt lat="42.981" lon="2.03963">
        <ele>556.611</ele>
        <time>2015-08-26T18:10:00Z</time>
      </trkpt>
      <trkpt lat="42.98097" lon="2.03986">
        <ele>559.508</ele>
        <time>2015-08-26T18:10:20Z</time>
      </trkpt>
      <trkpt lat="42.98105" lon="2.04104">
        <ele>560.551</ele>
        <time>2015-08-26T18:10:40Z</time>
      </trkpt>
      <trkpt lat="42.9812" lon="2.04214">
        <ele>568.636</ele>
        <time>2015-08-26T18:11:00Z</time>
      </trkpt>
      <trkpt lat="42.98163" lon="2.0427">
        <ele>568.467</ele>
        <time>2015-08-26T18:11:20Z</time>
      </trkpt>
      <trkpt lat="42.98226" lon="2.04378">
        <ele>566.552</ele>
        <time>2019-03-29T11:13:42Z</time>
      </trkpt>
      <trkpt lat="42.98369" lon="2.04544">
        <ele>578.551</ele>
        <time>2019-03-29T11:14:02Z</time>
      </trkpt>
      <trkpt lat="42.9846" lon="2.04808">
        <ele>582.674</ele>
        <time>2019-03-29T11:14:22Z</time>
      </trkpt>
      <trkpt lat="42.98544" lon="2.04861">
        <ele>591.591</ele>
        <time>2015-08-26T18:12:20Z</time>
      </trkpt>
      <trkpt lat="42.98586" lon="2.04944">
        <ele>600.085</ele>
        <time>2015-08-26T18:12:40Z</time>
      </trkpt>
      <trkpt lat="42.9868" lon="2.05277">
        <ele>613.956</ele>
        <time>2015-08-26T18:13:00Z</time>
      </trkpt>
      <trkpt lat="42.98718" lon="2.05312">
        <ele>619.659</ele>
        <time>2015-08-26T18:13:20Z</time>
      </trkpt>
      <trkpt lat="42.98768" lon="2.05572">
        <ele>626.914</ele>
        <time>2015-08-26T18:13:40Z</time>
      </trkpt>
      <trkpt lat="42.98768" lon="2.05651">
        <ele>628.808</ele>
        <time>2015-08-26T18:14:00Z</time>
      </trkpt>
      <trkpt lat="42.98749" lon="2.0582">
        <ele>630.411</ele>
        <time>2015-08-26T18:14:20Z</time>
      </trkpt>
      <trkpt lat="42.98657" lon="2.0593">
        <ele>628.246</ele>
        <time>2015-08-26T18:14:40Z</time>
      </trkpt>
      <trkpt lat="42.98592" lon="2.05907">
        <ele>628.727</ele>
        <time>2015-08-26T18:15:00Z</time>
      </trkpt>
      <trkpt lat="42.98552" lon="2.05857">
        <ele>629.132</ele>
        <time>2015-08-26T18:15:20Z</time>
      </trkpt>
      <trkpt lat="42.98475" lon="2.05851">
        <ele>639.071</ele>
        <time>2015-08-26T18:15:40Z</time>
      </trkpt>
      <trkpt lat="42.98454" lon="2.05867">
        <ele>640.114</ele>
        <time>2015-08-26T18:16:00Z</time>
      </trkpt>
      <trkpt lat="42.98523" lon="2.05944">
        <ele>647.841</ele>
        <time>2015-08-26T18:16:20Z</time>
      </trkpt>
      <trkpt lat="42.98539" lon="2.0606">
        <ele>655.855</ele>
        <time>2015-08-26T18:16:40Z</time>
      </trkpt>
      <trkpt lat="42.98595" lon="2.0613">
        <ele>675.043</ele>
        <time>2015-08-26T18:17:00Z</time>
      </trkpt>
      <trkpt lat="42.98674" lon="2.06169">
        <ele>681.564</ele>
        <time>2015-08-26T18:17:20Z</time>
      </trkpt>
      <trkpt lat="42.98591" lon="2.06169">
        <ele>682.01</ele>
        <time>2015-08-26T18:17:40Z</time>
      </trkpt>
      <trkpt lat="42.98544" lon="2.06332">
        <ele>673.308</ele>
        <time>2015-08-26T18:18:00Z</time>
      </trkpt>
      <trkpt lat="42.98497" lon="2.06356">
        <ele>668.56</ele>
        <time>2015-08-26T18:18:20Z</time>
      </trkpt>
      <trkpt lat="42.98377" lon="2.06379">
        <ele>671.045</ele>
        <time>2015-08-26T18:18:40Z</time>
      </trkpt>
      <trkpt lat="42.98287" lon="2.06439">
        <ele>670.736</ele>
        <time>2015-08-26T18:19:00Z</time>
      </trkpt>
      <trkpt lat="42.98191" lon="2.06577">
        <ele>679.151</ele>
        <time>2015-08-26T18:19:20Z</time>
      </trkpt>
      <trkpt lat="42.98129" lon="2.06701">
        <ele>686.29</ele>
        <time>2015-08-26T18:19:40Z</time>
      </trkpt>
      <trkpt lat="42.98041" lon="2.06772">
        <ele>684.523</ele>
        <time>2015-08-26T18:20:00Z</time>
      </trkpt>
      <trkpt lat="42.97955" lon="2.06986">
        <ele>703.34</ele>
        <time>2015-08-26T18:20:20Z</time>
      </trkpt>
      <trkpt lat="42.97943" lon="2.07123">
        <ele>713.294</ele>
        <time>2015-08-26T18:20:40Z</time>
      </trkpt>
      <trkpt lat="42.97884" lon="2.07366">
        <ele>718.531</ele>
        <time>2015-08-26T18:21:00Z</time>
      </trkpt>
      <trkpt lat="42.97769" lon="2.07664">
        <ele>749.461</ele>
        <time>2015-08-26T18:21:20Z</time>
      </trkpt>
      <trkpt lat="42.9772" lon="2.07726">
        <ele>749.907</ele>
        <time>2015-08-26T18:21:40Z</time>
      </trkpt>
      <trkpt lat="42.97654" lon="2.07786">
        <ele>750.008</ele>
        <time>2015-08-26T18:22:00Z</time>
      </trkpt>
      <trkpt lat="42.97624" lon="2.07881">
        <ele>758.249</ele>
        <time>2015-08-26T18:22:20Z</time>
      </trkpt>
      <trkpt lat="42.97636" lon="2.0808">
        <ele>739.224</ele>
        <time>2015-08-26T18:22:40Z</time>
      </trkpt>
      <trkpt lat="42.97617" lon="2.08094">
        <ele>734.075</ele>
        <time>2015-08-26T18:23:00Z</time>
      </trkpt>
      <trkpt lat="42.97494" lon="2.08045">
        <ele>725.49</ele>
        <time>2015-08-26T18:23:20Z</time>
      </trkpt>
      <trkpt lat="42.97405" lon="2.08076">
        <ele>716.549</ele>
        <time>2015-08-26T18:23:40Z</time>
      </trkpt>
      <trkpt lat="42.97331" lon="2.08039">
        <ele>705.752</ele>
        <time>2015-08-26T18:24:00Z</time>
      </trkpt>
      <trkpt lat="42.97256" lon="2.08033">
        <ele>702.559</ele>
        <time>2015-08-26T18:24:20Z</time>
      </trkpt>
      <trkpt lat="42.97154" lon="2.08064">
        <ele>694.343</ele>
        <time>2015-08-26T18:24:40Z</time>
      </trkpt>
      <trkpt lat="42.97005" lon="2.08085">
        <ele>682.089</ele>
        <time>2015-08-26T18:25:00Z</time>
      </trkpt>
      <trkpt lat="42.96716" lon="2.08166">
        <ele>671.906</ele>
        <time>2015-08-26T18:25:20Z</time>
      </trkpt>
      <trkpt lat="42.96615" lon="2.08163">
        <ele>689.226</ele>
        <time>2015-08-26T18:25:40Z</time>
      </trkpt>
      <trkpt lat="42.96468" lon="2.08185">
        <ele>679.308</ele>
        <time>2015-08-26T18:26:00Z</time>
      </trkpt>
      <trkpt lat="42.96389" lon="2.08182">
        <ele>681.274</ele>
        <time>2015-08-26T18:26:20Z</time>
      </trkpt>
      <trkpt lat="42.96307" lon="2.08204">
        <ele>680.689</ele>
        <time>2015-08-26T18:26:40Z</time>
      </trkpt>
      <trkpt lat="42.96249" lon="2.08205">
        <ele>678.69</ele>
        <time>2015-08-26T18:27:00Z</time>
      </trkpt>
      <trkpt lat="42.96124" lon="2.08286">
        <ele>679.655</ele>
        <time>2015-08-26T18:27:20Z</time>
      </trkpt>
      <trkpt lat="42.96058" lon="2.08294">
        <ele>682.864</ele>
        <time>2015-08-26T18:27:40Z</time>
      </trkpt>
      <trkpt lat="42.9575" lon="2.08117">
        <ele>686.897</ele>
        <time>2015-08-26T18:28:00Z</time>
      </trkpt>
      <trkpt lat="42.95631" lon="2.0799">
        <ele>693.624</ele>
        <time>2015-08-26T18:28:20Z</time>
      </trkpt>
      <trkpt lat="42.95528" lon="2.0802">
        <ele>686.018</ele>
        <time>2015-08-26T18:28:40Z</time>
      </trkpt>
      <trkpt lat="42.9542" lon="2.08108">
        <ele>671.228</ele>
        <time>2015-08-26T18:29:00Z</time>
      </trkpt>
      <trkpt lat="42.95404" lon="2.08094">
        <ele>671.289</ele>
        <time>2015-08-26T18:29:20Z</time>
      </trkpt>
      <trkpt lat="42.95295" lon="2.08058">
        <ele>693.617</ele>
        <time>2015-08-26T18:29:40Z</time>
      </trkpt>
      <trkpt lat="42.95233" lon="2.07881">
        <ele>719.608</ele>
        <time>2015-08-26T18:30:00Z</time>
      </trkpt>
      <trkpt lat="42.9516" lon="2.07812">
        <ele>721.918</ele>
        <time>2015-08-26T18:30:20Z</time>
      </trkpt>
      <trkpt lat="42.9513" lon="2.07634">
        <ele>734.733</ele>
        <time>2015-08-26T18:30:40Z</time>
      </trkpt>
      <trkpt lat="42.94835" lon="2.07535">
        <ele>718.314</ele>
        <time>2015-08-26T18:31:00Z</time>
      </trkpt>
      <trkpt lat="42.94838" lon="2.07361">
        <ele>702.579</ele>
        <time>2015-08-26T18:31:20Z</time>
      </trkpt>
      <trkpt lat="42.94735" lon="2.07694">
        <ele>685.698</ele>
        <time>2015-08-26T18:31:40Z</time>
      </trkpt>
      <trkpt lat="42.94635" lon="2.07778">
        <ele>684.421</ele>
        <time>2015-08-26T18:32:00Z</time>
      </trkpt>
      <trkpt lat="42.94607" lon="2.07842">
        <ele>684.858</ele>
        <time>2015-08-26T18:32:20Z</time>
      </trkpt>
      <trkpt lat="42.9462" lon="2.08062">
        <ele>671.422</ele>
        <time>2015-08-26T18:32:40Z</time>
      </trkpt>
      <trkpt lat="42.94597" lon="2.08127">
        <ele>670.394</ele>
        <time>2015-08-26T18:33:00Z</time>
      </trkpt>
      <trkpt lat="42.94558" lon="2.08128">
        <ele>673.057</ele>
        <time>2015-08-26T18:33:20Z</time>
      </trkpt>
      <trkpt lat="42.94533" lon="2.08091">
        <ele>672.222</ele>
        <time>2015-08-26T18:33:40Z</time>
      </trkpt>
      <trkpt lat="42.94487" lon="2.08046">
        <ele>675.008</ele>
        <time>2015-08-26T18:34:00Z</time>
      </trkpt>
      <trkpt lat="42.94417" lon="2.08002">
        <ele>675.585</ele>
        <time>2015-08-26T18:34:20Z</time>
      </trkpt>
      <trkpt lat="42.94306" lon="2.08095">
        <ele>673.61</ele>
        <time>2015-08-26T18:34:40Z</time>
      </trkpt>
      <trkpt lat="42.94284" lon="2.08078">
        <ele>673.331</ele>
        <time>2015-08-26T18:35:00Z</time>
      </trkpt>
      <trkpt lat="42.94234" lon="2.07924">
        <ele>671.946</ele>
        <time>2015-08-26T18:35:20Z</time>
      </trkpt>
      <trkpt lat="42.94189" lon="2.07872">
        <ele>669.455</ele>
        <time>2015-08-26T18:35:40Z</time>
      </trkpt>
      <trkpt lat="42.94127" lon="2.07867">
        <ele>670.168</ele>
        <time>2019-03-29T11:38:22Z</time>
      </trkpt>
      <trkpt lat="42.94106" lon="2.07838">
        <ele>671.635</ele>
        <time>2019-03-29T11:38:42Z</time>
      </trkpt>
      <trkpt lat="42.9411" lon="2.07744">
        <ele>665.899</ele>
        <time>2015-08-26T18:36:40Z</time>
      </trkpt>
      <trkpt lat="42.94088" lon="2.07722">
        <ele>664.311</ele>
        <time>2015-08-26T18:37:00Z</time>
      </trkpt>
      <trkpt lat="42.94046" lon="2.07682">
        <ele>655.121</ele>
        <time>2015-08-26T18:37:20Z</time>
      </trkpt>
      <trkpt lat="42.9403" lon="2.07602">
        <ele>647.903</ele>
        <time>2015-08-26T18:37:40Z</time>
      </trkpt>
      <trkpt lat="42.93985" lon="2.07531">
        <ele>648.108</ele>
        <time>2015-08-26T18:38:00Z</time>
      </trkpt>
      <trkpt lat="42.93931" lon="2.0748">
        <ele>646.117</ele>
        <time>2015-08-26T18:38:20Z</time>
      </trkpt>
      <trkpt lat="42.93916" lon="2.07303">
        <ele>642.682</ele>
        <time>2015-08-26T18:38:40Z</time>
      </trkpt>
      <trkpt lat="42.93799" lon="2.07276">
        <ele>637.313</ele>
        <time>2015-08-26T18:39:00Z</time>
      </trkpt>
      <trkpt lat="42.937" lon="2.07281">
        <ele>640.438</ele>
        <time>2015-08-26T18:39:20Z</time>
      </trkpt>
      <trkpt lat="42.93649" lon="2.07237">
        <ele>641.847</ele>
        <time>2015-08-26T18:39:40Z</time>
      </trkpt>
      <trkpt lat="42.93595" lon="2.07355">
        <ele>633.37</ele>
        <time>2015-08-26T18:40:00Z</time>
      </trkpt>
      <trkpt lat="42.93587" lon="2.07411">
        <ele>636.017</ele>
        <time>2015-08-26T18:40:20Z</time>
      </trkpt>
      <trkpt lat="42.93564" lon="2.07403">
        <ele>624.321</ele>
        <time>2015-08-26T18:40:40Z</time>
      </trkpt>
      <trkpt lat="42.93589" lon="2.07284">
        <ele>621.799</ele>
        <time>2015-08-26T18:41:00Z</time>
      </trkpt>
      <trkpt lat="42.93502" lon="2.07392">
        <ele>592.107</ele>
        <time>2015-08-26T18:41:20Z</time>
      </trkpt>
      <trkpt lat="42.93478" lon="2.07513">
        <ele>591.527</ele>
        <time>2015-08-26T18:41:40Z</time>
      </trkpt>
      <trkpt lat="42.93387" lon="2.07662">
        <ele>577.208</ele>
        <time>2015-08-26T18:42:00Z</time>
      </trkpt>
      <trkpt lat="42.93391" lon="2.07721">
        <ele>577.825</ele>
        <time>2015-08-26T18:42:20Z</time>
      </trkpt>
      <trkpt lat="42.93427" lon="2.07789">
        <ele>578.06</ele>
        <time>2015-08-26T18:42:40Z</time>
      </trkpt>
      <trkpt lat="42.93409" lon="2.07804">
        <ele>571.061</ele>
        <time>2015-08-26T18:43:00Z</time>
      </trkpt>
      <trkpt lat="42.9336" lon="2.07718">
        <ele>568.816</ele>
        <time>2015-08-26T18:43:20Z</time>
      </trkpt>
      <trkpt lat="42.93333" lon="2.07591">
        <ele>565.445</ele>
        <time>2015-08-26T18:43:40Z</time>
      </trkpt>
      <trkpt lat="42.9325" lon="2.0751">
        <ele>560.398</ele>
        <time>2015-08-26T18:44:00Z</time>
      </trkpt>
      <trkpt lat="42.93229" lon="2.07506">
        <ele>558.615</ele>
        <time>2015-08-26T18:44:20Z</time>
      </trkpt>
      <trkpt lat="42.9323" lon="2.0752">
        <ele>558.539</ele>
        <time>2015-08-26T18:44:40Z</time>
      </trkpt>
      <trkpt lat="42.93159" lon="2.07529">
        <ele>563.152</ele>
        <time>2015-08-26T18:45:00Z</time>
      </trkpt>
      <trkpt lat="42.93098" lon="2.0751">
        <ele>571.953</ele>
        <time>2015-08-26T18:45:20Z</time>
      </trkpt>
      <trkpt lat="42.93048" lon="2.07409">
        <ele>581.908</ele>
        <time>2015-08-26T18:45:40Z</time>
      </trkpt>
      <trkpt lat="42.92988" lon="2.07371">
        <ele>599.808</ele>
        <time>2015-08-26T18:46:00Z</time>
      </trkpt>
      <trkpt lat="42.92922" lon="2.0742">
        <ele>628.171</ele>
        <time>2015-08-26T18:46:20Z</time>
      </trkpt>
      <trkpt lat="42.9288" lon="2.07388">
        <ele>634.066</ele>
        <time>2015-08-26T18:46:40Z</time>
      </trkpt>
      <trkpt lat="42.92869" lon="2.07281">
        <ele>639.557</ele>
        <time>2015-08-26T18:47:00Z</time>
      </trkpt>
      <trkpt lat="42.9286" lon="2.07252">
        <ele>645.382</ele>
        <time>2015-08-26T18:47:20Z</time>
      </trkpt>
      <trkpt lat="42.92868" lon="2.072">
        <ele>652.761</ele>
        <time>2015-08-26T18:47:40Z</time>
      </trkpt>
      <trkpt lat="42.92848" lon="2.07115">
        <ele>657.994</ele>
        <time>2015-08-26T18:48:00Z</time>
      </trkpt>
      <trkpt lat="42.92835" lon="2.06941">
        <ele>659.141</ele>
        <time>2015-08-26T18:48:20Z</time>
      </trkpt>
      <trkpt lat="42.92848" lon="2.06784">
        <ele>658.565</ele>
        <time>2015-08-26T18:48:40Z</time>
      </trkpt>
      <trkpt lat="42.92809" lon="2.06696">
        <ele>650.155</ele>
        <time>2015-08-26T18:49:00Z</time>
      </trkpt>
      <trkpt lat="42.92852" lon="2.0657">
        <ele>658.807</ele>
        <time>2015-08-26T18:49:20Z</time>
      </trkpt>
      <trkpt lat="42.92875" lon="2.06467">
        <ele>657.917</ele>
        <time>2015-08-26T18:49:40Z</time>
      </trkpt>
      <trkpt lat="42.92849" lon="2.06427">
        <ele>651.508</ele>
        <time>2015-08-26T18:50:00Z</time>
      </trkpt>
      <trkpt lat="42.92847" lon="2.06231">
        <ele>646.611</ele>
        <time>2015-08-26T18:50:20Z</time>
      </trkpt>
      <trkpt lat="42.92808" lon="2.0616">
        <ele>629.246</ele>
        <time>2015-08-26T18:50:40Z</time>
      </trkpt>
      <trkpt lat="42.92798" lon="2.06006">
        <ele>619.697</ele>
        <time>2015-08-26T18:51:00Z</time>
      </trkpt>
      <trkpt lat="42.92829" lon="2.05787">
        <ele>612.172</ele>
        <time>2015-08-26T18:51:20Z</time>
      </trkpt>
      <trkpt lat="42.92964" lon="2.05535">
        <ele>577.871</ele>
        <time>2015-08-26T18:51:40Z</time>
      </trkpt>
      <trkpt lat="42.92909" lon="2.0554">
        <ele>570.584</ele>
        <time>2015-08-26T18:52:00Z</time>
      </trkpt>
      <trkpt lat="42.92832" lon="2.05591">
        <ele>566.191</ele>
        <time>2015-08-26T18:52:20Z</time>
      </trkpt>
      <trkpt lat="42.92743" lon="2.05592">
        <ele>554.465</ele>
        <time>2019-03-29T11:55:02Z</time>
      </trkpt>
      <trkpt lat="42.92702" lon="2.05595">
        <ele>554.595</ele>
        <time>2019-03-29T11:55:22Z</time>
      </trkpt>
      <trkpt lat="42.92631" lon="2.05524">
        <ele>550.649</ele>
        <time>2015-08-26T18:54:00Z</time>
      </trkpt>
      <trkpt lat="42.92629" lon="2.05499">
        <ele>547.923</ele>
        <time>2015-08-26T18:54:20Z</time>
      </trkpt>
      <trkpt lat="42.92531" lon="2.05377">
        <ele>537.908</ele>
        <time>2015-08-26T18:54:40Z</time>
      </trkpt>
      <trkpt lat="42.92475" lon="2.05271">
        <ele>528.955</ele>
        <time>2015-08-26T18:55:00Z</time>
      </trkpt>
      <trkpt lat="42.92421" lon="2.05212">
        <ele>519.08</ele>
        <time>2015-08-26T18:55:20Z</time>
      </trkpt>
      <trkpt lat="42.92438" lon="2.0535">
        <ele>522.081</ele>
        <time>2015-08-26T18:55:40Z</time>
      </trkpt>
      <trkpt lat="42.92427" lon="2.05472">
        <ele>522.346</ele>
        <time>2015-08-26T18:56:00Z</time>
      </trkpt>
      <trkpt lat="42.92407" lon="2.0557">
        <ele>522.615</ele>
        <time>2015-08-26T18:56:20Z</time>
      </trkpt>
      <trkpt lat="42.92416" lon="2.05653">
        <ele>527.568</ele>
        <time>2015-08-26T18:56:40Z</time>
      </trkpt>
      <trkpt lat="42.92397" lon="2.05665">
        <ele>525.895</ele>
        <time>2015-08-26T18:57:00Z</time>
      </trkpt>
      <trkpt lat="42.92352" lon="2.05641">
        <ele>522.419</ele>
        <time>2015-08-26T18:57:20Z</time>
      </trkpt>
      <trkpt lat="42.92275" lon="2.05527">
        <ele>536.957</ele>
        <time>2015-08-26T18:57:40Z</time>
      </trkpt>
      <trkpt lat="42.92258" lon="2.05481">
        <ele>539.1</ele>
        <time>2015-08-26T18:58:00Z</time>
      </trkpt>
      <trkpt lat="42.92162" lon="2.05361">
        <ele>565.12</ele>
        <time>2015-08-26T18:58:20Z</time>
      </trkpt>
      <trkpt lat="42.92066" lon="2.0535">
        <ele>581.108</ele>
        <time>2015-08-26T18:58:40Z</time>
      </trkpt>
      <trkpt lat="42.92046" lon="2.05392">
        <ele>581.551</ele>
        <time>2015-08-26T18:59:00Z</time>
      </trkpt>
      <trkpt lat="42.92048" lon="2.0554">
        <ele>581.056</ele>
        <time>2015-08-26T18:59:20Z</time>
      </trkpt>
      <trkpt lat="42.92134" lon="2.05975">
        <ele>599.397</ele>
        <time>2015-08-26T18:59:40Z</time>
      </trkpt>
      <trkpt lat="42.92135" lon="2.06111">
        <ele>600.972</ele>
        <time>2015-08-26T19:00:00Z</time>
      </trkpt>
      <trkpt lat="42.92166" lon="2.06215">
        <ele>609.881</ele>
        <time>2015-08-26T19:00:20Z</time>
      </trkpt>
      <trkpt lat="42.92199" lon="2.064">
        <ele>614.854</ele>
        <time>2015-08-26T19:00:40Z</time>
      </trkpt>
      <trkpt lat="42.922" lon="2.06516">
        <ele>618.761</ele>
        <time>2015-08-26T19:01:00Z</time>
      </trkpt>
      <trkpt lat="42.92227" lon="2.06643">
        <ele>624.315</ele>
        <time>2015-08-26T19:01:20Z</time>
      </trkpt>
      <trkpt lat="42.92209" lon="2.0694">
        <ele>635.852</ele>
        <time>2015-08-26T19:01:40Z</time>
      </trkpt>
      <trkpt lat="42.92222" lon="2.07061">
        <ele>640.053</ele>
        <time>2015-08-26T19:02:00Z</time>
      </trkpt>
      <trkpt lat="42.92209" lon="2.07129">
        <ele>642.108</ele>
        <time>2015-08-26T19:02:20Z</time>
      </trkpt>
      <trkpt lat="42.92145" lon="2.07111">
        <ele>631.708</ele>
        <time>2015-08-26T19:02:40Z</time>
      </trkpt>
      <trkpt lat="42.92051" lon="2.06788">
        <ele>578.761</ele>
        <time>2015-08-26T19:03:00Z</time>
      </trkpt>
      <trkpt lat="42.92002" lon="2.0691">
        <ele>565.536</ele>
        <time>2015-08-26T19:03:20Z</time>
      </trkpt>
      <trkpt lat="42.91975" lon="2.07059">
        <ele>561.287</ele>
        <time>2015-08-26T19:03:40Z</time>
      </trkpt>
      <trkpt lat="42.91904" lon="2.07209">
        <ele>545.982</ele>
        <time>2015-08-26T19:04:00Z</time>
      </trkpt>
      <trkpt lat="42.91853" lon="2.07452">
        <ele>544.341</ele>
        <time>2015-08-26T19:04:20Z</time>
      </trkpt>
      <trkpt lat="42.91733" lon="2.07718">
        <ele>524.894</ele>
        <time>2015-08-26T19:04:40Z</time>
      </trkpt>
      <trkpt lat="42.91656" lon="2.07984">
        <ele>524.481</ele>
        <time>2015-08-26T19:05:00Z</time>
      </trkpt>
      <trkpt lat="42.91619" lon="2.08202">
        <ele>529.815</ele>
        <time>2015-08-26T19:05:20Z</time>
      </trkpt>
      <trkpt lat="42.91568" lon="2.08368">
        <ele>530.374</ele>
        <time>2015-08-26T19:05:40Z</time>
      </trkpt>
      <trkpt lat="42.91527" lon="2.08482">
        <ele>531.356</ele>
        <time>2015-08-26T19:06:00Z</time>
      </trkpt>
      <trkpt lat="42.91533" lon="2.08609">
        <ele>538.521</ele>
        <time>2015-08-26T19:06:20Z</time>
      </trkpt>
      <trkpt lat="42.91476" lon="2.08867">
        <ele>541.508</ele>
        <time>2015-08-26T19:06:40Z</time>
      </trkpt>
      <trkpt lat="42.91368" lon="2.09125">
        <ele>537.883</ele>
        <time>2015-08-26T19:07:00Z</time>
      </trkpt>
      <trkpt lat="42.91298" lon="2.09234">
        <ele>540.098</ele>
        <time>2015-08-26T19:07:20Z</time>
      </trkpt>
      <trkpt lat="42.91296" lon="2.09235">
        <ele>539.969</ele>
        <time>2015-08-26T19:07:40Z</time>
      </trkpt>
      <trkpt lat="42.91282" lon="2.09295">
        <ele>541.854</ele>
        <time>2015-08-26T19:08:00Z</time>
      </trkpt>
      <trkpt lat="42.91258" lon="2.09346">
        <ele>540.773</ele>
        <time>2015-08-26T19:08:20Z</time>
      </trkpt>
      <trkpt lat="42.91243" lon="2.09449">
        <ele>544.966</ele>
        <time>2015-08-26T19:08:40Z</time>
      </trkpt>
      <trkpt lat="42.91207" lon="2.0955">
        <ele>547.763</ele>
        <time>2015-08-26T19:09:00Z</time>
      </trkpt>
      <trkpt lat="42.912" lon="2.09604">
        <ele>549.267</ele>
        <time>2015-08-26T19:09:20Z</time>
      </trkpt>
      <trkpt lat="42.91156" lon="2.09702">
        <ele>549.118</ele>
        <time>2015-08-26T19:09:40Z</time>
      </trkpt>
      <trkpt lat="42.91051" lon="2.09983">
        <ele>560.498</ele>
        <time>2015-08-26T19:10:00Z</time>
      </trkpt>
      <trkpt lat="42.90889" lon="2.10152">
        <ele>570.017</ele>
        <time>2015-08-26T19:10:20Z</time>
      </trkpt>
      <trkpt lat="42.90753" lon="2.10224">
        <ele>572.108</ele>
        <time>2015-08-26T19:10:40Z</time>
      </trkpt>
      <trkpt lat="42.90648" lon="2.10263">
        <ele>573.967</ele>
        <time>2015-08-26T19:11:00Z</time>
      </trkpt>
      <trkpt lat="42.90602" lon="2.10296">
        <ele>575.022</ele>
        <time>2015-08-26T19:11:20Z</time>
      </trkpt>
      <trkpt lat="42.90539" lon="2.10305">
        <ele>576.043</ele>
        <time>2015-08-26T19:11:40Z</time>
      </trkpt>
      <trkpt lat="42.90424" lon="2.10353">
        <ele>575.988</ele>
        <time>2015-08-26T19:12:00Z</time>
      </trkpt>
      <trkpt lat="42.90346" lon="2.10426">
        <ele>575.857</ele>
        <time>2015-08-26T19:12:20Z</time>
      </trkpt>
      <trkpt lat="42.90269" lon="2.10515">
        <ele>577.88</ele>
        <time>2015-08-26T19:12:40Z</time>
      </trkpt>
      <trkpt lat="42.90185" lon="2.10662">
        <ele>578.267</ele>
        <time>2015-08-26T19:13:00Z</time>
      </trkpt>
      <trkpt lat="42.90128" lon="2.10788">
        <ele>576.281</ele>
        <time>2015-08-26T19:13:20Z</time>
      </trkpt>
      <trkpt lat="42.90107" lon="2.10895">
        <ele>576.626</ele>
        <time>2015-08-26T19:13:40Z</time>
      </trkpt>
      <trkpt lat="42.90044" lon="2.1092">
        <ele>570.447</ele>
        <time>2015-08-26T19:14:00Z</time>
      </trkpt>
      <trkpt lat="42.8997" lon="2.11024">
        <ele>567.511</ele>
        <time>2015-08-26T19:14:20Z</time>
      </trkpt>
      <trkpt lat="42.89935" lon="2.11085">
        <ele>567.108</ele>
        <time>2015-08-26T19:14:40Z</time>
      </trkpt>
      <trkpt lat="42.89868" lon="2.11097">
        <ele>568.048</ele>
        <time>2015-08-26T19:15:00Z</time>
      </trkpt>
      <trkpt lat="42.89767" lon="2.11153">
        <ele>572.163</ele>
        <time>2015-08-26T19:15:20Z</time>
      </trkpt>
      <trkpt lat="42.89727" lon="2.11253">
        <ele>573.684</ele>
        <time>2015-08-26T19:15:40Z</time>
      </trkpt>
      <trkpt lat="42.8973" lon="2.11382">
        <ele>578.629</ele>
        <time>2015-08-26T19:16:00Z</time>
      </trkpt>
      <trkpt lat="42.89716" lon="2.11454">
        <ele>579.718</ele>
        <time>2015-08-26T19:16:20Z</time>
      </trkpt>
      <trkpt lat="42.89654" lon="2.1144">
        <ele>575.041</ele>
        <time>2015-08-26T19:16:40Z</time>
      </trkpt>
      <trkpt lat="42.89504" lon="2.11361">
        <ele>565.318</ele>
        <time>2015-08-26T19:17:00Z</time>
      </trkpt>
      <trkpt lat="42.89475" lon="2.11338">
        <ele>564.112</ele>
        <time>2015-08-26T19:17:20Z</time>
      </trkpt>
      <trkpt lat="42.89394" lon="2.11358">
        <ele>565.764</ele>
        <time>2015-08-26T19:17:40Z</time>
      </trkpt>
      <trkpt lat="42.89345" lon="2.114">
        <ele>566.606</ele>
        <time>2015-08-26T19:18:00Z</time>
      </trkpt>
      <trkpt lat="42.89137" lon="2.1134">
        <ele>577.216</ele>
        <time>2015-08-26T19:18:20Z</time>
      </trkpt>
      <trkpt lat="42.89097" lon="2.11319">
        <ele>579.008</ele>
        <time>2015-08-26T19:18:40Z</time>
      </trkpt>
      <trkpt lat="42.89053" lon="2.11346">
        <ele>579.162</ele>
        <time>2015-08-26T19:19:00Z</time>
      </trkpt>
      <trkpt lat="42.89028" lon="2.11446">
        <ele>585.847</ele>
        <time>2015-08-26T19:19:20Z</time>
      </trkpt>
      <trkpt lat="42.88841" lon="2.11397">
        <ele>590.098</ele>
        <time>2015-08-26T19:19:40Z</time>
      </trkpt>
      <trkpt lat="42.88747" lon="2.11292">
        <ele>595.233</ele>
        <time>2015-08-26T19:20:00Z</time>
      </trkpt>
      <trkpt lat="42.88675" lon="2.11266">
        <ele>601.932</ele>
        <time>2015-08-26T19:20:20Z</time>
      </trkpt>
      <trkpt lat="42.88589" lon="2.11134">
        <ele>608.935</ele>
        <time>2015-08-26T19:20:40Z</time>
      </trkpt>
      <trkpt lat="42.88533" lon="2.11042">
        <ele>619.332</ele>
        <time>2015-08-26T19:21:00Z</time>
      </trkpt>
      <trkpt lat="42.88428" lon="2.11015">
        <ele>640.446</ele>
        <time>2015-08-26T19:21:20Z</time>
      </trkpt>
      <trkpt lat="42.8838" lon="2.10908">
        <ele>656.963</ele>
        <time>2015-08-26T19:21:40Z</time>
      </trkpt>
      <trkpt lat="42.88353" lon="2.10771">
        <ele>680.744</ele>
        <time>2015-08-26T19:22:00Z</time>
      </trkpt>
      <trkpt lat="42.88334" lon="2.10753">
        <ele>689.618</ele>
        <time>2015-08-26T19:22:20Z</time>
      </trkpt>
      <trkpt lat="42.88311" lon="2.10768">
        <ele>695.808</ele>
        <time>2015-08-26T19:22:40Z</time>
      </trkpt>
      <trkpt lat="42.88286" lon="2.10744">
        <ele>704.652</ele>
        <time>2015-08-26T19:23:00Z</time>
      </trkpt>
      <trkpt lat="42.88232" lon="2.10659">
        <ele>717.837</ele>
        <time>2015-08-26T19:23:20Z</time>
      </trkpt>
      <trkpt lat="42.88203" lon="2.10573">
        <ele>726.488</ele>
        <time>2015-08-26T19:23:40Z</time>
      </trkpt>
      <trkpt lat="42.88196" lon="2.1053">
        <ele>727.523</ele>
        <time>2015-08-26T19:24:00Z</time>
      </trkpt>
      <trkpt lat="42.88182" lon="2.10522">
        <ele>734.312</ele>
        <time>2015-08-26T19:24:20Z</time>
      </trkpt>
      <trkpt lat="42.88172" lon="2.10541">
        <ele>737.925</ele>
        <time>2015-08-26T19:24:40Z</time>
      </trkpt>
      <trkpt lat="42.88166" lon="2.10648">
        <ele>741.632</ele>
        <time>2015-08-26T19:25:00Z</time>
      </trkpt>
      <trkpt lat="42.88144" lon="2.10526">
        <ele>757.036</ele>
        <time>2015-08-26T19:25:20Z</time>
      </trkpt>
      <trkpt lat="42.88147" lon="2.10479">
        <ele>755.146</ele>
        <time>2015-08-26T19:25:40Z</time>
      </trkpt>
      <trkpt lat="42.88125" lon="2.10438">
        <ele>767.388</ele>
        <time>2015-08-26T19:26:00Z</time>
      </trkpt>
      <trkpt lat="42.88118" lon="2.10403">
        <ele>764.716</ele>
        <time>2015-08-26T19:26:20Z</time>
      </trkpt>
      <trkpt lat="42.88083" lon="2.10362">
        <ele>775.008</ele>
        <time>2015-08-26T19:26:40Z</time>
      </trkpt>
      <trkpt lat="42.8806" lon="2.10247">
        <ele>790.89</ele>
        <time>2015-08-26T19:27:00Z</time>
      </trkpt>
      <trkpt lat="42.88041" lon="2.1019">
        <ele>800.795</ele>
        <time>2015-08-26T19:27:20Z</time>
      </trkpt>
      <trkpt lat="42.88044" lon="2.10126">
        <ele>811.046</ele>
        <time>2015-08-26T19:27:40Z</time>
      </trkpt>
      <trkpt lat="42.88063" lon="2.10123">
        <ele>815.661</ele>
        <time>2015-08-26T19:28:00Z</time>
      </trkpt>
      <trkpt lat="42.88096" lon="2.10155">
        <ele>815.36</ele>
        <time>2015-08-26T19:28:20Z</time>
      </trkpt>
      <trkpt lat="42.88144" lon="2.10151">
        <ele>816.643</ele>
        <time>2015-08-26T19:28:40Z</time>
      </trkpt>
      <trkpt lat="42.88217" lon="2.10087">
        <ele>823.93</ele>
        <time>2015-08-26T19:29:00Z</time>
      </trkpt>
      <trkpt lat="42.88258" lon="2.09977">
        <ele>835.224</ele>
        <time>2015-08-26T19:29:20Z</time>
      </trkpt>
      <trkpt lat="42.88196" lon="2.09968">
        <ele>849.356</ele>
        <time>2015-08-26T19:29:40Z</time>
      </trkpt>
      <trkpt lat="42.88137" lon="2.09979">
        <ele>879.259</ele>
        <time>2015-08-26T19:30:00Z</time>
      </trkpt>
      <trkpt lat="42.88097" lon="2.10003">
        <ele>887.014</ele>
        <time>2015-08-26T19:30:20Z</time>
      </trkpt>
      <trkpt lat="42.88049" lon="2.10005">
        <ele>884.508</ele>
        <time>2015-08-26T19:30:40Z</time>
      </trkpt>
      <trkpt lat="42.88002" lon="2.09919">
        <ele>881.271</ele>
        <time>2015-08-26T19:31:00Z</time>
      </trkpt>
      <trkpt lat="42.87993" lon="2.09835">
        <ele>888.266</ele>
        <time>2015-08-26T19:31:20Z</time>
      </trkpt>
      <trkpt lat="42.88012" lon="2.09786">
        <ele>896.687</ele>
        <time>2015-08-26T19:31:40Z</time>
      </trkpt>
      <trkpt lat="42.88026" lon="2.09623">
        <ele>921.552</ele>
        <time>2015-08-26T19:32:00Z</time>
      </trkpt>
      <trkpt lat="42.87875" lon="2.0936">
        <ele>974.931</ele>
        <time>2015-08-26T19:32:20Z</time>
      </trkpt>
      <trkpt lat="42.87835" lon="2.09305">
        <ele>982.654</ele>
        <time>2015-08-26T19:32:40Z</time>
      </trkpt>
      <trkpt lat="42.87805" lon="2.09172">
        <ele>984.931</ele>
        <time>2015-08-26T19:33:00Z</time>
      </trkpt>
      <trkpt lat="42.87809" lon="2.09125">
        <ele>992.655</ele>
        <time>2015-08-26T19:33:20Z</time>
      </trkpt>
      <trkpt lat="42.87766" lon="2.09021">
        <ele>994.912</ele>
        <time>2015-08-26T19:33:40Z</time>
      </trkpt>
      <trkpt lat="42.87706" lon="2.09045">
        <ele>989.232</ele>
        <time>2015-08-26T19:34:00Z</time>
      </trkpt>
      <trkpt lat="42.87671" lon="2.08995">
        <ele>988.505</ele>
        <time>2015-08-26T19:34:20Z</time>
      </trkpt>
      <trkpt lat="42.87634" lon="2.09004">
        <ele>990.208</ele>
        <time>2015-08-26T19:34:40Z</time>
      </trkpt>
      <trkpt lat="42.87597" lon="2.08992">
        <ele>987.267</ele>
        <time>2015-08-26T19:35:00Z</time>
      </trkpt>
      <trkpt lat="42.87574" lon="2.08973">
        <ele>987.872</ele>
        <time>2015-08-26T19:35:20Z</time>
      </trkpt>
      <trkpt lat="42.87532" lon="2.08985">
        <ele>984.943</ele>
        <time>2015-08-26T19:35:40Z</time>
      </trkpt>
      <trkpt lat="42.8746" lon="2.08974">
        <ele>977.178</ele>
        <time>2015-08-26T19:36:00Z</time>
      </trkpt>
      <trkpt lat="42.87441" lon="2.08931">
        <ele>973.197</ele>
        <time>2015-08-26T19:36:20Z</time>
      </trkpt>
      <trkpt lat="42.87388" lon="2.08944">
        <ele>980.15</ele>
        <time>2015-08-26T19:36:40Z</time>
      </trkpt>
      <trkpt lat="42.87365" lon="2.08924">
        <ele>981.727</ele>
        <time>2015-08-26T19:37:00Z</time>
      </trkpt>
      <trkpt lat="42.87373" lon="2.08808">
        <ele>984.291</ele>
        <time>2015-08-26T19:37:20Z</time>
      </trkpt>
      <trkpt lat="42.87351" lon="2.08783">
        <ele>988.211</ele>
        <time>2015-08-26T19:37:40Z</time>
      </trkpt>
      <trkpt lat="42.87314" lon="2.08815">
        <ele>990.721</ele>
        <time>2015-08-26T19:38:00Z</time>
      </trkpt>
      <trkpt lat="42.87166" lon="2.09016">
        <ele>990.003</ele>
        <time>2015-08-26T19:38:20Z</time>
      </trkpt>
      <trkpt lat="42.87119" lon="2.09181">
        <ele>990.008</ele>
        <time>2015-08-26T19:38:40Z</time>
      </trkpt>
      <trkpt lat="42.86943" lon="2.09197">
        <ele>990.077</ele>
        <time>2015-08-26T19:39:00Z</time>
      </trkpt>
      <trkpt lat="42.86909" lon="2.09168">
        <ele>992.332</ele>
        <time>2015-08-26T19:39:20Z</time>
      </trkpt>
      <trkpt lat="42.86905" lon="2.09122">
        <ele>994.813</ele>
        <time>2015-08-26T19:39:40Z</time>
      </trkpt>
      <trkpt lat="42.86915" lon="2.09032">
        <ele>992.548</ele>
        <time>2015-08-26T19:40:00Z</time>
      </trkpt>
      <trkpt lat="42.86905" lon="2.08884">
        <ele>997.437</ele>
        <time>2015-08-26T19:40:20Z</time>
      </trkpt>
      <trkpt lat="42.8693" lon="2.0879">
        <ele>992.73</ele>
        <time>2015-08-26T19:40:40Z</time>
      </trkpt>
      <trkpt lat="42.86932" lon="2.08688">
        <ele>993.257</ele>
        <time>2015-08-26T19:41:00Z</time>
      </trkpt>
      <trkpt lat="42.86927" lon="2.08594">
        <ele>995.941</ele>
        <time>2015-08-26T19:41:20Z</time>
      </trkpt>
      <trkpt lat="42.8696" lon="2.08502">
        <ele>990.057</ele>
        <time>2015-08-26T19:41:40Z</time>
      </trkpt>
      <trkpt lat="42.86974" lon="2.08442">
        <ele>990</ele>
        <time>2015-08-26T19:42:00Z</time>
      </trkpt>
      <trkpt lat="42.86834" lon="2.08373">
        <ele>986.92</ele>
        <time>2015-08-26T19:42:20Z</time>
      </trkpt>
      <trkpt lat="42.86762" lon="2.08396">
        <ele>965.708</ele>
        <time>2015-08-26T19:42:40Z</time>
      </trkpt>
      <trkpt lat="42.86754" lon="2.08356">
        <ele>960.381</ele>
        <time>2015-08-26T19:43:00Z</time>
      </trkpt>
      <trkpt lat="42.86702" lon="2.08332">
        <ele>949.316</ele>
        <time>2015-08-26T19:43:20Z</time>
      </trkpt>
      <trkpt lat="42.86694" lon="2.08289">
        <ele>946.227</ele>
        <time>2015-08-26T19:43:40Z</time>
      </trkpt>
      <trkpt lat="42.86612" lon="2.08266">
        <ele>934.192</ele>
        <time>2015-08-26T19:44:00Z</time>
      </trkpt>
      <trkpt lat="42.866" lon="2.08252">
        <ele>935.671</ele>
        <time>2015-08-26T19:44:20Z</time>
      </trkpt>
      <trkpt lat="42.86422" lon="2.08209">
        <ele>939.334</ele>
        <time>2015-08-26T19:44:40Z</time>
      </trkpt>
      <trkpt lat="42.86286" lon="2.08112">
        <ele>949.751</ele>
        <time>2015-08-26T19:45:00Z</time>
      </trkpt>
      <trkpt lat="42.86263" lon="2.0805">
        <ele>960.955</ele>
        <time>2015-08-26T19:45:20Z</time>
      </trkpt>
      <trkpt lat="42.86276" lon="2.07986">
        <ele>964.594</ele>
        <time>2015-08-26T19:45:40Z</time>
      </trkpt>
      <trkpt lat="42.86302" lon="2.07943">
        <ele>957.857</ele>
        <time>2015-08-26T19:46:00Z</time>
      </trkpt>
      <trkpt lat="42.86307" lon="2.07885">
        <ele>955.922</ele>
        <time>2015-08-26T19:46:20Z</time>
      </trkpt>
      <trkpt lat="42.862" lon="2.07808">
        <ele>955.908</ele>
        <time>2015-08-26T19:46:40Z</time>
      </trkpt>
      <trkpt lat="42.86182" lon="2.07774">
        <ele>952.595</ele>
        <time>2015-08-26T19:47:00Z</time>
      </trkpt>
      <trkpt lat="42.86125" lon="2.07762">
        <ele>946.28</ele>
        <time>2015-08-26T19:47:20Z</time>
      </trkpt>
      <trkpt lat="42.86017" lon="2.07632">
        <ele>933.551</ele>
        <time>2015-08-26T19:47:40Z</time>
      </trkpt>
      <trkpt lat="42.85964" lon="2.07627">
        <ele>932.736</ele>
        <time>2015-08-26T19:48:00Z</time>
      </trkpt>
      <trkpt lat="42.85871" lon="2.07524">
        <ele>924.165</ele>
        <time>2015-08-26T19:48:20Z</time>
      </trkpt>
      <trkpt lat="42.85807" lon="2.07518">
        <ele>919.158</ele>
        <time>2015-08-26T19:48:40Z</time>
      </trkpt>
      <trkpt lat="42.85745" lon="2.07555">
        <ele>915.635</ele>
        <time>2015-08-26T19:49:00Z</time>
      </trkpt>
      <trkpt lat="42.857" lon="2.07601">
        <ele>910.319</ele>
        <time>2015-08-26T19:49:20Z</time>
      </trkpt>
      <trkpt lat="42.85569" lon="2.0767">
        <ele>907.789</ele>
        <time>2015-08-26T19:49:40Z</time>
      </trkpt>
      <trkpt lat="42.8551" lon="2.07675">
        <ele>905.706</ele>
        <time>2015-08-26T19:50:00Z</time>
      </trkpt>
      <trkpt lat="42.85438" lon="2.07607">
        <ele>898.426</ele>
        <time>2015-08-26T19:50:20Z</time>
      </trkpt>
      <trkpt lat="42.8536" lon="2.07638">
        <ele>898.008</ele>
        <time>2015-08-26T19:50:40Z</time>
      </trkpt>
      <trkpt lat="42.85334" lon="2.07682">
        <ele>904.814</ele>
        <time>2015-08-26T19:51:00Z</time>
      </trkpt>
      <trkpt lat="42.85305" lon="2.07697">
        <ele>910.259</ele>
        <time>2015-08-26T19:51:20Z</time>
      </trkpt>
      <trkpt lat="42.85219" lon="2.0746">
        <ele>925.97</ele>
        <time>2015-08-26T19:51:40Z</time>
      </trkpt>
      <trkpt lat="42.8519" lon="2.0745">
        <ele>928.255</ele>
        <time>2015-08-26T19:52:00Z</time>
      </trkpt>
      <trkpt lat="42.85121" lon="2.07378">
        <ele>930.064</ele>
        <time>2015-08-26T19:52:20Z</time>
      </trkpt>
      <trkpt lat="42.85049" lon="2.0739">
        <ele>923.787</ele>
        <time>2015-08-26T19:52:40Z</time>
      </trkpt>
      <trkpt lat="42.85057" lon="2.07112">
        <ele>919.364</ele>
        <time>2015-08-26T19:53:00Z</time>
      </trkpt>
      <trkpt lat="42.84993" lon="2.07046">
        <ele>913.648</ele>
        <time>2015-08-26T19:53:20Z</time>
      </trkpt>
      <trkpt lat="42.84949" lon="2.06976">
        <ele>907.699</ele>
        <time>2015-08-26T19:53:40Z</time>
      </trkpt>
      <trkpt lat="42.84874" lon="2.07032">
        <ele>899.507</ele>
        <time>2015-08-26T19:54:00Z</time>
      </trkpt>
      <trkpt lat="42.8474" lon="2.06967">
        <ele>886.627</ele>
        <time>2015-08-26T19:54:20Z</time>
      </trkpt>
      <trkpt lat="42.84739" lon="2.06849">
        <ele>887.108</ele>
        <time>2015-08-26T19:54:40Z</time>
      </trkpt>
      <trkpt lat="42.8458" lon="2.06826">
        <ele>880.945</ele>
        <time>2015-08-26T19:55:00Z</time>
      </trkpt>
      <trkpt lat="42.84562" lon="2.06841">
        <ele>880.29</ele>
        <time>2015-08-26T19:55:20Z</time>
      </trkpt>
      <trkpt lat="42.84384" lon="2.0688">
        <ele>876.651</ele>
        <time>2015-08-26T19:55:40Z</time>
      </trkpt>
      <trkpt lat="42.84348" lon="2.06857">
        <ele>875.496</ele>
        <time>2015-08-26T19:56:00Z</time>
      </trkpt>
      <trkpt lat="42.84222" lon="2.06869">
        <ele>873.395</ele>
        <time>2015-08-26T19:56:20Z</time>
      </trkpt>
      <trkpt lat="42.84147" lon="2.0686">
        <ele>872.188</ele>
        <time>2015-08-26T19:56:40Z</time>
      </trkpt>
      <trkpt lat="42.84163" lon="2.0681">
        <ele>869.575</ele>
        <time>2015-08-26T19:57:00Z</time>
      </trkpt>
      <trkpt lat="42.84198" lon="2.06738">
        <ele>870.189</ele>
        <time>2015-08-26T19:57:20Z</time>
      </trkpt>
      <trkpt lat="42.84208" lon="2.06601">
        <ele>870.087</ele>
        <time>2015-08-26T19:57:40Z</time>
      </trkpt>
      <trkpt lat="42.84242" lon="2.06363">
        <ele>868.342</ele>
        <time>2015-08-26T19:58:00Z</time>
      </trkpt>
      <trkpt lat="42.84342" lon="2.05992">
        <ele>870.026</ele>
        <time>2015-08-26T19:58:20Z</time>
      </trkpt>
      <trkpt lat="42.84406" lon="2.05784">
        <ele>870.008</ele>
        <time>2015-08-26T19:58:40Z</time>
      </trkpt>
      <trkpt lat="42.84433" lon="2.05562">
        <ele>869.644</ele>
        <time>2015-08-26T19:59:00Z</time>
      </trkpt>
      <trkpt lat="42.84444" lon="2.05367">
        <ele>871.029</ele>
        <time>2015-08-26T19:59:20Z</time>
      </trkpt>
      <trkpt lat="42.84494" lon="2.05048">
        <ele>872.93</ele>
        <time>2015-08-26T19:59:40Z</time>
      </trkpt>
      <trkpt lat="42.8451" lon="2.04965">
        <ele>873.685</ele>
        <time>2015-08-26T20:00:00Z</time>
      </trkpt>
      <trkpt lat="42.84485" lon="2.04835">
        <ele>875.044</ele>
        <time>2015-08-26T20:00:20Z</time>
      </trkpt>
      <trkpt lat="42.8439" lon="2.04804">
        <ele>877.177</ele>
        <time>2015-08-26T20:00:40Z</time>
      </trkpt>
      <trkpt lat="42.84301" lon="2.04866">
        <ele>877.924</ele>
        <time>2015-08-26T20:01:00Z</time>
      </trkpt>
      <trkpt lat="42.84234" lon="2.04944">
        <ele>875.878</ele>
        <time>2015-08-26T20:01:20Z</time>
      </trkpt>
      <trkpt lat="42.84133" lon="2.05007">
        <ele>874.927</ele>
        <time>2015-08-26T20:01:40Z</time>
      </trkpt>
      <trkpt lat="42.83928" lon="2.04952">
        <ele>860.468</ele>
        <time>2015-08-26T20:02:00Z</time>
      </trkpt>
      <trkpt lat="42.83899" lon="2.05102">
        <ele>858.714</ele>
        <time>2015-08-26T20:02:20Z</time>
      </trkpt>
      <trkpt lat="42.83824" lon="2.05177">
        <ele>850.208</ele>
        <time>2015-08-26T20:02:40Z</time>
      </trkpt>
      <trkpt lat="42.83623" lon="2.05251">
        <ele>865.718</ele>
        <time>2015-08-26T20:03:00Z</time>
      </trkpt>
      <trkpt lat="42.83551" lon="2.05183">
        <ele>869.243</ele>
        <time>2015-08-26T20:03:20Z</time>
      </trkpt>
      <trkpt lat="42.83412" lon="2.05148">
        <ele>876.114</ele>
        <time>2015-08-26T20:03:40Z</time>
      </trkpt>
      <trkpt lat="42.83363" lon="2.05145">
        <ele>877.889</ele>
        <time>2015-08-26T20:04:00Z</time>
      </trkpt>
      <trkpt lat="42.83296" lon="2.05114">
        <ele>874.648</ele>
        <time>2015-08-26T20:04:20Z</time>
      </trkpt>
      <trkpt lat="42.83242" lon="2.05134">
        <ele>863.671</ele>
        <time>2015-08-26T20:04:40Z</time>
      </trkpt>
      <trkpt lat="42.83215" lon="2.05043">
        <ele>861.788</ele>
        <time>2015-08-26T20:05:00Z</time>
      </trkpt>
      <trkpt lat="42.8321" lon="2.04859">
        <ele>856.792</ele>
        <time>2015-08-26T20:05:20Z</time>
      </trkpt>
      <trkpt lat="42.83189" lon="2.04707">
        <ele>849.968</ele>
        <time>2015-08-26T20:05:40Z</time>
      </trkpt>
      <trkpt lat="42.83152" lon="2.04625">
        <ele>857.242</ele>
        <time>2015-08-26T20:06:00Z</time>
      </trkpt>
      <trkpt lat="42.83064" lon="2.04602">
        <ele>837.926</ele>
        <time>2015-08-26T20:06:20Z</time>
      </trkpt>
      <trkpt lat="42.83014" lon="2.04644">
        <ele>836.208</ele>
        <time>2015-08-26T20:06:40Z</time>
      </trkpt>
      <trkpt lat="42.82991" lon="2.04755">
        <ele>814.632</ele>
        <time>2015-08-26T20:07:00Z</time>
      </trkpt>
      <trkpt lat="42.82956" lon="2.04875">
        <ele>793.787</ele>
        <time>2015-08-26T20:07:20Z</time>
      </trkpt>
      <trkpt lat="42.82908" lon="2.04954">
        <ele>785.198</ele>
        <time>2015-08-26T20:07:40Z</time>
      </trkpt>
      <trkpt lat="42.82837" lon="2.05041">
        <ele>776.753</ele>
        <time>2015-08-26T20:08:00Z</time>
      </trkpt>
      <trkpt lat="42.82803" lon="2.05044">
        <ele>773.892</ele>
        <time>2015-08-26T20:08:20Z</time>
      </trkpt>
      <trkpt lat="42.82764" lon="2.04985">
        <ele>769.935</ele>
        <time>2015-08-26T20:08:40Z</time>
      </trkpt>
      <trkpt lat="42.82713" lon="2.04835">
        <ele>759.882</ele>
        <time>2015-08-26T20:09:00Z</time>
      </trkpt>
      <trkpt lat="42.8268" lon="2.04674">
        <ele>744.916</ele>
        <time>2015-08-26T20:09:20Z</time>
      </trkpt>
      <trkpt lat="42.82687" lon="2.04567">
        <ele>746.811</ele>
        <time>2015-08-26T20:09:40Z</time>
      </trkpt>
      <trkpt lat="42.82623" lon="2.04552">
        <ele>733.921</ele>
        <time>2015-08-26T20:10:00Z</time>
      </trkpt>
      <trkpt lat="42.82585" lon="2.04584">
        <ele>722.303</ele>
        <time>2015-08-26T20:10:20Z</time>
      </trkpt>
      <trkpt lat="42.82554" lon="2.04744">
        <ele>710.208</ele>
        <time>2015-08-26T20:10:40Z</time>
      </trkpt>
      <trkpt lat="42.82501" lon="2.0479">
        <ele>709.587</ele>
        <time>2015-08-26T20:11:00Z</time>
      </trkpt>
      <trkpt lat="42.82517" lon="2.04834">
        <ele>708.472</ele>
        <time>2015-08-26T20:11:20Z</time>
      </trkpt>
      <trkpt lat="42.82515" lon="2.0488">
        <ele>707.993</ele>
        <time>2015-08-26T20:11:40Z</time>
      </trkpt>
      <trkpt lat="42.82499" lon="2.04904">
        <ele>709.138</ele>
        <time>2015-08-26T20:12:00Z</time>
      </trkpt>
      <trkpt lat="42.82541" lon="2.0506">
        <ele>703.187</ele>
        <time>2015-08-26T20:12:20Z</time>
      </trkpt>
      <trkpt lat="42.82546" lon="2.05164">
        <ele>705.66</ele>
        <time>2015-08-26T20:12:40Z</time>
      </trkpt>
      <trkpt lat="42.82485" lon="2.05201">
        <ele>713.127</ele>
        <time>2015-08-26T20:13:00Z</time>
      </trkpt>
      <trkpt lat="42.82362" lon="2.0523">
        <ele>734.031</ele>
        <time>2015-08-26T20:13:20Z</time>
      </trkpt>
      <trkpt lat="42.82286" lon="2.05294">
        <ele>751.786</ele>
        <time>2015-08-26T20:13:40Z</time>
      </trkpt>
      <trkpt lat="42.82229" lon="2.05326">
        <ele>773.16</ele>
        <time>2015-08-26T20:14:00Z</time>
      </trkpt>
      <trkpt lat="42.82212" lon="2.05356">
        <ele>785.326</ele>
        <time>2015-08-26T20:14:20Z</time>
      </trkpt>
      <trkpt lat="42.82213" lon="2.05427">
        <ele>793.408</ele>
        <time>2015-08-26T20:14:40Z</time>
      </trkpt>
      <trkpt lat="42.82127" lon="2.05483">
        <ele>795.154</ele>
        <time>2015-08-26T20:15:00Z</time>
      </trkpt>
      <trkpt lat="42.82055" lon="2.05469">
        <ele>804.539</ele>
        <time>2015-08-26T20:15:20Z</time>
      </trkpt>
      <trkpt lat="42.81994" lon="2.05489">
        <ele>826.01</ele>
        <time>2015-08-26T20:15:40Z</time>
      </trkpt>
      <trkpt lat="42.82015" lon="2.05577">
        <ele>841.425</ele>
        <time>2015-08-26T20:16:00Z</time>
      </trkpt>
      <trkpt lat="42.82011" lon="2.05671">
        <ele>853.564</ele>
        <time>2015-08-26T20:16:20Z</time>
      </trkpt>
      <trkpt lat="42.81988" lon="2.05789">
        <ele>864.267</ele>
        <time>2015-08-26T20:16:40Z</time>
      </trkpt>
      <trkpt lat="42.81957" lon="2.0584">
        <ele>868.114</ele>
        <time>2015-08-26T20:17:00Z</time>
      </trkpt>
      <trkpt lat="42.81934" lon="2.05867">
        <ele>873.678</ele>
        <time>2015-08-26T20:17:20Z</time>
      </trkpt>
      <trkpt lat="42.81916" lon="2.06132">
        <ele>900.183</ele>
        <time>2015-08-26T20:17:40Z</time>
      </trkpt>
      <trkpt lat="42.81857" lon="2.06178">
        <ele>900.025</ele>
        <time>2015-08-26T20:18:00Z</time>
      </trkpt>
      <trkpt lat="42.81818" lon="2.06188">
        <ele>899.217</ele>
        <time>2015-08-26T20:18:20Z</time>
      </trkpt>
      <trkpt lat="42.81753" lon="2.06125">
        <ele>909.608</ele>
        <time>2015-08-26T20:18:40Z</time>
      </trkpt>
      <trkpt lat="42.81727" lon="2.06139">
        <ele>910.554</ele>
        <time>2015-08-26T20:19:00Z</time>
      </trkpt>
      <trkpt lat="42.81629" lon="2.06242">
        <ele>926.179</ele>
        <time>2015-08-26T20:19:20Z</time>
      </trkpt>
      <trkpt lat="42.8161" lon="2.06264">
        <ele>929.45</ele>
        <time>2015-08-26T20:19:40Z</time>
      </trkpt>
      <trkpt lat="42.81544" lon="2.06272">
        <ele>917.595</ele>
        <time>2015-08-26T20:20:00Z</time>
      </trkpt>
      <trkpt lat="42.81315" lon="2.06368">
        <ele>930.154</ele>
        <time>2015-08-26T20:20:20Z</time>
      </trkpt>
      <trkpt lat="42.81278" lon="2.06412">
        <ele>926.217</ele>
        <time>2015-08-26T20:20:40Z</time>
      </trkpt>
      <trkpt lat="42.81201" lon="2.06409">
        <ele>930.784</ele>
        <time>2015-08-26T20:21:00Z</time>
      </trkpt>
      <trkpt lat="42.81184" lon="2.06325">
        <ele>943.018</ele>
        <time>2015-08-26T20:21:20Z</time>
      </trkpt>
      <trkpt lat="42.81156" lon="2.06307">
        <ele>943.147</ele>
        <time>2015-08-26T20:21:40Z</time>
      </trkpt>
      <trkpt lat="42.80972" lon="2.06428">
        <ele>955.029</ele>
        <time>2015-08-26T20:22:00Z</time>
      </trkpt>
      <trkpt lat="42.80907" lon="2.06396">
        <ele>948.721</ele>
        <time>2015-08-26T20:22:20Z</time>
      </trkpt>
      <trkpt lat="42.8087" lon="2.06436">
        <ele>943.508</ele>
        <time>2015-08-26T20:22:40Z</time>
      </trkpt>
      <trkpt lat="42.80709" lon="2.06664">
        <ele>920.14</ele>
        <time>2015-08-26T20:23:00Z</time>
      </trkpt>
      <trkpt lat="42.80562" lon="2.06682">
        <ele>925.715</ele>
        <time>2015-08-26T20:23:20Z</time>
      </trkpt>
      <trkpt lat="42.80518" lon="2.06675">
        <ele>926.416</ele>
        <time>2015-08-26T20:23:40Z</time>
      </trkpt>
      <trkpt lat="42.80497" lon="2.06692">
        <ele>925.091</ele>
        <time>2015-08-26T20:24:00Z</time>
      </trkpt>
      <trkpt lat="42.80005" lon="2.06707">
        <ele>913.46</ele>
        <time>2019-03-29T13:26:02Z</time>
      </trkpt>
      <trkpt lat="42.79871" lon="2.06788">
        <ele>909.683</ele>
        <time>2019-03-29T13:26:22Z</time>
      </trkpt>
      <trkpt lat="42.79863" lon="2.06864">
        <ele>910.26</ele>
        <time>2015-08-26T20:26:00Z</time>
      </trkpt>
      <trkpt lat="42.79709" lon="2.06816">
        <ele>916.544</ele>
        <time>2015-08-26T20:26:20Z</time>
      </trkpt>
      <trkpt lat="42.79543" lon="2.06669">
        <ele>929.044</ele>
        <time>2015-08-26T20:26:40Z</time>
      </trkpt>
      <trkpt lat="42.79507" lon="2.06604">
        <ele>934.105</ele>
        <time>2015-08-26T20:27:00Z</time>
      </trkpt>
      <trkpt lat="42.79459" lon="2.06582">
        <ele>940.015</ele>
        <time>2015-08-26T20:27:20Z</time>
      </trkpt>
      <trkpt lat="42.79389" lon="2.06572">
        <ele>944.208</ele>
        <time>2015-08-26T20:27:40Z</time>
      </trkpt>
      <trkpt lat="42.79301" lon="2.06514">
        <ele>950.98</ele>
        <time>2015-08-26T20:28:00Z</time>
      </trkpt>
      <trkpt lat="42.79236" lon="2.06479">
        <ele>951.055</ele>
        <time>2015-08-26T20:28:20Z</time>
      </trkpt>
      <trkpt lat="42.79208" lon="2.06398">
        <ele>953.576</ele>
        <time>2015-08-26T20:28:40Z</time>
      </trkpt>
      <trkpt lat="42.79217" lon="2.06283">
        <ele>958.861</ele>
        <time>2015-08-26T20:29:00Z</time>
      </trkpt>
      <trkpt lat="42.79138" lon="2.06151">
        <ele>970.05</ele>
        <time>2015-08-26T20:29:20Z</time>
      </trkpt>
      <trkpt lat="42.79073" lon="2.06128">
        <ele>970.663</ele>
        <time>2015-08-26T20:29:40Z</time>
      </trkpt>
      <trkpt lat="42.79004" lon="2.06142">
        <ele>971.35</ele>
        <time>2015-08-26T20:30:00Z</time>
      </trkpt>
      <trkpt lat="42.78919" lon="2.06141">
        <ele>979.114</ele>
        <time>2015-08-26T20:30:20Z</time>
      </trkpt>
      <trkpt lat="42.78881" lon="2.06117">
        <ele>980.094</ele>
        <time>2015-08-26T20:30:40Z</time>
      </trkpt>
      <trkpt lat="42.78825" lon="2.0611">
        <ele>987.957</ele>
        <time>2015-08-26T20:31:00Z</time>
      </trkpt>
      <trkpt lat="42.78743" lon="2.06126">
        <ele>990.022</ele>
        <time>2015-08-26T20:31:20Z</time>
      </trkpt>
      <trkpt lat="42.78661" lon="2.06104">
        <ele>993.008</ele>
        <time>2015-08-26T20:31:40Z</time>
      </trkpt>
      <trkpt lat="42.78647" lon="2.06061">
        <ele>1000.815</ele>
        <time>2015-08-26T20:32:00Z</time>
      </trkpt>
      <trkpt lat="42.78652" lon="2.06006">
        <ele>1006.04</ele>
        <time>2015-08-26T20:32:20Z</time>
      </trkpt>
      <trkpt lat="42.7861" lon="2.06007">
        <ele>1003.591</ele>
        <time>2015-08-26T20:32:40Z</time>
      </trkpt>
      <trkpt lat="42.78542" lon="2.05977">
        <ele>1012.256</ele>
        <time>2015-08-26T20:33:00Z</time>
      </trkpt>
      <trkpt lat="42.78442" lon="2.06009">
        <ele>1022.755</ele>
        <time>2015-08-26T20:33:20Z</time>
      </trkpt>
      <trkpt lat="42.78417" lon="2.06065">
        <ele>1026.288</ele>
        <time>2015-08-26T20:33:40Z</time>
      </trkpt>
      <trkpt lat="42.78404" lon="2.06135">
        <ele>1027.045</ele>
        <time>2015-08-26T20:34:00Z</time>
      </trkpt>
      <trkpt lat="42.7828" lon="2.06333">
        <ele>1053.299</ele>
        <time>2015-08-26T20:34:20Z</time>
      </trkpt>
      <trkpt lat="42.78239" lon="2.06519">
        <ele>1064.495</ele>
        <time>2015-08-26T20:34:40Z</time>
      </trkpt>
      <trkpt lat="42.78178" lon="2.06723">
        <ele>1080.549</ele>
        <time>2015-08-26T20:35:00Z</time>
      </trkpt>
      <trkpt lat="42.78106" lon="2.06867">
        <ele>1102.523</ele>
        <time>2015-08-26T20:35:20Z</time>
      </trkpt>
      <trkpt lat="42.78009" lon="2.0712">
        <ele>1128.108</ele>
        <time>2015-08-26T20:35:40Z</time>
      </trkpt>
      <trkpt lat="42.77873" lon="2.07365">
        <ele>1151.995</ele>
        <time>2015-08-26T20:36:00Z</time>
      </trkpt>
      <trkpt lat="42.77813" lon="2.0751">
        <ele>1163.87</ele>
        <time>2015-08-26T20:36:20Z</time>
      </trkpt>
      <trkpt lat="42.77785" lon="2.07503">
        <ele>1161.681</ele>
        <time>2015-08-26T20:36:40Z</time>
      </trkpt>
      <trkpt lat="42.77758" lon="2.0759">
        <ele>1159.256</ele>
        <time>2015-08-26T20:37:00Z</time>
      </trkpt>
      <trkpt lat="42.77726" lon="2.07611">
        <ele>1157.695</ele>
        <time>2015-08-26T20:37:20Z</time>
      </trkpt>
      <trkpt lat="42.77708" lon="2.07601">
        <ele>1153.918</ele>
        <time>2015-08-26T20:37:40Z</time>
      </trkpt>
      <trkpt lat="42.77485" lon="2.07706">
        <ele>1148.165</ele>
        <time>2015-08-26T20:38:00Z</time>
      </trkpt>
      <trkpt lat="42.7743" lon="2.07723">
        <ele>1141.029</ele>
        <time>2015-08-26T20:38:20Z</time>
      </trkpt>
      <trkpt lat="42.77395" lon="2.07744">
        <ele>1134.766</ele>
        <time>2015-08-26T20:38:40Z</time>
      </trkpt>
      <trkpt lat="42.77332" lon="2.07747">
        <ele>1119.429</ele>
        <time>2015-08-26T20:39:00Z</time>
      </trkpt>
      <trkpt lat="42.77249" lon="2.07684">
        <ele>1113.621</ele>
        <time>2015-08-26T20:39:20Z</time>
      </trkpt>
      <trkpt lat="42.77223" lon="2.07677">
        <ele>1113.708</ele>
        <time>2015-08-26T20:39:40Z</time>
      </trkpt>
      <trkpt lat="42.77203" lon="2.07688">
        <ele>1113.892</ele>
        <time>2015-08-26T20:40:00Z</time>
      </trkpt>
      <trkpt lat="42.77186" lon="2.07707">
        <ele>1110.247</ele>
        <time>2015-08-26T20:40:20Z</time>
      </trkpt>
      <trkpt lat="42.77145" lon="2.07716">
        <ele>1108.258</ele>
        <time>2015-08-26T20:40:40Z</time>
      </trkpt>
      <trkpt lat="42.77109" lon="2.07715">
        <ele>1097.163</ele>
        <time>2015-08-26T20:41:00Z</time>
      </trkpt>
      <trkpt lat="42.77108" lon="2.07728">
        <ele>1093.252</ele>
        <time>2015-08-26T20:41:20Z</time>
      </trkpt>
      <trkpt lat="42.77138" lon="2.07758">
        <ele>1094.565</ele>
        <time>2015-08-26T20:41:40Z</time>
      </trkpt>
      <trkpt lat="42.77097" lon="2.07761">
        <ele>1077.542</ele>
        <time>2015-08-26T20:42:00Z</time>
      </trkpt>
      <trkpt lat="42.77051" lon="2.07657">
        <ele>1075.496</ele>
        <time>2015-08-26T20:42:20Z</time>
      </trkpt>
      <trkpt lat="42.77034" lon="2.0759">
        <ele>1074.615</ele>
        <time>2015-08-26T20:42:40Z</time>
      </trkpt>
      <trkpt lat="42.76987" lon="2.07591">
        <ele>1066.065</ele>
        <time>2015-08-26T20:43:00Z</time>
      </trkpt>
      <trkpt lat="42.76941" lon="2.07576">
        <ele>1064.411</ele>
        <time>2015-08-26T20:43:20Z</time>
      </trkpt>
      <trkpt lat="42.76886" lon="2.07531">
        <ele>1066.608</ele>
        <time>2015-08-26T20:43:40Z</time>
      </trkpt>
      <trkpt lat="42.76807" lon="2.07578">
        <ele>1068.447</ele>
        <time>2015-08-26T20:44:00Z</time>
      </trkpt>
      <trkpt lat="42.76756" lon="2.07618">
        <ele>1071.812</ele>
        <time>2015-08-26T20:44:20Z</time>
      </trkpt>
      <trkpt lat="42.76619" lon="2.07711">
        <ele>1080.673</ele>
        <time>2015-08-26T20:44:40Z</time>
      </trkpt>
      <trkpt lat="42.76565" lon="2.07717">
        <ele>1089.218</ele>
        <time>2015-08-26T20:45:00Z</time>
      </trkpt>
      <trkpt lat="42.7654" lon="2.0774">
        <ele>1092.057</ele>
        <time>2015-08-26T20:45:20Z</time>
      </trkpt>
      <trkpt lat="42.76433" lon="2.07918">
        <ele>1110.44</ele>
        <time>2015-08-26T20:45:40Z</time>
      </trkpt>
      <trkpt lat="42.76385" lon="2.07966">
        <ele>1106.787</ele>
        <time>2015-08-26T20:46:00Z</time>
      </trkpt>
      <trkpt lat="42.76336" lon="2.07996">
        <ele>1111.711</ele>
        <time>2015-08-26T20:46:20Z</time>
      </trkpt>
      <trkpt lat="42.76308" lon="2.08002">
        <ele>1109.929</ele>
        <time>2015-08-26T20:46:40Z</time>
      </trkpt>
      <trkpt lat="42.76286" lon="2.07941">
        <ele>1106.8</ele>
        <time>2015-08-26T20:47:00Z</time>
      </trkpt>
      <trkpt lat="42.76262" lon="2.07915">
        <ele>1106.12</ele>
        <time>2015-08-26T20:47:20Z</time>
      </trkpt>
      <trkpt lat="42.76224" lon="2.07905">
        <ele>1105.608</ele>
        <time>2015-08-26T20:47:40Z</time>
      </trkpt>
      <trkpt lat="42.76171" lon="2.0792">
        <ele>1104.798</ele>
        <time>2015-08-26T20:48:00Z</time>
      </trkpt>
      <trkpt lat="42.76121" lon="2.0793">
        <ele>1105.223</ele>
        <time>2015-08-26T20:48:20Z</time>
      </trkpt>
      <trkpt lat="42.76073" lon="2.0797">
        <ele>1102.284</ele>
        <time>2015-08-26T20:48:40Z</time>
      </trkpt>
      <trkpt lat="42.76035" lon="2.07987">
        <ele>1106.749</ele>
        <time>2015-08-26T20:49:00Z</time>
      </trkpt>
      <trkpt lat="42.75997" lon="2.08024">
        <ele>1097.088</ele>
        <time>2015-08-26T20:49:20Z</time>
      </trkpt>
      <trkpt lat="42.75963" lon="2.0802">
        <ele>1104.831</ele>
        <time>2015-08-26T20:49:40Z</time>
      </trkpt>
      <trkpt lat="42.75933" lon="2.08028">
        <ele>1106.928</ele>
        <time>2015-08-26T20:50:00Z</time>
      </trkpt>
      <trkpt lat="42.75893" lon="2.08075">
        <ele>1093.512</ele>
        <time>2015-08-26T20:50:20Z</time>
      </trkpt>
      <trkpt lat="42.75861" lon="2.08088">
        <ele>1088.438</ele>
        <time>2015-08-26T20:50:40Z</time>
      </trkpt>
      <trkpt lat="42.75804" lon="2.08087">
        <ele>1084.17</ele>
        <time>2015-08-26T20:51:00Z</time>
      </trkpt>
      <trkpt lat="42.7578" lon="2.08074">
        <ele>1078.917</ele>
        <time>2015-08-26T20:51:20Z</time>
      </trkpt>
      <trkpt lat="42.75718" lon="2.07954">
        <ele>1058.508</ele>
        <time>2015-08-26T20:51:40Z</time>
      </trkpt>
      <trkpt lat="42.75695" lon="2.07857">
        <ele>1051.619</ele>
        <time>2015-08-26T20:52:00Z</time>
      </trkpt>
      <trkpt lat="42.75684" lon="2.07742">
        <ele>1041.844</ele>
        <time>2015-08-26T20:52:20Z</time>
      </trkpt>
      <trkpt lat="42.75655" lon="2.07674">
        <ele>1025.085</ele>
        <time>2015-08-26T20:52:40Z</time>
      </trkpt>
      <trkpt lat="42.7565" lon="2.0763">
        <ele>1026.23</ele>
        <time>2015-08-26T20:53:00Z</time>
      </trkpt>
      <trkpt lat="42.75658" lon="2.0758">
        <ele>1032.229</ele>
        <time>2015-08-26T20:53:20Z</time>
      </trkpt>
      <trkpt lat="42.7567" lon="2.07534">
        <ele>1036.822</ele>
        <time>2015-08-26T20:53:40Z</time>
      </trkpt>
      <trkpt lat="42.75722" lon="2.0745">
        <ele>1038.269</ele>
        <time>2015-08-26T20:54:00Z</time>
      </trkpt>
      <trkpt lat="42.75749" lon="2.07381">
        <ele>1034.293</ele>
        <time>2015-08-26T20:54:20Z</time>
      </trkpt>
      <trkpt lat="42.75743" lon="2.07348">
        <ele>1030.853</ele>
        <time>2015-08-26T20:54:40Z</time>
      </trkpt>
      <trkpt lat="42.75703" lon="2.0729">
        <ele>1026.604</ele>
        <time>2015-08-26T20:55:00Z</time>
      </trkpt>
      <trkpt lat="42.75688" lon="2.07259">
        <ele>1030.514</ele>
        <time>2015-08-26T20:55:20Z</time>
      </trkpt>
      <trkpt lat="42.75644" lon="2.07206">
        <ele>1027.708</ele>
        <time>2015-08-26T20:55:40Z</time>
      </trkpt>
      <trkpt lat="42.75643" lon="2.07191">
        <ele>1031.681</ele>
        <time>2015-08-26T20:56:00Z</time>
      </trkpt>
      <trkpt lat="42.75651" lon="2.07152">
        <ele>1041.176</ele>
        <time>2015-08-26T20:56:20Z</time>
      </trkpt>
      <trkpt lat="42.75653" lon="2.07091">
        <ele>1039.047</ele>
        <time>2015-08-26T20:56:40Z</time>
      </trkpt>
      <trkpt lat="42.75702" lon="2.07049">
        <ele>1050.132</ele>
        <time>2015-08-26T20:57:00Z</time>
      </trkpt>
      <trkpt lat="42.75715" lon="2.07032">
        <ele>1048.981</ele>
        <time>2015-08-26T20:57:20Z</time>
      </trkpt>
      <trkpt lat="42.75714" lon="2.06982">
        <ele>1042.834</ele>
        <time>2015-08-26T20:57:40Z</time>
      </trkpt>
      <trkpt lat="42.75718" lon="2.06952">
        <ele>1045.471</ele>
        <time>2015-08-26T20:58:00Z</time>
      </trkpt>
      <trkpt lat="42.75713" lon="2.06914">
        <ele>1046.055</ele>
        <time>2015-08-26T20:58:20Z</time>
      </trkpt>
      <trkpt lat="42.75704" lon="2.0688">
        <ele>1044.629</ele>
        <time>2015-08-26T20:58:40Z</time>
      </trkpt>
      <trkpt lat="42.75704" lon="2.06856">
        <ele>1046.1</ele>
        <time>2015-08-26T20:59:00Z</time>
      </trkpt>
      <trkpt lat="42.75711" lon="2.06828">
        <ele>1048.92</ele>
        <time>2015-08-26T20:59:20Z</time>
      </trkpt>
      <trkpt lat="42.7575" lon="2.06766">
        <ele>1055.808</ele>
        <time>2015-08-26T20:59:40Z</time>
      </trkpt>
      <trkpt lat="42.75748" lon="2.06743">
        <ele>1052.168</ele>
        <time>2015-08-26T21:00:00Z</time>
      </trkpt>
      <trkpt lat="42.75713" lon="2.06687">
        <ele>1050.073</ele>
        <time>2015-08-26T21:00:20Z</time>
      </trkpt>
      <trkpt lat="42.75642" lon="2.06621">
        <ele>1051.024</ele>
        <time>2015-08-26T21:00:40Z</time>
      </trkpt>
      <trkpt lat="42.75635" lon="2.066">
        <ele>1053.959</ele>
        <time>2015-08-26T21:01:00Z</time>
      </trkpt>
      <trkpt lat="42.75637" lon="2.06566">
        <ele>1056.968</ele>
        <time>2015-08-26T21:01:20Z</time>
      </trkpt>
      <trkpt lat="42.7566" lon="2.06505">
        <ele>1062.541</ele>
        <time>2015-08-26T21:01:40Z</time>
      </trkpt>
      <trkpt lat="42.75687" lon="2.06448">
        <ele>1063.428</ele>
        <time>2015-08-26T21:02:00Z</time>
      </trkpt>
      <trkpt lat="42.75709" lon="2.0642">
        <ele>1065.542</ele>
        <time>2015-08-26T21:02:20Z</time>
      </trkpt>
      <trkpt lat="42.75736" lon="2.06399">
        <ele>1070.776</ele>
        <time>2015-08-26T21:02:40Z</time>
      </trkpt>
      <trkpt lat="42.75737" lon="2.06376">
        <ele>1063.79</ele>
        <time>2015-08-26T21:03:00Z</time>
      </trkpt>
      <trkpt lat="42.75703" lon="2.06321">
        <ele>1051.919</ele>
        <time>2015-08-26T21:03:20Z</time>
      </trkpt>
      <trkpt lat="42.75719" lon="2.06171">
        <ele>1063.008</ele>
        <time>2015-08-26T21:03:40Z</time>
      </trkpt>
      <trkpt lat="42.75723" lon="2.06077">
        <ele>1060.823</ele>
        <time>2015-08-26T21:04:00Z</time>
      </trkpt>
      <trkpt lat="42.75718" lon="2.06028">
        <ele>1058.538</ele>
        <time>2015-08-26T21:04:20Z</time>
      </trkpt>
      <trkpt lat="42.7572" lon="2.05997">
        <ele>1059.939</ele>
        <time>2015-08-26T21:04:40Z</time>
      </trkpt>
      <trkpt lat="42.75747" lon="2.05907">
        <ele>1063.864</ele>
        <time>2015-08-26T21:05:00Z</time>
      </trkpt>
      <trkpt lat="42.75746" lon="2.05834">
        <ele>1056.733</ele>
        <time>2015-08-26T21:05:20Z</time>
      </trkpt>
      <trkpt lat="42.75749" lon="2.05762">
        <ele>1057.356</ele>
        <time>2015-08-26T21:05:40Z</time>
      </trkpt>
      <trkpt lat="42.75742" lon="2.05687">
        <ele>1050.923</ele>
        <time>2015-08-26T21:06:00Z</time>
      </trkpt>
      <trkpt lat="42.75752" lon="2.05602">
        <ele>1053.327</ele>
        <time>2015-08-26T21:06:20Z</time>
      </trkpt>
      <trkpt lat="42.75762" lon="2.05563">
        <ele>1055.262</ele>
        <time>2015-08-26T21:06:40Z</time>
      </trkpt>
      <trkpt lat="42.75772" lon="2.05545">
        <ele>1056.483</ele>
        <time>2015-08-26T21:07:00Z</time>
      </trkpt>
      <trkpt lat="42.75877" lon="2.05466">
        <ele>1055.611</ele>
        <time>2015-08-26T21:07:20Z</time>
      </trkpt>
      <trkpt lat="42.75908" lon="2.05422">
        <ele>1048.808</ele>
        <time>2015-08-26T21:07:40Z</time>
      </trkpt>
      <trkpt lat="42.75934" lon="2.05397">
        <ele>1046.662</ele>
        <time>2015-08-26T21:08:00Z</time>
      </trkpt>
      <trkpt lat="42.75975" lon="2.05383">
        <ele>1044.637</ele>
        <time>2015-08-26T21:08:20Z</time>
      </trkpt>
      <trkpt lat="42.75988" lon="2.05372">
        <ele>1039.838</ele>
        <time>2015-08-26T21:08:40Z</time>
      </trkpt>
      <trkpt lat="42.76019" lon="2.05357">
        <ele>1036.483</ele>
        <time>2015-08-26T21:09:00Z</time>
      </trkpt>
      <trkpt lat="42.75992" lon="2.05349">
        <ele>1032.722</ele>
        <time>2015-08-26T21:09:20Z</time>
      </trkpt>
      <trkpt lat="42.75911" lon="2.05359">
        <ele>1028.385</ele>
        <time>2015-08-26T21:09:40Z</time>
      </trkpt>
      <trkpt lat="42.75859" lon="2.05403">
        <ele>1021.482</ele>
        <time>2015-08-26T21:10:00Z</time>
      </trkpt>
      <trkpt lat="42.75801" lon="2.05441">
        <ele>1022.176</ele>
        <time>2015-08-26T21:10:20Z</time>
      </trkpt>
      <trkpt lat="42.75743" lon="2.05445">
        <ele>1010.578</ele>
        <time>2015-08-26T21:10:40Z</time>
      </trkpt>
      <trkpt lat="42.75702" lon="2.05463">
        <ele>1001.533</ele>
        <time>2015-08-26T21:11:00Z</time>
      </trkpt>
      <trkpt lat="42.75684" lon="2.05481">
        <ele>997.326</ele>
        <time>2015-08-26T21:11:20Z</time>
      </trkpt>
      <trkpt lat="42.75654" lon="2.0553">
        <ele>987.208</ele>
        <time>2015-08-26T21:11:40Z</time>
      </trkpt>
      <trkpt lat="42.75635" lon="2.05552">
        <ele>982.073</ele>
        <time>2015-08-26T21:12:00Z</time>
      </trkpt>
      <trkpt lat="42.75618" lon="2.05588">
        <ele>977.598</ele>
        <time>2015-08-26T21:12:20Z</time>
      </trkpt>
      <trkpt lat="42.75594" lon="2.05624">
        <ele>977.399</ele>
        <time>2015-08-26T21:12:40Z</time>
      </trkpt>
      <trkpt lat="42.7558" lon="2.05674">
        <ele>977.074</ele>
        <time>2015-08-26T21:13:00Z</time>
      </trkpt>
      <trkpt lat="42.75573" lon="2.05737">
        <ele>975.453</ele>
        <time>2015-08-26T21:13:20Z</time>
      </trkpt>
      <trkpt lat="42.75547" lon="2.05839">
        <ele>975.146</ele>
        <time>2015-08-26T21:13:40Z</time>
      </trkpt>
      <trkpt lat="42.75533" lon="2.05885">
        <ele>973.933</ele>
        <time>2015-08-26T21:14:00Z</time>
      </trkpt>
      <trkpt lat="42.75475" lon="2.05977">
        <ele>978.567</ele>
        <time>2015-08-26T21:14:20Z</time>
      </trkpt>
      <trkpt lat="42.75469" lon="2.06">
        <ele>984.164</ele>
        <time>2015-08-26T21:14:40Z</time>
      </trkpt>
      <trkpt lat="42.75475" lon="2.06109">
        <ele>989.506</ele>
        <time>2015-08-26T21:15:00Z</time>
      </trkpt>
      <trkpt lat="42.75473" lon="2.0615">
        <ele>985.116</ele>
        <time>2015-08-26T21:15:20Z</time>
      </trkpt>
      <trkpt lat="42.75462" lon="2.06194">
        <ele>979.008</ele>
        <time>2015-08-26T21:15:40Z</time>
      </trkpt>
      <trkpt lat="42.75452" lon="2.06224">
        <ele>971.822</ele>
        <time>2015-08-26T21:16:00Z</time>
      </trkpt>
      <trkpt lat="42.75431" lon="2.06251">
        <ele>966.777</ele>
        <time>2015-08-26T21:16:20Z</time>
      </trkpt>
      <trkpt lat="42.7538" lon="2.06291">
        <ele>973.988</ele>
        <time>2015-08-26T21:16:40Z</time>
      </trkpt>
      <trkpt lat="42.75357" lon="2.06313">
        <ele>980.423</ele>
        <time>2015-08-26T21:17:00Z</time>
      </trkpt>
      <trkpt lat="42.75287" lon="2.06465">
        <ele>986.462</ele>
        <time>2015-08-26T21:17:20Z</time>
      </trkpt>
      <trkpt lat="42.75276" lon="2.06508">
        <ele>991.935</ele>
        <time>2015-08-26T21:17:40Z</time>
      </trkpt>
      <trkpt lat="42.75272" lon="2.06562">
        <ele>996.452</ele>
        <time>2015-08-26T21:18:00Z</time>
      </trkpt>
      <trkpt lat="42.7528" lon="2.06789">
        <ele>1004.786</ele>
        <time>2015-08-26T21:18:20Z</time>
      </trkpt>
      <trkpt lat="42.75273" lon="2.06864">
        <ele>1003.145</ele>
        <time>2015-08-26T21:18:40Z</time>
      </trkpt>
      <trkpt lat="42.7526" lon="2.06891">
        <ele>999.447</ele>
        <time>2015-08-26T21:19:00Z</time>
      </trkpt>
      <trkpt lat="42.75242" lon="2.06906">
        <ele>998.711</ele>
        <time>2015-08-26T21:19:20Z</time>
      </trkpt>
      <trkpt lat="42.75152" lon="2.06949">
        <ele>1012.508</ele>
        <time>2015-08-26T21:19:40Z</time>
      </trkpt>
      <trkpt lat="42.75133" lon="2.06965">
        <ele>1028.28</ele>
        <time>2015-08-26T21:20:00Z</time>
      </trkpt>
      <trkpt lat="42.75133" lon="2.06982">
        <ele>1032.175</ele>
        <time>2015-08-26T21:20:20Z</time>
      </trkpt>
      <trkpt lat="42.75154" lon="2.07024">
        <ele>1025.146</ele>
        <time>2015-08-26T21:20:40Z</time>
      </trkpt>
      <trkpt lat="42.75166" lon="2.07066">
        <ele>1021.881</ele>
        <time>2015-08-26T21:21:00Z</time>
      </trkpt>
      <trkpt lat="42.75165" lon="2.07103">
        <ele>1018.49</ele>
        <time>2015-08-26T21:21:20Z</time>
      </trkpt>
      <trkpt lat="42.75161" lon="2.07147">
        <ele>1016.313</ele>
        <time>2015-08-26T21:21:40Z</time>
      </trkpt>
      <trkpt lat="42.7514" lon="2.07201">
        <ele>1023.33</ele>
        <time>2015-08-26T21:22:00Z</time>
      </trkpt>
      <trkpt lat="42.75132" lon="2.07251">
        <ele>1008.284</ele>
        <time>2015-08-26T21:22:20Z</time>
      </trkpt>
      <trkpt lat="42.75114" lon="2.07258">
        <ele>1004.196</ele>
        <time>2015-08-26T21:22:40Z</time>
      </trkpt>
      <trkpt lat="42.75045" lon="2.07234">
        <ele>1013.131</ele>
        <time>2015-08-26T21:23:00Z</time>
      </trkpt>
      <trkpt lat="42.75012" lon="2.07231">
        <ele>1024.224</ele>
        <time>2015-08-26T21:23:20Z</time>
      </trkpt>
      <trkpt lat="42.7499" lon="2.07248">
        <ele>1033.608</ele>
        <time>2015-08-26T21:23:40Z</time>
      </trkpt>
      <trkpt lat="42.7498" lon="2.07278">
        <ele>1036.155</ele>
        <time>2015-08-26T21:24:00Z</time>
      </trkpt>
      <trkpt lat="42.74966" lon="2.07384">
        <ele>1041.39</ele>
        <time>2015-08-26T21:24:20Z</time>
      </trkpt>
      <trkpt lat="42.74942" lon="2.07508">
        <ele>1058.911</ele>
        <time>2015-08-26T21:24:40Z</time>
      </trkpt>
      <trkpt lat="42.74953" lon="2.0755">
        <ele>1058.696</ele>
        <time>2015-08-26T21:25:00Z</time>
      </trkpt>
      <trkpt lat="42.74954" lon="2.07583">
        <ele>1058.935</ele>
        <time>2015-08-26T21:25:20Z</time>
      </trkpt>
      <trkpt lat="42.74945" lon="2.07616">
        <ele>1055.928</ele>
        <time>2015-08-26T21:25:40Z</time>
      </trkpt>
      <trkpt lat="42.74823" lon="2.07774">
        <ele>1052.195</ele>
        <time>2015-08-26T21:26:00Z</time>
      </trkpt>
      <trkpt lat="42.74786" lon="2.07784">
        <ele>1052.179</ele>
        <time>2015-08-26T21:26:20Z</time>
      </trkpt>
      <trkpt lat="42.74652" lon="2.0777">
        <ele>1073.884</ele>
        <time>2015-08-26T21:26:40Z</time>
      </trkpt>
      <trkpt lat="42.74634" lon="2.07775">
        <ele>1078.007</ele>
        <time>2015-08-26T21:27:00Z</time>
      </trkpt>
      <trkpt lat="42.74604" lon="2.07799">
        <ele>1079.117</ele>
        <time>2015-08-26T21:27:20Z</time>
      </trkpt>
      <trkpt lat="42.74582" lon="2.07825">
        <ele>1080.008</ele>
        <time>2015-08-26T21:27:40Z</time>
      </trkpt>
      <trkpt lat="42.74567" lon="2.07839">
        <ele>1085.284</ele>
        <time>2015-08-26T21:28:00Z</time>
      </trkpt>
      <trkpt lat="42.7454" lon="2.07895">
        <ele>1086.019</ele>
        <time>2015-08-26T21:28:20Z</time>
      </trkpt>
      <trkpt lat="42.74535" lon="2.07937">
        <ele>1075.64</ele>
        <time>2015-08-26T21:28:40Z</time>
      </trkpt>
      <trkpt lat="42.74518" lon="2.07962">
        <ele>1076.575</ele>
        <time>2015-08-26T21:29:00Z</time>
      </trkpt>
      <trkpt lat="42.74489" lon="2.08023">
        <ele>1075.414</ele>
        <time>2015-08-26T21:29:20Z</time>
      </trkpt>
      <trkpt lat="42.74472" lon="2.0805">
        <ele>1079.527</ele>
        <time>2015-08-26T21:29:40Z</time>
      </trkpt>
      <trkpt lat="42.74468" lon="2.08102">
        <ele>1063.444</ele>
        <time>2015-08-26T21:30:00Z</time>
      </trkpt>
      <trkpt lat="42.74433" lon="2.08146">
        <ele>1053.788</ele>
        <time>2015-08-26T21:30:20Z</time>
      </trkpt>
      <trkpt lat="42.74419" lon="2.08143">
        <ele>1049.786</ele>
        <time>2015-08-26T21:30:40Z</time>
      </trkpt>
      <trkpt lat="42.74359" lon="2.08063">
        <ele>1047.36</ele>
        <time>2015-08-26T21:31:00Z</time>
      </trkpt>
      <trkpt lat="42.74335" lon="2.08063">
        <ele>1042.726</ele>
        <time>2015-08-26T21:31:20Z</time>
      </trkpt>
      <trkpt lat="42.74298" lon="2.08026">
        <ele>1036.608</ele>
        <time>2015-08-26T21:31:40Z</time>
      </trkpt>
      <trkpt lat="42.74267" lon="2.07977">
        <ele>1036.594</ele>
        <time>2015-08-26T21:32:00Z</time>
      </trkpt>
      <trkpt lat="42.74223" lon="2.07914">
        <ele>1036.099</ele>
        <time>2015-08-26T21:32:20Z</time>
      </trkpt>
      <trkpt lat="42.74183" lon="2.07866">
        <ele>1044.58</ele>
        <time>2015-08-26T21:32:40Z</time>
      </trkpt>
      <trkpt lat="42.74172" lon="2.07871">
        <ele>1044.715</ele>
        <time>2015-08-26T21:33:00Z</time>
      </trkpt>
      <trkpt lat="42.7414" lon="2.07916">
        <ele>1049.054</ele>
        <time>2015-08-26T21:33:20Z</time>
      </trkpt>
      <trkpt lat="42.74119" lon="2.07961">
        <ele>1052.827</ele>
        <time>2015-08-26T21:33:40Z</time>
      </trkpt>
      <trkpt lat="42.74093" lon="2.08049">
        <ele>1043.984</ele>
        <time>2015-08-26T21:34:00Z</time>
      </trkpt>
      <trkpt lat="42.74082" lon="2.08058">
        <ele>1046.638</ele>
        <time>2015-08-26T21:34:20Z</time>
      </trkpt>
      <trkpt lat="42.74063" lon="2.08064">
        <ele>1051.872</ele>
        <time>2015-08-26T21:34:40Z</time>
      </trkpt>
      <trkpt lat="42.74055" lon="2.08084">
        <ele>1051.413</ele>
        <time>2015-08-26T21:35:00Z</time>
      </trkpt>
      <trkpt lat="42.74027" lon="2.08218">
        <ele>1055.014</ele>
        <time>2015-08-26T21:35:20Z</time>
      </trkpt>
      <trkpt lat="42.74014" lon="2.0823">
        <ele>1052.208</ele>
        <time>2015-08-26T21:35:40Z</time>
      </trkpt>
      <trkpt lat="42.73973" lon="2.08234">
        <ele>1051.643</ele>
        <time>2015-08-26T21:36:00Z</time>
      </trkpt>
      <trkpt lat="42.73923" lon="2.08252">
        <ele>1050.758</ele>
        <time>2015-08-26T21:36:20Z</time>
      </trkpt>
      <trkpt lat="42.73879" lon="2.08281">
        <ele>1040.299</ele>
        <time>2015-08-26T21:36:40Z</time>
      </trkpt>
      <trkpt lat="42.73849" lon="2.08271">
        <ele>1033.224</ele>
        <time>2015-08-26T21:37:00Z</time>
      </trkpt>
      <trkpt lat="42.7381" lon="2.08234">
        <ele>1030.573</ele>
        <time>2015-08-26T21:37:20Z</time>
      </trkpt>
      <trkpt lat="42.73776" lon="2.0819">
        <ele>1034.926</ele>
        <time>2015-08-26T21:37:40Z</time>
      </trkpt>
      <trkpt lat="42.73754" lon="2.08177">
        <ele>1032.113</ele>
        <time>2015-08-26T21:38:00Z</time>
      </trkpt>
      <trkpt lat="42.73734" lon="2.08149">
        <ele>1031.457</ele>
        <time>2015-08-26T21:38:20Z</time>
      </trkpt>
      <trkpt lat="42.73691" lon="2.0805">
        <ele>1032.994</ele>
        <time>2015-08-26T21:38:40Z</time>
      </trkpt>
      <trkpt lat="42.73654" lon="2.07999">
        <ele>1030.557</ele>
        <time>2015-08-26T21:39:00Z</time>
      </trkpt>
      <trkpt lat="42.73633" lon="2.07956">
        <ele>1028.822</ele>
        <time>2015-08-26T21:39:20Z</time>
      </trkpt>
      <trkpt lat="42.73629" lon="2.07872">
        <ele>1037.508</ele>
        <time>2015-08-26T21:39:40Z</time>
      </trkpt>
      <trkpt lat="42.73608" lon="2.07774">
        <ele>1038.235</ele>
        <time>2015-08-26T21:40:00Z</time>
      </trkpt>
      <trkpt lat="42.73602" lon="2.07688">
        <ele>1048.18</ele>
        <time>2015-08-26T21:40:20Z</time>
      </trkpt>
      <trkpt lat="42.73594" lon="2.07657">
        <ele>1051.811</ele>
        <time>2015-08-26T21:40:40Z</time>
      </trkpt>
      <trkpt lat="42.73575" lon="2.07649">
        <ele>1050.096</ele>
        <time>2015-08-26T21:41:00Z</time>
      </trkpt>
      <trkpt lat="42.73501" lon="2.07654">
        <ele>1046.425</ele>
        <time>2015-08-26T21:41:20Z</time>
      </trkpt>
      <trkpt lat="42.73467" lon="2.07665">
        <ele>1037.118</ele>
        <time>2015-08-26T21:41:40Z</time>
      </trkpt>
      <trkpt lat="42.73441" lon="2.07649">
        <ele>1033.365</ele>
        <time>2015-08-26T21:42:00Z</time>
      </trkpt>
      <trkpt lat="42.73416" lon="2.07608">
        <ele>1032.489</ele>
        <time>2015-08-26T21:42:20Z</time>
      </trkpt>
      <trkpt lat="42.73385" lon="2.07517">
        <ele>1036.232</ele>
        <time>2015-08-26T21:42:40Z</time>
      </trkpt>
      <trkpt lat="42.73345" lon="2.07471">
        <ele>1023.692</ele>
        <time>2015-08-26T21:43:00Z</time>
      </trkpt>
      <trkpt lat="42.73333" lon="2.07426">
        <ele>1020.411</ele>
        <time>2015-08-26T21:43:20Z</time>
      </trkpt>
      <trkpt lat="42.73331" lon="2.07371">
        <ele>1021.808</ele>
        <time>2015-08-26T21:43:40Z</time>
      </trkpt>
      <trkpt lat="42.73321" lon="2.07318">
        <ele>1019.929</ele>
        <time>2015-08-26T21:44:00Z</time>
      </trkpt>
      <trkpt lat="42.73313" lon="2.07262">
        <ele>1021.464</ele>
        <time>2015-08-26T21:44:20Z</time>
      </trkpt>
      <trkpt lat="42.73295" lon="2.07246">
        <ele>1015.485</ele>
        <time>2015-08-26T21:44:40Z</time>
      </trkpt>
      <trkpt lat="42.73224" lon="2.0708">
        <ele>1006.33</ele>
        <time>2015-08-26T21:45:00Z</time>
      </trkpt>
      <trkpt lat="42.73129" lon="2.06886">
        <ele>1002.559</ele>
        <time>2015-08-26T21:45:20Z</time>
      </trkpt>
      <trkpt lat="42.73081" lon="2.06818">
        <ele>995.212</ele>
        <time>2015-08-26T21:45:40Z</time>
      </trkpt>
      <trkpt lat="42.73088" lon="2.06664">
        <ele>1018.699</ele>
        <time>2015-08-26T21:46:00Z</time>
      </trkpt>
      <trkpt lat="42.73072" lon="2.06464">
        <ele>1037.993</ele>
        <time>2015-08-26T21:46:20Z</time>
      </trkpt>
      <trkpt lat="42.73058" lon="2.06413">
        <ele>1037.412</ele>
        <time>2015-08-26T21:46:40Z</time>
      </trkpt>
      <trkpt lat="42.73059" lon="2.0634">
        <ele>1047.532</ele>
        <time>2015-08-26T21:47:00Z</time>
      </trkpt>
      <trkpt lat="42.73049" lon="2.06287">
        <ele>1049.805</ele>
        <time>2015-08-26T21:47:20Z</time>
      </trkpt>
      <trkpt lat="42.73059" lon="2.06173">
        <ele>1069.708</ele>
        <time>2015-08-26T21:47:40Z</time>
      </trkpt>
      <trkpt lat="42.73014" lon="2.06022">
        <ele>1086.197</ele>
        <time>2015-08-26T21:48:00Z</time>
      </trkpt>
      <trkpt lat="42.73049" lon="2.05972">
        <ele>1093.762</ele>
        <time>2015-08-26T21:48:20Z</time>
      </trkpt>
      <trkpt lat="42.73067" lon="2.0589">
        <ele>1105.123</ele>
        <time>2015-08-26T21:48:40Z</time>
      </trkpt>
      <trkpt lat="42.73056" lon="2.05825">
        <ele>1108.428</ele>
        <time>2015-08-26T21:49:00Z</time>
      </trkpt>
      <trkpt lat="42.73047" lon="2.0572">
        <ele>1119.937</ele>
        <time>2015-08-26T21:49:20Z</time>
      </trkpt>
      <trkpt lat="42.73013" lon="2.05652">
        <ele>1119.41</ele>
        <time>2015-08-26T21:49:40Z</time>
      </trkpt>
      <trkpt lat="42.7301" lon="2.05627">
        <ele>1121.777</ele>
        <time>2015-08-26T21:50:00Z</time>
      </trkpt>
      <trkpt lat="42.72976" lon="2.05553">
        <ele>1130.421</ele>
        <time>2015-08-26T21:50:20Z</time>
      </trkpt>
      <trkpt lat="42.7295" lon="2.05576">
        <ele>1134.027</ele>
        <time>2015-08-26T21:50:40Z</time>
      </trkpt>
      <trkpt lat="42.72925" lon="2.05611">
        <ele>1136.668</ele>
        <time>2015-08-26T21:51:00Z</time>
      </trkpt>
      <trkpt lat="42.72832" lon="2.0588">
        <ele>1146.214</ele>
        <time>2015-08-26T21:51:20Z</time>
      </trkpt>
      <trkpt lat="42.72794" lon="2.05946">
        <ele>1155.508</ele>
        <time>2015-08-26T21:51:40Z</time>
      </trkpt>
      <trkpt lat="42.72756" lon="2.05994">
        <ele>1165.438</ele>
        <time>2015-08-26T21:52:00Z</time>
      </trkpt>
      <trkpt lat="42.72709" lon="2.06044">
        <ele>1172.273</ele>
        <time>2015-08-26T21:52:20Z</time>
      </trkpt>
      <trkpt lat="42.72639" lon="2.06102">
        <ele>1182.284</ele>
        <time>2015-08-26T21:52:40Z</time>
      </trkpt>
      <trkpt lat="42.72626" lon="2.06051">
        <ele>1186.329</ele>
        <time>2015-08-26T21:53:00Z</time>
      </trkpt>
      <trkpt lat="42.7263" lon="2.06026">
        <ele>1190.788</ele>
        <time>2015-08-26T21:53:20Z</time>
      </trkpt>
      <trkpt lat="42.72629" lon="2.05985">
        <ele>1196.971</ele>
        <time>2015-08-26T21:53:40Z</time>
      </trkpt>
      <trkpt lat="42.72624" lon="2.05961">
        <ele>1200.788</ele>
        <time>2015-08-26T21:54:00Z</time>
      </trkpt>
      <trkpt lat="42.72629" lon="2.0593">
        <ele>1207.642</ele>
        <time>2015-08-26T21:54:20Z</time>
      </trkpt>
      <trkpt lat="42.7259" lon="2.05805">
        <ele>1224.358</ele>
        <time>2015-08-26T21:54:40Z</time>
      </trkpt>
      <trkpt lat="42.72587" lon="2.05779">
        <ele>1228.352</ele>
        <time>2015-08-26T21:55:00Z</time>
      </trkpt>
      <trkpt lat="42.72558" lon="2.05687">
        <ele>1238.317</ele>
        <time>2015-08-26T21:55:20Z</time>
      </trkpt>
      <trkpt lat="42.72541" lon="2.05649">
        <ele>1244.008</ele>
        <time>2015-08-26T21:55:40Z</time>
      </trkpt>
      <trkpt lat="42.7254" lon="2.05633">
        <ele>1247.631</ele>
        <time>2015-08-26T21:56:00Z</time>
      </trkpt>
      <trkpt lat="42.72565" lon="2.05611">
        <ele>1253.046</ele>
        <time>2015-08-26T21:56:20Z</time>
      </trkpt>
      <trkpt lat="42.72545" lon="2.05574">
        <ele>1257.087</ele>
        <time>2015-08-26T21:56:40Z</time>
      </trkpt>
      <trkpt lat="42.72547" lon="2.05524">
        <ele>1265.322</ele>
        <time>2015-08-26T21:57:00Z</time>
      </trkpt>
      <trkpt lat="42.7254" lon="2.05471">
        <ele>1273.381</ele>
        <time>2015-08-26T21:57:20Z</time>
      </trkpt>
      <trkpt lat="42.72498" lon="2.05386">
        <ele>1284.264</ele>
        <time>2015-08-26T21:57:40Z</time>
      </trkpt>
      <trkpt lat="42.72484" lon="2.05332">
        <ele>1289.811</ele>
        <time>2015-08-26T21:58:00Z</time>
      </trkpt>
      <trkpt lat="42.72443" lon="2.05268">
        <ele>1300.935</ele>
        <time>2015-08-26T21:58:20Z</time>
      </trkpt>
      <trkpt lat="42.72407" lon="2.05169">
        <ele>1312.381</ele>
        <time>2015-08-26T21:58:40Z</time>
      </trkpt>
      <trkpt lat="42.72355" lon="2.05088">
        <ele>1323.161</ele>
        <time>2015-08-26T21:59:00Z</time>
      </trkpt>
      <trkpt lat="42.72275" lon="2.05012">
        <ele>1339.217</ele>
        <time>2015-08-26T21:59:20Z</time>
      </trkpt>
      <trkpt lat="42.72204" lon="2.04905">
        <ele>1354.508</ele>
        <time>2015-08-26T21:59:40Z</time>
      </trkpt>
      <trkpt lat="42.72078" lon="2.04778">
        <ele>1378.684</ele>
        <time>2015-08-26T22:00:00Z</time>
      </trkpt>
      <trkpt lat="42.72033" lon="2.04724">
        <ele>1379.999</ele>
        <time>2015-08-26T22:00:20Z</time>
      </trkpt>
      <trkpt lat="42.71996" lon="2.04726">
        <ele>1379.02</ele>
        <time>2015-08-26T22:00:40Z</time>
      </trkpt>
      <trkpt lat="42.71906" lon="2.04632">
        <ele>1392.155</ele>
        <time>2015-08-26T22:01:00Z</time>
      </trkpt>
      <trkpt lat="42.71872" lon="2.04573">
        <ele>1405.814</ele>
        <time>2015-08-26T22:01:20Z</time>
      </trkpt>
      <trkpt lat="42.71754" lon="2.04501">
        <ele>1418.687</ele>
        <time>2015-08-26T22:01:40Z</time>
      </trkpt>
      <trkpt lat="42.71714" lon="2.04452">
        <ele>1420.014</ele>
        <time>2015-08-26T22:02:00Z</time>
      </trkpt>
      <trkpt lat="42.71637" lon="2.04413">
        <ele>1428.958</ele>
        <time>2015-08-26T22:02:20Z</time>
      </trkpt>
      <trkpt lat="42.71618" lon="2.04388">
        <ele>1429.783</ele>
        <time>2015-08-26T22:02:40Z</time>
      </trkpt>
      <trkpt lat="42.71382" lon="2.04235">
        <ele>1463.325</ele>
        <time>2015-08-26T22:03:00Z</time>
      </trkpt>
      <trkpt lat="42.71291" lon="2.04184">
        <ele>1476.317</ele>
        <time>2015-08-26T22:03:20Z</time>
      </trkpt>
      <trkpt lat="42.71241" lon="2.04159">
        <ele>1482.808</ele>
        <time>2015-08-26T22:03:40Z</time>
      </trkpt>
      <trkpt lat="42.71129" lon="2.04065">
        <ele>1507.264</ele>
        <time>2015-08-26T22:04:00Z</time>
      </trkpt>
      <trkpt lat="42.71108" lon="2.04084">
        <ele>1518.039</ele>
        <time>2015-08-26T22:04:20Z</time>
      </trkpt>
      <trkpt lat="42.71088" lon="2.04081">
        <ele>1523.39</ele>
        <time>2015-08-26T22:04:40Z</time>
      </trkpt>
      <trkpt lat="42.71033" lon="2.04027">
        <ele>1528.115</ele>
        <time>2015-08-26T22:05:00Z</time>
      </trkpt>
      <trkpt lat="42.70957" lon="2.0398">
        <ele>1543.564</ele>
        <time>2015-08-26T22:05:20Z</time>
      </trkpt>
      <trkpt lat="42.70863" lon="2.03883">
        <ele>1557.537</ele>
        <time>2015-08-26T22:05:40Z</time>
      </trkpt>
      <trkpt lat="42.70787" lon="2.03799">
        <ele>1569.674</ele>
        <time>2015-08-26T22:06:00Z</time>
      </trkpt>
      <trkpt lat="42.70719" lon="2.03774">
        <ele>1587.128</ele>
        <time>2015-08-26T22:06:20Z</time>
      </trkpt>
      <trkpt lat="42.70662" lon="2.03762">
        <ele>1597.732</ele>
        <time>2015-08-26T22:06:40Z</time>
      </trkpt>
      <trkpt lat="42.70599" lon="2.03757">
        <ele>1601.792</ele>
        <time>2015-08-26T22:07:00Z</time>
      </trkpt>
      <trkpt lat="42.70576" lon="2.0377">
        <ele>1603.211</ele>
        <time>2015-08-26T22:07:20Z</time>
      </trkpt>
      <trkpt lat="42.70546" lon="2.03794">
        <ele>1605.908</ele>
        <time>2015-08-26T22:07:40Z</time>
      </trkpt>
      <trkpt lat="42.70491" lon="2.03815">
        <ele>1610.619</ele>
        <time>2015-08-26T22:08:00Z</time>
      </trkpt>
      <trkpt lat="42.70378" lon="2.03828">
        <ele>1618.544</ele>
        <time>2020-12-02T05:10:48Z</time>
      </trkpt>
      <trkpt lat="42.7034" lon="2.0381">
        <ele>1621.455</ele>
        <time>2020-12-02T05:11:08Z</time>
      </trkpt>
      <trkpt lat="42.70278" lon="2.03829">
        <ele>1627.05</ele>
        <time>2015-08-26T22:09:20Z</time>
      </trkpt>
      <trkpt lat="42.70262" lon="2.03822">
        <ele>1629.079</ele>
        <time>2015-08-26T22:09:40Z</time>
      </trkpt>
      <trkpt lat="42.70228" lon="2.03822">
        <ele>1633.732</ele>
        <time>2015-08-26T22:10:00Z</time>
      </trkpt>
      <trkpt lat="42.70209" lon="2.03831">
        <ele>1636.469</ele>
        <time>2015-08-26T22:10:20Z</time>
      </trkpt>
      <trkpt lat="42.70195" lon="2.03845">
        <ele>1638.833</ele>
        <time>2015-08-26T22:10:40Z</time>
      </trkpt>
      <trkpt lat="42.70169" lon="2.03832">
        <ele>1642.515</ele>
        <time>2015-08-26T22:11:00Z</time>
      </trkpt>
      <trkpt lat="42.70145" lon="2.03826">
        <ele>1646.065</ele>
        <time>2015-08-26T22:11:20Z</time>
      </trkpt>
      <trkpt lat="42.70097" lon="2.038">
        <ele>1651.711</ele>
        <time>2015-08-26T22:11:40Z</time>
      </trkpt>
      <trkpt lat="42.70034" lon="2.03733">
        <ele>1659.808</ele>
        <time>2015-08-26T22:12:00Z</time>
      </trkpt>
      <trkpt lat="42.69978" lon="2.03705">
        <ele>1669.437</ele>
        <time>2015-08-26T22:12:20Z</time>
      </trkpt>
      <trkpt lat="42.69934" lon="2.0366">
        <ele>1679.172</ele>
        <time>2015-08-26T22:12:40Z</time>
      </trkpt>
      <trkpt lat="42.69919" lon="2.03603">
        <ele>1683.453</ele>
        <time>2015-08-26T22:13:00Z</time>
      </trkpt>
      <trkpt lat="42.69742" lon="2.03422">
        <ele>1708.018</ele>
        <time>2019-03-29T15:14:02Z</time>
      </trkpt>
      <trkpt lat="42.69532" lon="2.03399">
        <ele>1727.067</ele>
        <time>2019-03-29T15:14:22Z</time>
      </trkpt>
      <trkpt lat="42.69455" lon="2.03308">
        <ele>1730.84</ele>
        <time>2019-03-29T15:14:42Z</time>
      </trkpt>
      <trkpt lat="42.69356" lon="2.03243">
        <ele>1731.057</ele>
        <time>2015-08-26T22:16:40Z</time>
      </trkpt>
      <trkpt lat="42.69303" lon="2.03161">
        <ele>1729.371</ele>
        <time>2015-08-26T22:17:00Z</time>
      </trkpt>
      <trkpt lat="42.6929" lon="2.03014">
        <ele>1734.328</ele>
        <time>2015-08-26T22:17:20Z</time>
      </trkpt>
      <trkpt lat="42.69291" lon="2.02932">
        <ele>1737.289</ele>
        <time>2015-08-26T22:17:40Z</time>
      </trkpt>
      <trkpt lat="42.69305" lon="2.02897">
        <ele>1738.617</ele>
        <time>2015-08-26T22:18:00Z</time>
      </trkpt>
      <trkpt lat="42.69306" lon="2.02854">
        <ele>1743.208</ele>
        <time>2015-08-26T22:18:20Z</time>
      </trkpt>
      <trkpt lat="42.69329" lon="2.02781">
        <ele>1751.828</ele>
        <time>2015-08-26T22:18:40Z</time>
      </trkpt>
      <trkpt lat="42.69346" lon="2.02746">
        <ele>1754.433</ele>
        <time>2015-08-26T22:19:00Z</time>
      </trkpt>
      <trkpt lat="42.69368" lon="2.02714">
        <ele>1756.584</ele>
        <time>2015-08-26T22:19:20Z</time>
      </trkpt>
      <trkpt lat="42.69412" lon="2.02665">
        <ele>1757.719</ele>
        <time>2015-08-26T22:19:40Z</time>
      </trkpt>
      <trkpt lat="42.69432" lon="2.0263">
        <ele>1759.958</ele>
        <time>2015-08-26T22:20:00Z</time>
      </trkpt>
      <trkpt lat="42.69399" lon="2.02582">
        <ele>1771.541</ele>
        <time>2015-08-26T22:20:20Z</time>
      </trkpt>
      <trkpt lat="42.69395" lon="2.02543">
        <ele>1770.818</ele>
        <time>2015-08-26T22:20:40Z</time>
      </trkpt>
      <trkpt lat="42.69376" lon="2.02506">
        <ele>1771.572</ele>
        <time>2015-08-26T22:21:00Z</time>
      </trkpt>
      <trkpt lat="42.6935" lon="2.02479">
        <ele>1776.931</ele>
        <time>2015-08-26T22:21:20Z</time>
      </trkpt>
      <trkpt lat="42.69312" lon="2.02378">
        <ele>1771.061</ele>
        <time>2015-08-26T22:21:40Z</time>
      </trkpt>
      <trkpt lat="42.69271" lon="2.02295">
        <ele>1766.307</ele>
        <time>2015-08-26T22:22:00Z</time>
      </trkpt>
      <trkpt lat="42.69236" lon="2.0225">
        <ele>1758.508</ele>
        <time>2015-08-26T22:22:20Z</time>
      </trkpt>
      <trkpt lat="42.69201" lon="2.02227">
        <ele>1757.629</ele>
        <time>2015-08-26T22:22:40Z</time>
      </trkpt>
      <trkpt lat="42.69095" lon="2.02195">
        <ele>1765.214</ele>
        <time>2015-08-26T22:23:00Z</time>
      </trkpt>
      <trkpt lat="42.69085" lon="2.02138">
        <ele>1769.265</ele>
        <time>2015-08-26T22:23:20Z</time>
      </trkpt>
      <trkpt lat="42.6907" lon="2.02098">
        <ele>1778.58</ele>
        <time>2015-08-26T22:23:40Z</time>
      </trkpt>
      <trkpt lat="42.69041" lon="2.02049">
        <ele>1784.169</ele>
        <time>2015-08-26T22:24:00Z</time>
      </trkpt>
      <trkpt lat="42.69007" lon="2.0201">
        <ele>1784.252</ele>
        <time>2015-08-26T22:24:20Z</time>
      </trkpt>
      <trkpt lat="42.68936" lon="2.02003">
        <ele>1785.739</ele>
        <time>2015-08-26T22:24:40Z</time>
      </trkpt>
      <trkpt lat="42.68905" lon="2.01979">
        <ele>1788.583</ele>
        <time>2015-08-26T22:25:00Z</time>
      </trkpt>
      <trkpt lat="42.68818" lon="2.01963">
        <ele>1809.198</ele>
        <time>2015-08-26T22:25:20Z</time>
      </trkpt>
      <trkpt lat="42.68788" lon="2.01938">
        <ele>1810.315</ele>
        <time>2015-08-26T22:25:40Z</time>
      </trkpt>
      <trkpt lat="42.68629" lon="2.01696">
        <ele>1876.526</ele>
        <time>2015-08-26T22:26:00Z</time>
      </trkpt>
      <trkpt lat="42.68615" lon="2.01617">
        <ele>1888.208</ele>
        <time>2015-08-26T22:26:20Z</time>
      </trkpt>
      <trkpt lat="42.68556" lon="2.0157">
        <ele>1891.515</ele>
        <time>2015-08-26T22:26:40Z</time>
      </trkpt>
      <trkpt lat="42.68533" lon="2.01525">
        <ele>1898.68</ele>
        <time>2015-08-26T22:27:00Z</time>
      </trkpt>
      <trkpt lat="42.68506" lon="2.01493">
        <ele>1902.881</ele>
        <time>2015-08-26T22:27:20Z</time>
      </trkpt>
      <trkpt lat="42.68465" lon="2.01486">
        <ele>1908.886</ele>
        <time>2015-08-26T22:27:40Z</time>
      </trkpt>
      <trkpt lat="42.68399" lon="2.01491">
        <ele>1928.585</ele>
        <time>2015-08-26T22:28:00Z</time>
      </trkpt>
      <trkpt lat="42.68376" lon="2.01485">
        <ele>1933.858</ele>
        <time>2015-08-26T22:28:20Z</time>
      </trkpt>
      <trkpt lat="42.68356" lon="2.01456">
        <ele>1938.065</ele>
        <time>2015-08-26T22:28:40Z</time>
      </trkpt>
      <trkpt lat="42.68317" lon="2.01425">
        <ele>1941.439</ele>
        <time>2015-08-26T22:29:00Z</time>
      </trkpt>
      <trkpt lat="42.68295" lon="2.01402">
        <ele>1945.012</ele>
        <time>2015-08-26T22:29:20Z</time>
      </trkpt>
      <trkpt lat="42.68228" lon="2.0136">
        <ele>1955.132</ele>
        <time>2015-08-26T22:29:40Z</time>
      </trkpt>
      <trkpt lat="42.68217" lon="2.01347">
        <ele>1957.505</ele>
        <time>2015-08-26T22:30:00Z</time>
      </trkpt>
      <trkpt lat="42.6819" lon="2.01329">
        <ele>1963.308</ele>
        <time>2015-08-26T22:30:20Z</time>
      </trkpt>
      <trkpt lat="42.68176" lon="2.01307">
        <ele>1971.187</ele>
        <time>2015-08-26T22:30:40Z</time>
      </trkpt>
      <trkpt lat="42.68153" lon="2.01298">
        <ele>1977.272</ele>
        <time>2015-08-26T22:31:00Z</time>
      </trkpt>
      <trkpt lat="42.68109" lon="2.01272">
        <ele>1984.163</ele>
        <time>2015-08-26T22:31:20Z</time>
      </trkpt>
      <trkpt lat="42.68078" lon="2.01204">
        <ele>1989.788</ele>
        <time>2015-08-26T22:31:40Z</time>
      </trkpt>
      <trkpt lat="42.68072" lon="2.01172">
        <ele>1992.847</ele>
        <time>2015-08-26T22:32:00Z</time>
      </trkpt>
      <trkpt lat="42.68043" lon="2.01116">
        <ele>1998.92</ele>
        <time>2015-08-26T22:32:20Z</time>
      </trkpt>
      <trkpt lat="42.68026" lon="2.01115">
        <ele>1998.197</ele>
        <time>2015-08-26T22:32:40Z</time>
      </trkpt>
      <trkpt lat="42.6801" lon="2.01079">
        <ele>2010.061</ele>
        <time>2015-08-26T22:33:00Z</time>
      </trkpt>
      <trkpt lat="42.67997" lon="2.01065">
        <ele>2012.763</ele>
        <time>2015-08-26T22:33:20Z</time>
      </trkpt>
      <trkpt lat="42.67984" lon="2.01068">
        <ele>2016.444</ele>
        <time>2015-08-26T22:33:40Z</time>
      </trkpt>
      <trkpt lat="42.67971" lon="2.01036">
        <ele>2020.918</ele>
        <time>2015-08-26T22:34:00Z</time>
      </trkpt>
      <trkpt lat="42.67939" lon="2.01001">
        <ele>2031.108</ele>
        <time>2015-08-26T22:34:20Z</time>
      </trkpt>
      <trkpt lat="42.6791" lon="2.00942">
        <ele>2041.672</ele>
        <time>2015-08-26T22:34:40Z</time>
      </trkpt>
      <trkpt lat="42.67894" lon="2.00932">
        <ele>2038.227</ele>
        <time>2015-08-26T22:35:00Z</time>
      </trkpt>
      <trkpt lat="42.6788" lon="2.00903">
        <ele>2037.858</ele>
        <time>2015-08-26T22:35:20Z</time>
      </trkpt>
      <trkpt lat="42.67784" lon="2.00808">
        <ele>2045.033</ele>
        <time>2015-08-26T22:35:40Z</time>
      </trkpt>
      <trkpt lat="42.67771" lon="2.0077">
        <ele>2051.162</ele>
        <time>2015-08-26T22:36:00Z</time>
      </trkpt>
      <trkpt lat="42.67756" lon="2.00754">
        <ele>2053.915</ele>
        <time>2015-08-26T22:36:20Z</time>
      </trkpt>
      <trkpt lat="42.67731" lon="2.0076">
        <ele>2056.992</ele>
        <time>2015-08-26T22:36:40Z</time>
      </trkpt>
      <trkpt lat="42.67718" lon="2.00739">
        <ele>2063.986</ele>
        <time>2015-08-26T22:37:00Z</time>
      </trkpt>
      <trkpt lat="42.67701" lon="2.00695">
        <ele>2080.439</ele>
        <time>2015-08-26T22:37:20Z</time>
      </trkpt>
      <trkpt lat="42.67649" lon="2.00632">
        <ele>2114.701</ele>
        <time>2015-08-26T22:37:40Z</time>
      </trkpt>
      <trkpt lat="42.67583" lon="2.00578">
        <ele>2143.021</ele>
        <time>2015-08-26T22:38:00Z</time>
      </trkpt>
      <trkpt lat="42.67545" lon="2.00532">
        <ele>2158.208</ele>
        <time>2015-08-26T22:38:20Z</time>
      </trkpt>
      <trkpt lat="42.67508" lon="2.00473">
        <ele>2173.589</ele>
        <time>2015-08-26T22:38:40Z</time>
      </trkpt>
      <trkpt lat="42.67498" lon="2.00434">
        <ele>2176.264</ele>
        <time>2015-08-26T22:39:00Z</time>
      </trkpt>
      <trkpt lat="42.67483" lon="2.0039">
        <ele>2181.915</ele>
        <time>2015-08-26T22:39:20Z</time>
      </trkpt>
      <trkpt lat="42.6747" lon="2.00328">
        <ele>2191.25</ele>
        <time>2015-08-26T22:39:40Z</time>
      </trkpt>
      <trkpt lat="42.67475" lon="2.00304">
        <ele>2191.469</ele>
        <time>2015-08-26T22:40:00Z</time>
      </trkpt>
      <trkpt lat="42.67472" lon="2.0028">
        <ele>2198.982</ele>
        <time>2015-08-26T22:40:20Z</time>
      </trkpt>
      <trkpt lat="42.67476" lon="2.00233">
        <ele>2204.389</ele>
        <time>2019-03-29T15:39:02Z</time>
      </trkpt>
      <trkpt lat="42.67459" lon="2.00197">
        <ele>2228.383</ele>
        <time>2019-03-29T15:39:22Z</time>
      </trkpt>
      <trkpt lat="42.67462" lon="2.00171">
        <ele>2236.374</ele>
        <time>2020-12-02T05:41:08Z</time>
      </trkpt>
      <trkpt lat="42.67452" lon="2.00157">
        <ele>2247.356</ele>
        <time>2020-12-02T05:41:28Z</time>
      </trkpt>
      <trkpt lat="42.67442" lon="2.00156">
        <ele>2252.921</ele>
        <time>2020-12-02T05:41:48Z</time>
      </trkpt>
      <trkpt lat="42.67435" lon="2.00125">
        <ele>2259.008</ele>
        <time>2020-12-02T05:42:08Z</time>
      </trkpt>
      <trkpt lat="42.67413" lon="2.00131">
        <ele>2273.853</ele>
        <time>2020-12-02T05:42:28Z</time>
      </trkpt>
      <trkpt lat="42.67381" lon="2.00083">
        <ele>2260.098</ele>
        <time>2020-12-02T05:42:48Z</time>
      </trkpt>
      <trkpt lat="42.67278" lon="2.00041">
        <ele>2253.849</ele>
        <time>2020-12-02T05:43:08Z</time>
      </trkpt>
      <trkpt lat="42.67209" lon="2.00041">
        <ele>2227.124</ele>
        <time>2020-12-02T05:43:28Z</time>
      </trkpt>
      <trkpt lat="42.67184" lon="2.00013">
        <ele>2202.813</ele>
        <time>2020-12-02T05:43:48Z</time>
      </trkpt>
      <trkpt lat="42.67173" lon="1.99993">
        <ele>2189.136</ele>
        <time>2020-12-02T05:44:08Z</time>
      </trkpt>
      <trkpt lat="42.6719" lon="1.99969">
        <ele>2187.933</ele>
        <time>2020-12-02T05:44:28Z</time>
      </trkpt>
      <trkpt lat="42.67179" lon="1.99959">
        <ele>2179.267</ele>
        <time>2020-12-02T05:44:48Z</time>
      </trkpt>
      <trkpt lat="42.67185" lon="1.99935">
        <ele>2174.363</ele>
        <time>2020-12-02T05:45:08Z</time>
      </trkpt>
      <trkpt lat="42.67142" lon="1.99872">
        <ele>2135.744</ele>
        <time>2020-12-02T05:45:28Z</time>
      </trkpt>
      <trkpt lat="42.67145" lon="1.9982">
        <ele>2123.518</ele>
        <time>2020-12-02T05:45:48Z</time>
      </trkpt>
      <trkpt lat="42.67161" lon="1.99742">
        <ele>2111.008</ele>
        <time>2020-12-02T05:46:08Z</time>
      </trkpt>
      <trkpt lat="42.67186" lon="1.99674">
        <ele>2102.852</ele>
        <time>2020-12-02T05:46:28Z</time>
      </trkpt>
      <trkpt lat="42.67215" lon="1.9955">
        <ele>2097.977</ele>
        <time>2020-12-02T05:46:48Z</time>
      </trkpt>
      <trkpt lat="42.67217" lon="1.99494">
        <ele>2093.538</ele>
        <time>2020-12-02T05:47:08Z</time>
      </trkpt>
      <trkpt lat="42.67228" lon="1.9946">
        <ele>2085.623</ele>
        <time>2020-12-02T05:47:28Z</time>
      </trkpt>
      <trkpt lat="42.67228" lon="1.99428">
        <ele>2079.972</ele>
        <time>2019-03-29T15:44:42Z</time>
      </trkpt>
      <trkpt lat="42.67197" lon="1.99407">
        <ele>2064.125</ele>
        <time>2019-03-29T15:45:02Z</time>
      </trkpt>
      <trkpt lat="42.67185" lon="1.99423">
        <ele>2064.722</ele>
        <time>2019-03-29T15:45:22Z</time>
      </trkpt>
      <trkpt lat="42.67138" lon="1.99415">
        <ele>2050.316</ele>
        <time>2019-03-29T15:45:42Z</time>
      </trkpt>
      <trkpt lat="42.67095" lon="1.99365">
        <ele>2035.354</ele>
        <time>2019-03-29T15:46:02Z</time>
      </trkpt>
      <trkpt lat="42.67058" lon="1.99358">
        <ele>2030.056</ele>
        <time>2019-03-29T15:46:22Z</time>
      </trkpt>
      <trkpt lat="42.67001" lon="1.99306">
        <ele>2025.911</ele>
        <time>2019-03-29T15:46:42Z</time>
      </trkpt>
      <trkpt lat="42.66964" lon="1.99312">
        <ele>2019.708</ele>
        <time>2020-12-02T05:50:08Z</time>
      </trkpt>
      <trkpt lat="42.66969" lon="1.99288">
        <ele>2017.451</ele>
        <time>2019-03-29T15:47:22Z</time>
      </trkpt>
      <trkpt lat="42.66966" lon="1.9922">
        <ele>2010.986</ele>
        <time>2015-08-26T22:51:00Z</time>
      </trkpt>
      <trkpt lat="42.66952" lon="1.99187">
        <ele>2008.397</ele>
        <time>2015-08-26T22:51:20Z</time>
      </trkpt>
      <trkpt lat="42.66915" lon="1.99156">
        <ele>2002.822</ele>
        <time>2015-08-26T22:51:40Z</time>
      </trkpt>
      <trkpt lat="42.66887" lon="1.99154">
        <ele>1999.931</ele>
        <time>2015-08-26T22:52:00Z</time>
      </trkpt>
      <trkpt lat="42.66804" lon="1.99059">
        <ele>1960.554</ele>
        <time>2015-08-26T22:52:20Z</time>
      </trkpt>
      <trkpt lat="42.66795" lon="1.99042">
        <ele>1956.181</ele>
        <time>2015-08-26T22:52:40Z</time>
      </trkpt>
      <trkpt lat="42.66782" lon="1.99036">
        <ele>1956.535</ele>
        <time>2015-08-26T22:53:00Z</time>
      </trkpt>
      <trkpt lat="42.66781" lon="1.99009">
        <ele>1945.885</ele>
        <time>2015-08-26T22:53:20Z</time>
      </trkpt>
      <trkpt lat="42.66737" lon="1.98959">
        <ele>1931.689</ele>
        <time>2015-08-26T22:53:40Z</time>
      </trkpt>
      <trkpt lat="42.6674" lon="1.98914">
        <ele>1916.517</ele>
        <time>2015-08-26T22:54:00Z</time>
      </trkpt>
      <trkpt lat="42.66738" lon="1.98895">
        <ele>1913.908</ele>
        <time>2015-08-26T22:54:20Z</time>
      </trkpt>
      <trkpt lat="42.66716" lon="1.98891">
        <ele>1917.594</ele>
        <time>2015-08-26T22:54:40Z</time>
      </trkpt>
      <trkpt lat="42.66694" lon="1.98872">
        <ele>1921.649</ele>
        <time>2015-08-26T22:55:00Z</time>
      </trkpt>
      <trkpt lat="42.66679" lon="1.98812">
        <ele>1920.93</ele>
        <time>2015-08-26T22:55:20Z</time>
      </trkpt>
      <trkpt lat="42.6668" lon="1.98771">
        <ele>1913.755</ele>
        <time>2015-08-26T22:55:40Z</time>
      </trkpt>
      <trkpt lat="42.66663" lon="1.98745">
        <ele>1911.954</ele>
        <time>2015-08-26T22:56:00Z</time>
      </trkpt>
      <trkpt lat="42.6667" lon="1.98719">
        <ele>1903.367</ele>
        <time>2015-08-26T22:56:20Z</time>
      </trkpt>
      <trkpt lat="42.66649" lon="1.98663">
        <ele>1900.514</ele>
        <time>2015-08-26T22:56:40Z</time>
      </trkpt>
      <trkpt lat="42.66632" lon="1.98641">
        <ele>1902.248</ele>
        <time>2015-08-26T22:57:00Z</time>
      </trkpt>
      <trkpt lat="42.66616" lon="1.98552">
        <ele>1898.517</ele>
        <time>2015-08-26T22:57:20Z</time>
      </trkpt>
      <trkpt lat="42.66604" lon="1.98528">
        <ele>1895.887</ele>
        <time>2015-08-26T22:57:40Z</time>
      </trkpt>
      <trkpt lat="42.66565" lon="1.985">
        <ele>1891.115</ele>
        <time>2015-08-26T22:58:00Z</time>
      </trkpt>
      <trkpt lat="42.66554" lon="1.98513">
        <ele>1891.708</ele>
        <time>2015-08-26T22:58:20Z</time>
      </trkpt>
      <trkpt lat="42.66543" lon="1.98516">
        <ele>1891.257</ele>
        <time>2015-08-26T22:58:40Z</time>
      </trkpt>
      <trkpt lat="42.66538" lon="1.985">
        <ele>1886.362</ele>
        <time>2015-08-26T22:59:00Z</time>
      </trkpt>
      <trkpt lat="42.66516" lon="1.98487">
        <ele>1881.173</ele>
        <time>2015-08-26T22:59:20Z</time>
      </trkpt>
      <trkpt lat="42.66505" lon="1.98489">
        <ele>1878.648</ele>
        <time>2015-08-26T22:59:40Z</time>
      </trkpt>
      <trkpt lat="42.66498" lon="1.98474">
        <ele>1874.227</ele>
        <time>2015-08-26T23:00:00Z</time>
      </trkpt>
      <trkpt lat="42.66453" lon="1.98421">
        <ele>1864.02</ele>
        <time>2015-08-26T23:00:20Z</time>
      </trkpt>
      <trkpt lat="42.66351" lon="1.9835">
        <ele>1816.487</ele>
        <time>2015-08-26T23:00:40Z</time>
      </trkpt>
      <trkpt lat="42.66305" lon="1.98326">
        <ele>1794.691</ele>
        <time>2015-08-26T23:01:00Z</time>
      </trkpt>
      <trkpt lat="42.66296" lon="1.983">
        <ele>1792.334</ele>
        <time>2015-08-26T23:01:20Z</time>
      </trkpt>
      <trkpt lat="42.66283" lon="1.98162">
        <ele>1788.155</ele>
        <time>2015-08-26T23:01:40Z</time>
      </trkpt>
      <trkpt lat="42.66275" lon="1.98129">
        <ele>1782.71</ele>
        <time>2015-08-26T23:02:00Z</time>
      </trkpt>
      <trkpt lat="42.66291" lon="1.98004">
        <ele>1772.608</ele>
        <time>2015-08-26T23:02:20Z</time>
      </trkpt>
      <trkpt lat="42.66301" lon="1.97993">
        <ele>1771.369</ele>
        <time>2015-08-26T23:02:40Z</time>
      </trkpt>
      <trkpt lat="42.66297" lon="1.97943">
        <ele>1759.834</ele>
        <time>2015-08-26T23:03:00Z</time>
      </trkpt>
      <trkpt lat="42.663" lon="1.97914">
        <ele>1747.525</ele>
        <time>2015-08-26T23:03:20Z</time>
      </trkpt>
      <trkpt lat="42.66308" lon="1.97905">
        <ele>1742.17</ele>
        <time>2015-08-26T23:03:40Z</time>
      </trkpt>
      <trkpt lat="42.66303" lon="1.9785">
        <ele>1724.839</ele>
        <time>2015-08-26T23:04:00Z</time>
      </trkpt>
      <trkpt lat="42.66315" lon="1.9785">
        <ele>1722.252</ele>
        <time>2015-08-26T23:04:20Z</time>
      </trkpt>
      <trkpt lat="42.6633" lon="1.97847">
        <ele>1719.049</ele>
        <time>2015-08-26T23:04:40Z</time>
      </trkpt>
      <trkpt lat="42.66367" lon="1.97849">
        <ele>1715.053</ele>
        <time>2015-08-26T23:05:00Z</time>
      </trkpt>
      <trkpt lat="42.66417" lon="1.97854">
        <ele>1715.079</ele>
        <time>2015-08-26T23:05:20Z</time>
      </trkpt>
      <trkpt lat="42.66433" lon="1.97838">
        <ele>1715.105</ele>
        <time>2015-08-26T23:05:40Z</time>
      </trkpt>
      <trkpt lat="42.6646" lon="1.97794">
        <ele>1715.525</ele>
        <time>2015-08-26T23:06:00Z</time>
      </trkpt>
      <trkpt lat="42.66466" lon="1.97763">
        <ele>1716.908</ele>
        <time>2015-08-26T23:06:20Z</time>
      </trkpt>
      <trkpt lat="42.66495" lon="1.97722">
        <ele>1702.663</ele>
        <time>2015-08-26T23:06:40Z</time>
      </trkpt>
      <trkpt lat="42.66508" lon="1.97673">
        <ele>1690.318</ele>
        <time>2015-08-26T23:07:00Z</time>
      </trkpt>
      <trkpt lat="42.66517" lon="1.97659">
        <ele>1684.319</ele>
        <time>2015-08-26T23:07:20Z</time>
      </trkpt>
      <trkpt lat="42.66532" lon="1.97609">
        <ele>1668.614</ele>
        <time>2015-08-26T23:07:40Z</time>
      </trkpt>
      <trkpt lat="42.66565" lon="1.97571">
        <ele>1652.633</ele>
        <time>2015-08-26T23:08:00Z</time>
      </trkpt>
      <trkpt lat="42.66599" lon="1.97565">
        <ele>1653.926</ele>
        <time>2015-08-26T23:08:20Z</time>
      </trkpt>
      <trkpt lat="42.66662" lon="1.97434">
        <ele>1626.223</ele>
        <time>2015-08-26T23:08:40Z</time>
      </trkpt>
      <trkpt lat="42.66658" lon="1.97401">
        <ele>1612.737</ele>
        <time>2015-08-26T23:09:00Z</time>
      </trkpt>
      <trkpt lat="42.66643" lon="1.97382">
        <ele>1599.017</ele>
        <time>2015-08-26T23:09:20Z</time>
      </trkpt>
      <trkpt lat="42.66651" lon="1.97348">
        <ele>1591.887</ele>
        <time>2015-08-26T23:09:40Z</time>
      </trkpt>
      <trkpt lat="42.66613" lon="1.97332">
        <ele>1573.215</ele>
        <time>2015-08-26T23:10:00Z</time>
      </trkpt>
      <trkpt lat="42.66578" lon="1.97325">
        <ele>1557.708</ele>
        <time>2015-08-26T23:10:20Z</time>
      </trkpt>
      <trkpt lat="42.66539" lon="1.97332">
        <ele>1546.377</ele>
        <time>2015-08-26T23:10:40Z</time>
      </trkpt>
      <trkpt lat="42.6648" lon="1.97368">
        <ele>1549.692</ele>
        <time>2015-08-26T23:11:00Z</time>
      </trkpt>
      <trkpt lat="42.66429" lon="1.97359">
        <ele>1550.763</ele>
        <time>2015-08-26T23:11:20Z</time>
      </trkpt>
      <trkpt lat="42.66371" lon="1.97362">
        <ele>1563.758</ele>
        <time>2015-08-26T23:11:40Z</time>
      </trkpt>
      <trkpt lat="42.66347" lon="1.97349">
        <ele>1573.337</ele>
        <time>2015-08-26T23:12:00Z</time>
      </trkpt>
      <trkpt lat="42.66323" lon="1.97266">
        <ele>1564.72</ele>
        <time>2015-08-26T23:12:20Z</time>
      </trkpt>
      <trkpt lat="42.66248" lon="1.97214">
        <ele>1539.267</ele>
        <time>2015-08-26T23:12:40Z</time>
      </trkpt>
      <trkpt lat="42.66202" lon="1.97171">
        <ele>1511.251</ele>
        <time>2015-08-26T23:13:00Z</time>
      </trkpt>
      <trkpt lat="42.66178" lon="1.97132">
        <ele>1490.388</ele>
        <time>2015-08-26T23:13:20Z</time>
      </trkpt>
      <trkpt lat="42.66197" lon="1.97118">
        <ele>1478.824</ele>
        <time>2015-08-26T23:13:40Z</time>
      </trkpt>
      <trkpt lat="42.66191" lon="1.97097">
        <ele>1466.626</ele>
        <time>2015-08-26T23:14:00Z</time>
      </trkpt>
      <trkpt lat="42.66203" lon="1.97088">
        <ele>1460.408</ele>
        <time>2015-08-26T23:14:20Z</time>
      </trkpt>
      <trkpt lat="42.66202" lon="1.9706">
        <ele>1447.254</ele>
        <time>2015-08-26T23:14:40Z</time>
      </trkpt>
      <trkpt lat="42.66249" lon="1.9705">
        <ele>1441.569</ele>
        <time>2015-08-26T23:15:00Z</time>
      </trkpt>
      <trkpt lat="42.66277" lon="1.97037">
        <ele>1432.96</ele>
        <time>2015-08-26T23:15:20Z</time>
      </trkpt>
      <trkpt lat="42.66299" lon="1.97011">
        <ele>1413.485</ele>
        <time>2015-08-26T23:15:40Z</time>
      </trkpt>
      <trkpt lat="42.66307" lon="1.9698">
        <ele>1391.394</ele>
        <time>2015-08-26T23:16:00Z</time>
      </trkpt>
      <trkpt lat="42.66301" lon="1.96963">
        <ele>1382.747</ele>
        <time>2015-08-26T23:16:20Z</time>
      </trkpt>
      <trkpt lat="42.66313" lon="1.96947">
        <ele>1369.494</ele>
        <time>2015-08-26T23:16:40Z</time>
      </trkpt>
      <trkpt lat="42.66262" lon="1.96871">
        <ele>1347.418</ele>
        <time>2015-08-26T23:17:00Z</time>
      </trkpt>
      <trkpt lat="42.66261" lon="1.96837">
        <ele>1337.427</ele>
        <time>2015-08-26T23:17:20Z</time>
      </trkpt>
      <trkpt lat="42.66269" lon="1.96803">
        <ele>1325.668</ele>
        <time>2015-08-26T23:17:40Z</time>
      </trkpt>
      <trkpt lat="42.66312" lon="1.96713">
        <ele>1306.514</ele>
        <time>2015-08-26T23:18:00Z</time>
      </trkpt>
      <trkpt lat="42.66312" lon="1.96699">
        <ele>1307.308</ele>
        <time>2015-08-26T23:18:20Z</time>
      </trkpt>
      <trkpt lat="42.66328" lon="1.96681">
        <ele>1307.328</ele>
        <time>2015-08-26T23:18:40Z</time>
      </trkpt>
      <trkpt lat="42.66324" lon="1.96668">
        <ele>1308.693</ele>
        <time>2015-08-26T23:19:00Z</time>
      </trkpt>
      <trkpt lat="42.66361" lon="1.96648">
        <ele>1309.544</ele>
        <time>2015-08-26T23:19:20Z</time>
      </trkpt>
      <trkpt lat="42.66359" lon="1.96627">
        <ele>1314.749</ele>
        <time>2015-08-26T23:19:40Z</time>
      </trkpt>
      <trkpt lat="42.66302" lon="1.96637">
        <ele>1318.148</ele>
        <time>2015-08-26T23:20:00Z</time>
      </trkpt>
      <trkpt lat="42.66245" lon="1.96601">
        <ele>1336.871</ele>
        <time>2015-08-26T23:20:20Z</time>
      </trkpt>
      <trkpt lat="42.66164" lon="1.96617">
        <ele>1333.918</ele>
        <time>2015-08-26T23:20:40Z</time>
      </trkpt>
      <trkpt lat="42.66134" lon="1.96615">
        <ele>1337.472</ele>
        <time>2015-08-26T23:21:00Z</time>
      </trkpt>
      <trkpt lat="42.66108" lon="1.96601">
        <ele>1340.859</ele>
        <time>2015-08-26T23:21:20Z</time>
      </trkpt>
      <trkpt lat="42.66081" lon="1.96593">
        <ele>1341.903</ele>
        <time>2015-08-26T23:21:40Z</time>
      </trkpt>
      <trkpt lat="42.66045" lon="1.96568">
        <ele>1350.923</ele>
        <time>2015-08-26T23:22:00Z</time>
      </trkpt>
      <trkpt lat="42.6595" lon="1.96542">
        <ele>1363.808</ele>
        <time>2015-08-26T23:22:20Z</time>
      </trkpt>
      <trkpt lat="42.65954" lon="1.96523">
        <ele>1369.661</ele>
        <time>2015-08-26T23:22:40Z</time>
      </trkpt>
      <trkpt lat="42.66" lon="1.96524">
        <ele>1372.936</ele>
        <time>2015-08-26T23:23:00Z</time>
      </trkpt>
      <trkpt lat="42.65999" lon="1.96505">
        <ele>1377.777</ele>
        <time>2015-08-26T23:23:20Z</time>
      </trkpt>
      <trkpt lat="42.65976" lon="1.96498">
        <ele>1378.712</ele>
        <time>2015-08-26T23:23:40Z</time>
      </trkpt>
      <trkpt lat="42.65946" lon="1.96472">
        <ele>1384.221</ele>
        <time>2015-08-26T23:24:00Z</time>
      </trkpt>
      <trkpt lat="42.65929" lon="1.96445">
        <ele>1389.464</ele>
        <time>2015-08-26T23:24:20Z</time>
      </trkpt>
      <trkpt lat="42.65907" lon="1.9644">
        <ele>1386.851</ele>
        <time>2015-08-26T23:24:40Z</time>
      </trkpt>
      <trkpt lat="42.65855" lon="1.96469">
        <ele>1383.265</ele>
        <time>2015-08-26T23:25:00Z</time>
      </trkpt>
      <trkpt lat="42.65788" lon="1.96492">
        <ele>1389.494</ele>
        <time>2015-08-26T23:25:20Z</time>
      </trkpt>
      <trkpt lat="42.65757" lon="1.96489">
        <ele>1393.457</ele>
        <time>2015-08-26T23:25:40Z</time>
      </trkpt>
      <trkpt lat="42.65713" lon="1.96503">
        <ele>1393.822</ele>
        <time>2015-08-26T23:26:00Z</time>
      </trkpt>
      <trkpt lat="42.65671" lon="1.96485">
        <ele>1397.208</ele>
        <time>2015-08-26T23:26:20Z</time>
      </trkpt>
      <trkpt lat="42.65599" lon="1.96436">
        <ele>1398.035</ele>
        <time>2015-08-26T23:26:40Z</time>
      </trkpt>
      <trkpt lat="42.65491" lon="1.96396">
        <ele>1397.68</ele>
        <time>2015-08-26T23:27:00Z</time>
      </trkpt>
      <trkpt lat="42.65431" lon="1.96354">
        <ele>1404.121</ele>
        <time>2015-08-26T23:27:20Z</time>
      </trkpt>
      <trkpt lat="42.65342" lon="1.963">
        <ele>1407.736</ele>
        <time>2015-08-26T23:27:40Z</time>
      </trkpt>
      <trkpt lat="42.65273" lon="1.96274">
        <ele>1415.155</ele>
        <time>2015-08-26T23:28:00Z</time>
      </trkpt>
      <trkpt lat="42.65227" lon="1.96232">
        <ele>1428.118</ele>
        <time>2015-08-26T23:28:20Z</time>
      </trkpt>
      <trkpt lat="42.65197" lon="1.96232">
        <ele>1428.435</ele>
        <time>2015-08-26T23:28:40Z</time>
      </trkpt>
      <trkpt lat="42.65155" lon="1.96208">
        <ele>1434.859</ele>
        <time>2015-08-26T23:29:00Z</time>
      </trkpt>
      <trkpt lat="42.65037" lon="1.96226">
        <ele>1437.584</ele>
        <time>2015-08-26T23:29:20Z</time>
      </trkpt>
      <trkpt lat="42.64969" lon="1.96203">
        <ele>1436.407</ele>
        <time>2015-08-26T23:29:40Z</time>
      </trkpt>
      <trkpt lat="42.64892" lon="1.9617">
        <ele>1432.117</ele>
        <time>2015-08-26T23:30:00Z</time>
      </trkpt>
      <trkpt lat="42.64869" lon="1.96146">
        <ele>1433.508</ele>
        <time>2015-08-26T23:30:20Z</time>
      </trkpt>
      <trkpt lat="42.64815" lon="1.96125">
        <ele>1435.624</ele>
        <time>2015-08-26T23:30:40Z</time>
      </trkpt>
      <trkpt lat="42.64802" lon="1.96113">
        <ele>1438.159</ele>
        <time>2015-08-26T23:31:00Z</time>
      </trkpt>
      <trkpt lat="42.64786" lon="1.96109">
        <ele>1439.45</ele>
        <time>2015-08-26T23:31:20Z</time>
      </trkpt>
      <trkpt lat="42.6476" lon="1.96123">
        <ele>1436.325</ele>
        <time>2015-08-26T23:31:40Z</time>
      </trkpt>
      <trkpt lat="42.64698" lon="1.96127">
        <ele>1432.934</ele>
        <time>2015-08-26T23:32:00Z</time>
      </trkpt>
      <trkpt lat="42.64682" lon="1.96111">
        <ele>1434.327</ele>
        <time>2015-08-26T23:32:20Z</time>
      </trkpt>
      <trkpt lat="42.64425" lon="1.95924">
        <ele>1451.324</ele>
        <time>2019-03-29T16:29:42Z</time>
      </trkpt>
      <trkpt lat="42.64387" lon="1.95964">
        <ele>1448.478</ele>
        <time>2019-03-29T16:30:02Z</time>
      </trkpt>
      <trkpt lat="42.64346" lon="1.95943">
        <ele>1450.014</ele>
        <time>2019-03-29T16:30:22Z</time>
      </trkpt>
      <trkpt lat="42.64328" lon="1.9594">
        <ele>1451.054</ele>
        <time>2019-03-29T16:30:42Z</time>
      </trkpt>
      <trkpt lat="42.64309" lon="1.95917">
        <ele>1450.109</ele>
        <time>2019-03-29T16:31:02Z</time>
      </trkpt>
      <trkpt lat="42.64271" lon="1.95904">
        <ele>1456.208</ele>
        <time>2019-03-29T16:31:22Z</time>
      </trkpt>
      <trkpt lat="42.6426" lon="1.95868">
        <ele>1456.757</ele>
        <time>2019-03-29T16:31:42Z</time>
      </trkpt>
      <trkpt lat="42.6423" lon="1.9586">
        <ele>1460.932</ele>
        <time>2019-03-29T16:32:02Z</time>
      </trkpt>
      <trkpt lat="42.64225" lon="1.95833">
        <ele>1461.723</ele>
        <time>2019-03-29T16:32:22Z</time>
      </trkpt>
      <trkpt lat="42.64213" lon="1.95815">
        <ele>1465.018</ele>
        <time>2019-03-29T16:32:42Z</time>
      </trkpt>
      <trkpt lat="42.64213" lon="1.9579">
        <ele>1464.437</ele>
        <time>2019-03-29T16:33:02Z</time>
      </trkpt>
      <trkpt lat="42.64201" lon="1.95771">
        <ele>1467.25</ele>
        <time>2019-03-29T16:33:22Z</time>
      </trkpt>
      <trkpt lat="42.64207" lon="1.95742">
        <ele>1464.147</ele>
        <time>2019-03-29T16:33:42Z</time>
      </trkpt>
      <trkpt lat="42.64188" lon="1.95701">
        <ele>1471.761</ele>
        <time>2019-03-29T16:34:02Z</time>
      </trkpt>
      <trkpt lat="42.6419" lon="1.95655">
        <ele>1472.029</ele>
        <time>2019-03-29T16:34:22Z</time>
      </trkpt>
      <trkpt lat="42.64169" lon="1.95629">
        <ele>1477.6</ele>
        <time>2019-03-29T16:34:42Z</time>
      </trkpt>
      <trkpt lat="42.64155" lon="1.95631">
        <ele>1482.42</ele>
        <time>2019-03-29T16:35:02Z</time>
      </trkpt>
      <trkpt lat="42.64149" lon="1.95595">
        <ele>1483.008</ele>
        <time>2019-03-29T16:35:22Z</time>
      </trkpt>
      <trkpt lat="42.64119" lon="1.95605">
        <ele>1494.358</ele>
        <time>2019-03-29T16:35:42Z</time>
      </trkpt>
      <trkpt lat="42.64113" lon="1.95625">
        <ele>1498.853</ele>
        <time>2019-03-29T16:36:02Z</time>
      </trkpt>
      <trkpt lat="42.64078" lon="1.95629">
        <ele>1516.644</ele>
        <time>2019-03-29T16:36:22Z</time>
      </trkpt>
      <trkpt lat="42.64074" lon="1.95572">
        <ele>1518.079</ele>
        <time>2019-03-29T16:36:42Z</time>
      </trkpt>
      <trkpt lat="42.64067" lon="1.95548">
        <ele>1525.378</ele>
        <time>2019-03-29T16:37:02Z</time>
      </trkpt>
      <trkpt lat="42.64061" lon="1.95477">
        <ele>1529.161</ele>
        <time>2019-03-29T16:37:22Z</time>
      </trkpt>
      <trkpt lat="42.64046" lon="1.95447">
        <ele>1539.918</ele>
        <time>2019-03-29T16:37:42Z</time>
      </trkpt>
      <trkpt lat="42.64042" lon="1.9539">
        <ele>1548.052</ele>
        <time>2019-03-29T16:38:02Z</time>
      </trkpt>
      <trkpt lat="42.64054" lon="1.95355">
        <ele>1544.154</ele>
        <time>2019-03-29T16:38:22Z</time>
      </trkpt>
      <trkpt lat="42.64016" lon="1.95293">
        <ele>1563.556</ele>
        <time>2019-03-29T16:38:42Z</time>
      </trkpt>
      <trkpt lat="42.64018" lon="1.95265">
        <ele>1562.811</ele>
        <time>2019-03-29T16:39:02Z</time>
      </trkpt>
      <trkpt lat="42.63998" lon="1.95224">
        <ele>1572.308</ele>
        <time>2019-03-29T16:39:22Z</time>
      </trkpt>
      <trkpt lat="42.63978" lon="1.9525">
        <ele>1588.551</ele>
        <time>2019-03-29T16:39:42Z</time>
      </trkpt>
      <trkpt lat="42.63976" lon="1.95299">
        <ele>1590.246</ele>
        <time>2019-03-29T16:40:02Z</time>
      </trkpt>
      <trkpt lat="42.63958" lon="1.95275">
        <ele>1602.477</ele>
        <time>2019-03-29T16:40:22Z</time>
      </trkpt>
      <trkpt lat="42.63945" lon="1.95226">
        <ele>1606.962</ele>
        <time>2019-03-29T16:40:42Z</time>
      </trkpt>
      <trkpt lat="42.63927" lon="1.952">
        <ele>1610.271</ele>
        <time>2019-03-29T16:41:02Z</time>
      </trkpt>
      <trkpt lat="42.63896" lon="1.95174">
        <ele>1619.954</ele>
        <time>2019-03-29T16:41:22Z</time>
      </trkpt>
      <trkpt lat="42.63875" lon="1.95158">
        <ele>1623.431</ele>
        <time>2019-03-29T16:41:42Z</time>
      </trkpt>
      <trkpt lat="42.63867" lon="1.95135">
        <ele>1622.155</ele>
        <time>2019-03-29T16:42:02Z</time>
      </trkpt>
      <trkpt lat="42.6383" lon="1.95114">
        <ele>1624.811</ele>
        <time>2019-03-29T16:42:22Z</time>
      </trkpt>
      <trkpt lat="42.63806" lon="1.95142">
        <ele>1633.421</ele>
        <time>2019-03-29T16:42:42Z</time>
      </trkpt>
      <trkpt lat="42.63731" lon="1.95112">
        <ele>1658.903</ele>
        <time>2019-03-29T16:43:02Z</time>
      </trkpt>
      <trkpt lat="42.63743" lon="1.95151">
        <ele>1666.908</ele>
        <time>2019-03-29T16:43:22Z</time>
      </trkpt>
      <trkpt lat="42.63658" lon="1.95114">
        <ele>1692.327</ele>
        <time>2019-03-29T16:43:42Z</time>
      </trkpt>
      <trkpt lat="42.63655" lon="1.95137">
        <ele>1702.382</ele>
        <time>2019-03-29T16:44:02Z</time>
      </trkpt>
      <trkpt lat="42.63639" lon="1.95129">
        <ele>1707.383</ele>
        <time>2019-03-29T16:44:22Z</time>
      </trkpt>
      <trkpt lat="42.63619" lon="1.95107">
        <ele>1707.748</ele>
        <time>2019-03-29T16:44:42Z</time>
      </trkpt>
      <trkpt lat="42.63555" lon="1.95068">
        <ele>1715.487</ele>
        <time>2019-03-29T16:45:02Z</time>
      </trkpt>
      <trkpt lat="42.63536" lon="1.95086">
        <ele>1724.29</ele>
        <time>2019-03-29T16:45:22Z</time>
      </trkpt>
      <trkpt lat="42.6351" lon="1.95088">
        <ele>1733.087</ele>
        <time>2019-03-29T16:45:42Z</time>
      </trkpt>
      <trkpt lat="42.63473" lon="1.9506">
        <ele>1732.971</ele>
        <time>2019-03-29T16:46:02Z</time>
      </trkpt>
      <trkpt lat="42.6339" lon="1.95068">
        <ele>1763.874</ele>
        <time>2019-03-29T16:46:22Z</time>
      </trkpt>
      <trkpt lat="42.6332" lon="1.95065">
        <ele>1798.656</ele>
        <time>2019-03-29T16:46:42Z</time>
      </trkpt>
      <trkpt lat="42.63302" lon="1.95099">
        <ele>1805.421</ele>
        <time>2019-03-29T16:47:02Z</time>
      </trkpt>
      <trkpt lat="42.6332" lon="1.95197">
        <ele>1835.508</ele>
        <time>2019-03-29T16:47:22Z</time>
      </trkpt>
      <trkpt lat="42.63278" lon="1.95181">
        <ele>1839.553</ele>
        <time>2019-03-29T16:47:42Z</time>
      </trkpt>
      <trkpt lat="42.6325" lon="1.95184">
        <ele>1848.898</ele>
        <time>2019-03-29T16:48:02Z</time>
      </trkpt>
      <trkpt lat="42.63245" lon="1.95189">
        <ele>1853.459</ele>
        <time>2015-08-26T23:50:40Z</time>
      </trkpt>
      <trkpt lat="42.63113" lon="1.95147">
        <ele>1895.734</ele>
        <time>2015-08-26T23:51:00Z</time>
      </trkpt>
      <trkpt lat="42.63029" lon="1.95105">
        <ele>1922.413</ele>
        <time>2015-08-26T23:51:20Z</time>
      </trkpt>
      <trkpt lat="42.63001" lon="1.95073">
        <ele>1925.896</ele>
        <time>2015-08-26T23:51:40Z</time>
      </trkpt>
      <trkpt lat="42.62968" lon="1.9508">
        <ele>1938.813</ele>
        <time>2015-08-26T23:52:00Z</time>
      </trkpt>
      <trkpt lat="42.62955" lon="1.95069">
        <ele>1938.617</ele>
        <time>2015-08-26T23:52:20Z</time>
      </trkpt>
      <trkpt lat="42.62871" lon="1.95061">
        <ele>1958.063</ele>
        <time>2015-08-26T23:52:40Z</time>
      </trkpt>
      <trkpt lat="42.62854" lon="1.95038">
        <ele>1958.644</ele>
        <time>2015-08-26T23:53:00Z</time>
      </trkpt>
      <trkpt lat="42.6283" lon="1.95012">
        <ele>1969.018</ele>
        <time>2015-08-26T23:53:20Z</time>
      </trkpt>
      <trkpt lat="42.62804" lon="1.94997">
        <ele>1983.908</ele>
        <time>2015-08-26T23:53:40Z</time>
      </trkpt>
      <trkpt lat="42.628" lon="1.94959">
        <ele>1975.982</ele>
        <time>2015-08-26T23:54:00Z</time>
      </trkpt>
      <trkpt lat="42.62787" lon="1.94922">
        <ele>1976.947</ele>
        <time>2015-08-26T23:54:20Z</time>
      </trkpt>
      <trkpt lat="42.62774" lon="1.94857">
        <ele>1974.368</ele>
        <time>2015-08-26T23:54:40Z</time>
      </trkpt>
      <trkpt lat="42.62755" lon="1.94822">
        <ele>1976.363</ele>
        <time>2015-08-26T23:55:00Z</time>
      </trkpt>
      <trkpt lat="42.62759" lon="1.94795">
        <ele>1970.242</ele>
        <time>2015-08-26T23:55:20Z</time>
      </trkpt>
      <trkpt lat="42.62752" lon="1.94777">
        <ele>1967.065</ele>
        <time>2015-08-26T23:55:40Z</time>
      </trkpt>
      <trkpt lat="42.62739" lon="1.94774">
        <ele>1965.222</ele>
        <time>2015-08-26T23:56:00Z</time>
      </trkpt>
      <trkpt lat="42.62709" lon="1.94704">
        <ele>1961.356</ele>
        <time>2015-08-26T23:56:20Z</time>
      </trkpt>
      <trkpt lat="42.62697" lon="1.94699">
        <ele>1959.586</ele>
        <time>2015-08-26T23:56:40Z</time>
      </trkpt>
      <trkpt lat="42.62698" lon="1.94648">
        <ele>1962.66</ele>
        <time>2015-08-26T23:57:00Z</time>
      </trkpt>
      <trkpt lat="42.62678" lon="1.94615">
        <ele>1959.626</ele>
        <time>2015-08-26T23:57:20Z</time>
      </trkpt>
      <trkpt lat="42.62682" lon="1.94561">
        <ele>1959.608</ele>
        <time>2015-08-26T23:57:40Z</time>
      </trkpt>
      <trkpt lat="42.62695" lon="1.94546">
        <ele>1960.714</ele>
        <time>2015-08-26T23:58:00Z</time>
      </trkpt>
      <trkpt lat="42.62698" lon="1.94527">
        <ele>1960.199</ele>
        <time>2015-08-26T23:58:20Z</time>
      </trkpt>
      <trkpt lat="42.62676" lon="1.94518">
        <ele>1959.81</ele>
        <time>2015-08-26T23:58:40Z</time>
      </trkpt>
      <trkpt lat="42.62664" lon="1.94481">
        <ele>1961.635</ele>
        <time>2015-08-26T23:59:00Z</time>
      </trkpt>
      <trkpt lat="42.62671" lon="1.94456">
        <ele>1965.164</ele>
        <time>2015-08-26T23:59:20Z</time>
      </trkpt>
      <trkpt lat="42.62663" lon="1.94417">
        <ele>1968.697</ele>
        <time>2015-08-26T23:59:40Z</time>
      </trkpt>
      <trkpt lat="42.62648" lon="1.94395">
        <ele>1970.274</ele>
        <time>2015-08-27T00:00:00Z</time>
      </trkpt>
      <trkpt lat="42.62626" lon="1.94392">
        <ele>1965.048</ele>
        <time>2015-08-27T00:00:20Z</time>
      </trkpt>
      <trkpt lat="42.62572" lon="1.94261">
        <ele>1960.856</ele>
        <time>2015-08-27T00:00:40Z</time>
      </trkpt>
      <trkpt lat="42.62562" lon="1.94209">
        <ele>1959.559</ele>
        <time>2015-08-27T00:01:00Z</time>
      </trkpt>
      <trkpt lat="42.62558" lon="1.94075">
        <ele>1961.814</ele>
        <time>2015-08-27T00:01:20Z</time>
      </trkpt>
      <trkpt lat="42.62544" lon="1.94044">
        <ele>1962.408</ele>
        <time>2015-08-27T00:01:40Z</time>
      </trkpt>
      <trkpt lat="42.62543" lon="1.94015">
        <ele>1966.071</ele>
        <time>2015-08-27T00:02:00Z</time>
      </trkpt>
      <trkpt lat="42.62524" lon="1.93954">
        <ele>1964.056</ele>
        <time>2015-08-27T00:02:20Z</time>
      </trkpt>
      <trkpt lat="42.62501" lon="1.93899">
        <ele>1959.527</ele>
        <time>2019-03-29T17:00:22Z</time>
      </trkpt>
      <trkpt lat="42.62477" lon="1.93836">
        <ele>1958.562</ele>
        <time>2019-03-29T17:00:42Z</time>
      </trkpt>
      <trkpt lat="42.62458" lon="1.93828">
        <ele>1956.951</ele>
        <time>2019-03-29T17:01:02Z</time>
      </trkpt>
      <trkpt lat="42.6242" lon="1.93828">
        <ele>1956.954</ele>
        <time>2019-03-29T17:01:22Z</time>
      </trkpt>
      <trkpt lat="42.62365" lon="1.93793">
        <ele>1958.821</ele>
        <time>2019-03-29T17:01:42Z</time>
      </trkpt>
      <trkpt lat="42.62291" lon="1.93753">
        <ele>1961.295</ele>
        <time>2019-03-29T17:02:02Z</time>
      </trkpt>
      <trkpt lat="42.62262" lon="1.93725">
        <ele>1963.369</ele>
        <time>2019-03-29T17:02:22Z</time>
      </trkpt>
      <trkpt lat="42.62251" lon="1.93751">
        <ele>1960.004</ele>
        <time>2019-03-29T17:02:42Z</time>
      </trkpt>
      <trkpt lat="42.62226" lon="1.93745">
        <ele>1960.124</ele>
        <time>2019-03-29T17:03:02Z</time>
      </trkpt>
      <trkpt lat="42.62213" lon="1.93784">
        <ele>1963.108</ele>
        <time>2019-03-29T17:03:22Z</time>
      </trkpt>
      <trkpt lat="42.62182" lon="1.93779">
        <ele>1966.092</ele>
        <time>2019-03-29T17:03:42Z</time>
      </trkpt>
      <trkpt lat="42.62149" lon="1.93798">
        <ele>1982.367</ele>
        <time>2019-03-29T17:04:02Z</time>
      </trkpt>
      <trkpt lat="42.62082" lon="1.93764">
        <ele>2004.088</ele>
        <time>2019-03-29T17:04:22Z</time>
      </trkpt>
      <trkpt lat="42.62027" lon="1.93619">
        <ele>2009.423</ele>
        <time>2019-03-29T17:04:42Z</time>
      </trkpt>
      <trkpt lat="42.62023" lon="1.93558">
        <ele>2010.742</ele>
        <time>2019-03-29T17:05:02Z</time>
      </trkpt>
      <trkpt lat="42.61984" lon="1.93439">
        <ele>2013.495</ele>
        <time>2019-03-29T17:05:22Z</time>
      </trkpt>
      <trkpt lat="42.61964" lon="1.93405">
        <ele>2010.942</ele>
        <time>2019-03-29T17:05:42Z</time>
      </trkpt>
      <trkpt lat="42.61939" lon="1.93306">
        <ele>2010.066</ele>
        <time>2019-03-29T17:06:02Z</time>
      </trkpt>
      <trkpt lat="42.6195" lon="1.93198">
        <ele>2022.823</ele>
        <time>2019-03-29T17:06:22Z</time>
      </trkpt>
      <trkpt lat="42.61908" lon="1.93169">
        <ele>2025.783</ele>
        <time>2019-03-29T17:06:42Z</time>
      </trkpt>
      <trkpt lat="42.61897" lon="1.93018">
        <ele>2052.511</ele>
        <time>2019-03-29T17:07:02Z</time>
      </trkpt>
      <trkpt lat="42.61845" lon="1.92906">
        <ele>2073.008</ele>
        <time>2019-03-29T17:07:22Z</time>
      </trkpt>
      <trkpt lat="42.61827" lon="1.9281">
        <ele>2087.078</ele>
        <time>2019-03-29T17:07:42Z</time>
      </trkpt>
      <trkpt lat="42.6183" lon="1.92736">
        <ele>2080.913</ele>
        <time>2019-03-29T17:08:02Z</time>
      </trkpt>
      <trkpt lat="42.61801" lon="1.92645">
        <ele>2084.044</ele>
        <time>2019-03-29T17:08:22Z</time>
      </trkpt>
      <trkpt lat="42.61807" lon="1.9259">
        <ele>2079.979</ele>
        <time>2019-03-29T17:08:42Z</time>
      </trkpt>
      <trkpt lat="42.61756" lon="1.92505">
        <ele>2095.788</ele>
        <time>2019-03-29T17:09:02Z</time>
      </trkpt>
      <trkpt lat="42.61749" lon="1.92471">
        <ele>2097.851</ele>
        <time>2019-03-29T17:09:22Z</time>
      </trkpt>
      <trkpt lat="42.61723" lon="1.92423">
        <ele>2109.858</ele>
        <time>2019-03-29T17:09:42Z</time>
      </trkpt>
      <trkpt lat="42.61686" lon="1.92413">
        <ele>2115.592</ele>
        <time>2019-03-29T17:10:02Z</time>
      </trkpt>
      <trkpt lat="42.61676" lon="1.92371">
        <ele>2120.255</ele>
        <time>2019-03-29T17:10:22Z</time>
      </trkpt>
      <trkpt lat="42.61606" lon="1.9227">
        <ele>2136.307</ele>
        <time>2019-03-29T17:10:42Z</time>
      </trkpt>
      <trkpt lat="42.61595" lon="1.92216">
        <ele>2140.117</ele>
        <time>2019-03-29T17:11:02Z</time>
      </trkpt>
      <trkpt lat="42.61555" lon="1.92104">
        <ele>2150.308</ele>
        <time>2019-03-29T17:11:22Z</time>
      </trkpt>
      <trkpt lat="42.61576" lon="1.92023">
        <ele>2159.691</ele>
        <time>2019-03-29T17:11:42Z</time>
      </trkpt>
      <trkpt lat="42.61565" lon="1.91966">
        <ele>2166.056</ele>
        <time>2019-03-29T17:12:02Z</time>
      </trkpt>
      <trkpt lat="42.61544" lon="1.91915">
        <ele>2167.187</ele>
        <time>2019-03-29T17:12:22Z</time>
      </trkpt>
      <trkpt lat="42.6155" lon="1.91798">
        <ele>2191.622</ele>
        <time>2019-03-29T17:12:42Z</time>
      </trkpt>
      <trkpt lat="42.61543" lon="1.91735">
        <ele>2195.181</ele>
        <time>2019-03-29T17:13:02Z</time>
      </trkpt>
      <trkpt lat="42.61524" lon="1.91707">
        <ele>2192.574</ele>
        <time>2019-03-29T17:13:22Z</time>
      </trkpt>
      <trkpt lat="42.61525" lon="1.91673">
        <ele>2196.161</ele>
        <time>2019-03-29T17:13:42Z</time>
      </trkpt>
      <trkpt lat="42.61449" lon="1.91501">
        <ele>2209.565</ele>
        <time>2019-03-29T17:14:02Z</time>
      </trkpt>
      <trkpt lat="42.61409" lon="1.91447">
        <ele>2211.756</ele>
        <time>2019-03-29T17:14:22Z</time>
      </trkpt>
      <trkpt lat="42.61423" lon="1.91427">
        <ele>2218.559</ele>
        <time>2019-03-29T17:14:42Z</time>
      </trkpt>
      <trkpt lat="42.61382" lon="1.9133">
        <ele>2229.014</ele>
        <time>2019-03-29T17:15:02Z</time>
      </trkpt>
      <trkpt lat="42.6136" lon="1.91213">
        <ele>2269.508</ele>
        <time>2019-03-29T17:15:22Z</time>
      </trkpt>
      <trkpt lat="42.61372" lon="1.91099">
        <ele>2310.861</ele>
        <time>2019-03-29T17:15:42Z</time>
      </trkpt>
      <trkpt lat="42.61315" lon="1.91022">
        <ele>2316.186</ele>
        <time>2019-03-29T17:16:02Z</time>
      </trkpt>
      <trkpt lat="42.61288" lon="1.91048">
        <ele>2331.027</ele>
        <time>2019-03-29T17:16:22Z</time>
      </trkpt>
      <trkpt lat="42.61287" lon="1.91005">
        <ele>2326.482</ele>
        <time>2019-03-29T17:16:42Z</time>
      </trkpt>
      <trkpt lat="42.61253" lon="1.90939">
        <ele>2335.131</ele>
        <time>2019-03-29T17:17:02Z</time>
      </trkpt>
      <trkpt lat="42.61234" lon="1.90949">
        <ele>2339.824</ele>
        <time>2019-03-29T17:17:22Z</time>
      </trkpt>
      <trkpt lat="42.61212" lon="1.9091">
        <ele>2347.931</ele>
        <time>2019-03-29T17:17:42Z</time>
      </trkpt>
      <trkpt lat="42.61191" lon="1.90915">
        <ele>2354.225</ele>
        <time>2019-03-29T17:18:02Z</time>
      </trkpt>
      <trkpt lat="42.61197" lon="1.9084">
        <ele>2377.495</ele>
        <time>2019-03-29T17:18:22Z</time>
      </trkpt>
      <trkpt lat="42.61181" lon="1.90815">
        <ele>2388.149</ele>
        <time>2019-03-29T17:18:42Z</time>
      </trkpt>
      <trkpt lat="42.61177" lon="1.9075">
        <ele>2395.723</ele>
        <time>2019-03-29T17:19:02Z</time>
      </trkpt>
      <trkpt lat="42.61121" lon="1.9078">
        <ele>2392.308</ele>
        <time>2019-03-29T17:19:22Z</time>
      </trkpt>
      <trkpt lat="42.61103" lon="1.90852">
        <ele>2378.015</ele>
        <time>2019-03-29T17:19:42Z</time>
      </trkpt>
      <trkpt lat="42.61063" lon="1.90888">
        <ele>2372.61</ele>
        <time>2019-03-29T17:20:02Z</time>
      </trkpt>
      <trkpt lat="42.61041" lon="1.90967">
        <ele>2371.021</ele>
        <time>2019-03-29T17:20:22Z</time>
      </trkpt>
      <trkpt lat="42.60989" lon="1.91009">
        <ele>2389.586</ele>
        <time>2019-03-29T17:20:42Z</time>
      </trkpt>
      <trkpt lat="42.6094" lon="1.91039">
        <ele>2399.965</ele>
        <time>2019-03-29T17:21:02Z</time>
      </trkpt>
      <trkpt lat="42.60891" lon="1.91118">
        <ele>2402.788</ele>
        <time>2019-03-29T17:21:22Z</time>
      </trkpt>
      <trkpt lat="42.60825" lon="1.91123">
        <ele>2409.275</ele>
        <time>2019-03-29T17:21:42Z</time>
      </trkpt>
      <trkpt lat="42.60769" lon="1.91184">
        <ele>2410.089</ele>
        <time>2019-03-29T17:22:02Z</time>
      </trkpt>
      <trkpt lat="42.60717" lon="1.91248">
        <ele>2407.891</ele>
        <time>2019-03-29T17:22:22Z</time>
      </trkpt>
      <trkpt lat="42.60711" lon="1.91325">
        <ele>2405.681</ele>
        <time>2019-03-29T17:22:42Z</time>
      </trkpt>
      <trkpt lat="42.60695" lon="1.91367">
        <ele>2400.919</ele>
        <time>2019-03-29T17:23:02Z</time>
      </trkpt>
      <trkpt lat="42.60697" lon="1.91409">
        <ele>2399.108</ele>
        <time>2019-03-29T17:23:22Z</time>
      </trkpt>
      <trkpt lat="42.60639" lon="1.9148">
        <ele>2387.595</ele>
        <time>2019-03-29T17:23:42Z</time>
      </trkpt>
      <trkpt lat="42.60619" lon="1.91554">
        <ele>2380.72</ele>
        <time>2019-03-29T17:24:02Z</time>
      </trkpt>
      <trkpt lat="42.60633" lon="1.91603">
        <ele>2381.161</ele>
        <time>2019-03-29T17:24:22Z</time>
      </trkpt>
      <trkpt lat="42.60597" lon="1.91623">
        <ele>2376.756</ele>
        <time>2019-03-29T17:24:42Z</time>
      </trkpt>
      <trkpt lat="42.60555" lon="1.9167">
        <ele>2371.375</ele>
        <time>2019-03-29T17:25:02Z</time>
      </trkpt>
      <trkpt lat="42.60486" lon="1.91692">
        <ele>2362.318</ele>
        <time>2019-03-29T17:25:22Z</time>
      </trkpt>
      <trkpt lat="42.60428" lon="1.9168">
        <ele>2332.245</ele>
        <time>2019-03-29T17:25:42Z</time>
      </trkpt>
      <trkpt lat="42.60388" lon="1.91707">
        <ele>2317.339</ele>
        <time>2019-03-29T17:26:02Z</time>
      </trkpt>
      <trkpt lat="42.60379" lon="1.91682">
        <ele>2311.265</ele>
        <time>2019-03-29T17:26:22Z</time>
      </trkpt>
      <trkpt lat="42.60326" lon="1.9165">
        <ele>2298.568</ele>
        <time>2019-03-29T17:26:42Z</time>
      </trkpt>
      <trkpt lat="42.60272" lon="1.91606">
        <ele>2279.714</ele>
        <time>2019-03-29T17:27:02Z</time>
      </trkpt>
      <trkpt lat="42.60154" lon="1.91644">
        <ele>2256.308</ele>
        <time>2019-03-29T17:27:22Z</time>
      </trkpt>
      <trkpt lat="42.60147" lon="1.91681">
        <ele>2240.932</ele>
        <time>2019-03-29T17:27:42Z</time>
      </trkpt>
      <trkpt lat="42.6012" lon="1.91689">
        <ele>2234.447</ele>
        <time>2019-03-29T17:28:02Z</time>
      </trkpt>
      <trkpt lat="42.60108" lon="1.91679">
        <ele>2233.688</ele>
        <time>2019-03-29T17:28:22Z</time>
      </trkpt>
      <trkpt lat="42.60075" lon="1.91683">
        <ele>2229.723</ele>
        <time>2019-03-29T17:28:42Z</time>
      </trkpt>
      <trkpt lat="42.60053" lon="1.9164">
        <ele>2228.112</ele>
        <time>2019-03-29T17:29:02Z</time>
      </trkpt>
      <trkpt lat="42.60017" lon="1.91631">
        <ele>2228.095</ele>
        <time>2019-03-29T17:29:22Z</time>
      </trkpt>
      <trkpt lat="42.5998" lon="1.91575">
        <ele>2224.462</ele>
        <time>2019-03-29T17:29:42Z</time>
      </trkpt>
      <trkpt lat="42.5986" lon="1.91514">
        <ele>2239.596</ele>
        <time>2019-03-29T17:30:02Z</time>
      </trkpt>
      <trkpt lat="42.59838" lon="1.91572">
        <ele>2255.414</ele>
        <time>2019-03-29T17:30:22Z</time>
      </trkpt>
      <trkpt lat="42.59824" lon="1.91718">
        <ele>2274.154</ele>
        <time>2019-03-29T17:30:42Z</time>
      </trkpt>
      <trkpt lat="42.59801" lon="1.91772">
        <ele>2278.709</ele>
        <time>2019-03-29T17:31:02Z</time>
      </trkpt>
      <trkpt lat="42.59801" lon="1.91888">
        <ele>2275.308</ele>
        <time>2019-03-29T17:31:22Z</time>
      </trkpt>
      <trkpt lat="42.59807" lon="1.91925">
        <ele>2271.797</ele>
        <time>2019-03-29T17:31:42Z</time>
      </trkpt>
      <trkpt lat="42.59776" lon="1.91943">
        <ele>2267.832</ele>
        <time>2019-03-29T17:32:02Z</time>
      </trkpt>
      <trkpt lat="42.59749" lon="1.92023">
        <ele>2260.093</ele>
        <time>2019-03-29T17:32:22Z</time>
      </trkpt>
      <trkpt lat="42.59716" lon="1.91985">
        <ele>2259.598</ele>
        <time>2019-03-29T17:32:42Z</time>
      </trkpt>
      <trkpt lat="42.59646" lon="1.91946">
        <ele>2253.447</ele>
        <time>2019-03-29T17:33:02Z</time>
      </trkpt>
      <trkpt lat="42.59567" lon="1.92005">
        <ele>2251.33</ele>
        <time>2019-03-29T17:33:22Z</time>
      </trkpt>
      <trkpt lat="42.59521" lon="1.91985">
        <ele>2254.987</ele>
        <time>2019-03-29T17:33:42Z</time>
      </trkpt>
      <trkpt lat="42.59492" lon="1.91985">
        <ele>2257.831</ele>
        <time>2019-03-29T17:34:02Z</time>
      </trkpt>
      <trkpt lat="42.59474" lon="1.91969">
        <ele>2258.222</ele>
        <time>2019-03-29T17:34:22Z</time>
      </trkpt>
      <trkpt lat="42.59371" lon="1.91944">
        <ele>2265.162</ele>
        <time>2019-03-29T17:34:42Z</time>
      </trkpt>
      <trkpt lat="42.59315" lon="1.91915">
        <ele>2264.808</ele>
        <time>2019-03-29T17:35:02Z</time>
      </trkpt>
      <trkpt lat="42.59273" lon="1.91941">
        <ele>2261.408</ele>
        <time>2019-03-29T17:35:22Z</time>
      </trkpt>
      <trkpt lat="42.59249" lon="1.91938">
        <ele>2264.098</ele>
        <time>2019-03-29T17:35:42Z</time>
      </trkpt>
      <trkpt lat="42.59215" lon="1.91891">
        <ele>2267.243</ele>
        <time>2019-03-29T17:36:02Z</time>
      </trkpt>
      <trkpt lat="42.59119" lon="1.91829">
        <ele>2276.714</ele>
        <time>2019-03-29T17:36:22Z</time>
      </trkpt>
      <trkpt lat="42.5907" lon="1.91733">
        <ele>2279.599</ele>
        <time>2019-03-29T17:36:42Z</time>
      </trkpt>
      <trkpt lat="42.58988" lon="1.91631">
        <ele>2288.858</ele>
        <time>2019-03-29T17:37:02Z</time>
      </trkpt>
      <trkpt lat="42.58984" lon="1.91598">
        <ele>2288.471</ele>
        <time>2019-03-29T17:37:22Z</time>
      </trkpt>
      <trkpt lat="42.58919" lon="1.91476">
        <ele>2295.748</ele>
        <time>2019-03-29T17:37:42Z</time>
      </trkpt>
      <trkpt lat="42.58882" lon="1.91429">
        <ele>2302.162</ele>
        <time>2019-03-29T17:38:02Z</time>
      </trkpt>
      <trkpt lat="42.58782" lon="1.91193">
        <ele>2301.854</ele>
        <time>2019-03-29T17:38:22Z</time>
      </trkpt>
      <trkpt lat="42.58738" lon="1.91118">
        <ele>2303.656</ele>
        <time>2019-03-29T17:38:42Z</time>
      </trkpt>
      <trkpt lat="42.58713" lon="1.91105">
        <ele>2309.811</ele>
        <time>2019-03-29T17:39:02Z</time>
      </trkpt>
      <trkpt lat="42.58659" lon="1.90974">
        <ele>2301.408</ele>
        <time>2019-03-29T17:39:22Z</time>
      </trkpt>
      <trkpt lat="42.58593" lon="1.90855">
        <ele>2292.131</ele>
        <time>2019-03-29T17:39:42Z</time>
      </trkpt>
      <trkpt lat="42.58536" lon="1.90767">
        <ele>2290.846</ele>
        <time>2019-03-29T17:40:02Z</time>
      </trkpt>
      <trkpt lat="42.58475" lon="1.9073">
        <ele>2289.127</ele>
        <time>2019-03-29T17:40:22Z</time>
      </trkpt>
      <trkpt lat="42.58453" lon="1.90668">
        <ele>2285.092</ele>
        <time>2019-03-29T17:40:42Z</time>
      </trkpt>
      <trkpt lat="42.58446" lon="1.9058">
        <ele>2281.661</ele>
        <time>2019-03-29T17:41:02Z</time>
      </trkpt>
      <trkpt lat="42.58416" lon="1.90525">
        <ele>2279.434</ele>
        <time>2019-03-29T17:41:22Z</time>
      </trkpt>
      <trkpt lat="42.58342" lon="1.90455">
        <ele>2252.491</ele>
        <time>2019-03-29T17:41:42Z</time>
      </trkpt>
      <trkpt lat="42.58347" lon="1.90539">
        <ele>2258.535</ele>
        <time>2019-03-29T17:42:02Z</time>
      </trkpt>
      <trkpt lat="42.58327" lon="1.90564">
        <ele>2259.573</ele>
        <time>2019-03-29T17:42:22Z</time>
      </trkpt>
      <trkpt lat="42.58295" lon="1.9051">
        <ele>2257.685</ele>
        <time>2019-03-29T17:42:42Z</time>
      </trkpt>
      <trkpt lat="42.58263" lon="1.90496">
        <ele>2253.513</ele>
        <time>2019-03-29T17:43:02Z</time>
      </trkpt>
      <trkpt lat="42.58233" lon="1.90447">
        <ele>2248.108</ele>
        <time>2019-03-29T17:43:22Z</time>
      </trkpt>
      <trkpt lat="42.58197" lon="1.90453">
        <ele>2248.253</ele>
        <time>2019-03-29T17:43:42Z</time>
      </trkpt>
      <trkpt lat="42.58184" lon="1.90478">
        <ele>2247.088</ele>
        <time>2019-03-29T17:44:02Z</time>
      </trkpt>
      <trkpt lat="42.5815" lon="1.90411">
        <ele>2246.999</ele>
        <time>2019-03-29T17:44:22Z</time>
      </trkpt>
      <trkpt lat="42.58127" lon="1.9046">
        <ele>2250.444</ele>
        <time>2019-03-29T17:44:42Z</time>
      </trkpt>
      <trkpt lat="42.58108" lon="1.90463">
        <ele>2252.853</ele>
        <time>2019-03-29T17:45:02Z</time>
      </trkpt>
      <trkpt lat="42.58089" lon="1.9045">
        <ele>2260.216</ele>
        <time>2019-03-29T17:45:22Z</time>
      </trkpt>
      <trkpt lat="42.58064" lon="1.90486">
        <ele>2260.713</ele>
        <time>2019-03-29T17:45:42Z</time>
      </trkpt>
      <trkpt lat="42.57999" lon="1.90401">
        <ele>2260.457</ele>
        <time>2019-03-29T17:46:02Z</time>
      </trkpt>
      <trkpt lat="42.57968" lon="1.90408">
        <ele>2257.395</ele>
        <time>2019-03-29T17:46:22Z</time>
      </trkpt>
      <trkpt lat="42.57954" lon="1.90435">
        <ele>2255.349</ele>
        <time>2019-03-29T17:46:42Z</time>
      </trkpt>
      <trkpt lat="42.57926" lon="1.9032">
        <ele>2230.323</ele>
        <time>2019-03-29T17:47:02Z</time>
      </trkpt>
      <trkpt lat="42.57924" lon="1.90214">
        <ele>2219.108</ele>
        <time>2019-03-29T17:47:22Z</time>
      </trkpt>
      <trkpt lat="42.57875" lon="1.90185">
        <ele>2218.775</ele>
        <time>2019-03-29T17:47:42Z</time>
      </trkpt>
      <trkpt lat="42.57795" lon="1.90242">
        <ele>2209.12</ele>
        <time>2019-03-29T17:48:02Z</time>
      </trkpt>
      <trkpt lat="42.57767" lon="1.90177">
        <ele>2204.121</ele>
        <time>2019-03-29T17:48:22Z</time>
      </trkpt>
      <trkpt lat="42.57743" lon="1.90047">
        <ele>2201.526</ele>
        <time>2019-03-29T17:48:42Z</time>
      </trkpt>
      <trkpt lat="42.57707" lon="1.89956">
        <ele>2192.525</ele>
        <time>2019-03-29T17:49:02Z</time>
      </trkpt>
      <trkpt lat="42.57719" lon="1.89915">
        <ele>2190.688</ele>
        <time>2019-03-29T17:49:22Z</time>
      </trkpt>
      <trkpt lat="42.57714" lon="1.89874">
        <ele>2189.595</ele>
        <time>2019-03-29T17:49:42Z</time>
      </trkpt>
      <trkpt lat="42.57683" lon="1.89834">
        <ele>2183.249</ele>
        <time>2019-03-29T17:50:02Z</time>
      </trkpt>
      <trkpt lat="42.57677" lon="1.89773">
        <ele>2175.958</ele>
        <time>2019-03-29T17:50:22Z</time>
      </trkpt>
      <trkpt lat="42.57656" lon="1.89736">
        <ele>2178.152</ele>
        <time>2019-03-29T17:50:42Z</time>
      </trkpt>
      <trkpt lat="42.57621" lon="1.89507">
        <ele>2168.817</ele>
        <time>2019-03-29T17:51:02Z</time>
      </trkpt>
      <trkpt lat="42.57599" lon="1.89469">
        <ele>2162.408</ele>
        <time>2019-03-29T17:51:22Z</time>
      </trkpt>
      <trkpt lat="42.57565" lon="1.89476">
        <ele>2162.071</ele>
        <time>2019-03-29T17:51:42Z</time>
      </trkpt>
      <trkpt lat="42.57526" lon="1.89458">
        <ele>2153.246</ele>
        <time>2019-03-29T17:52:02Z</time>
      </trkpt>
      <trkpt lat="42.57528" lon="1.89403">
        <ele>2163.047</ele>
        <time>2019-03-29T17:52:22Z</time>
      </trkpt>
      <trkpt lat="42.5748" lon="1.89388">
        <ele>2152.332</ele>
        <time>2019-03-29T17:52:42Z</time>
      </trkpt>
      <trkpt lat="42.57444" lon="1.89343">
        <ele>2144.231</ele>
        <time>2019-03-29T17:53:02Z</time>
      </trkpt>
      <trkpt lat="42.57431" lon="1.89273">
        <ele>2161.064</ele>
        <time>2019-03-29T17:53:22Z</time>
      </trkpt>
      <trkpt lat="42.57392" lon="1.89248">
        <ele>2144.231</ele>
        <time>2019-03-29T17:53:42Z</time>
      </trkpt>
      <trkpt lat="42.57375" lon="1.8918">
        <ele>2160.635</ele>
        <time>2019-03-29T17:54:02Z</time>
      </trkpt>
      <trkpt lat="42.573" lon="1.8916">
        <ele>2163.255</ele>
        <time>2019-03-29T17:54:22Z</time>
      </trkpt>
      <trkpt lat="42.57258" lon="1.89165">
        <ele>2149.107</ele>
        <time>2019-03-29T17:54:42Z</time>
      </trkpt>
      <trkpt lat="42.57225" lon="1.89113">
        <ele>2163.717</ele>
        <time>2019-03-29T17:55:02Z</time>
      </trkpt>
      <trkpt lat="42.57163" lon="1.89097">
        <ele>2147.808</ele>
        <time>2019-03-29T17:55:22Z</time>
      </trkpt>
      <trkpt lat="42.57156" lon="1.89091">
        <ele>2147.641</ele>
        <time>2015-08-27T01:01:00Z</time>
      </trkpt>
      <trkpt lat="42.57139" lon="1.89075">
        <ele>2148.646</ele>
        <time>2015-08-27T01:01:20Z</time>
      </trkpt>
      <trkpt lat="42.57132" lon="1.89057">
        <ele>2155.377</ele>
        <time>2015-08-27T01:01:40Z</time>
      </trkpt>
      <trkpt lat="42.57112" lon="1.89053">
        <ele>2149.942</ele>
        <time>2015-08-27T01:02:00Z</time>
      </trkpt>
      <trkpt lat="42.57098" lon="1.89034">
        <ele>2158.751</ele>
        <time>2015-08-27T01:02:20Z</time>
      </trkpt>
      <trkpt lat="42.57082" lon="1.89042">
        <ele>2152.634</ele>
        <time>2015-08-27T01:02:40Z</time>
      </trkpt>
      <trkpt lat="42.57046" lon="1.89042">
        <ele>2145.181</ele>
        <time>2015-08-27T01:03:00Z</time>
      </trkpt>
      <trkpt lat="42.57025" lon="1.89024">
        <ele>2148.545</ele>
        <time>2015-08-27T01:03:20Z</time>
      </trkpt>
      <trkpt lat="42.57013" lon="1.89024">
        <ele>2144.383</ele>
        <time>2015-08-27T01:03:40Z</time>
      </trkpt>
      <trkpt lat="42.56975" lon="1.89007">
        <ele>2146.025</ele>
        <time>2015-08-27T01:04:00Z</time>
      </trkpt>
      <trkpt lat="42.5689" lon="1.8901">
        <ele>2140.217</ele>
        <time>2015-08-27T01:04:20Z</time>
      </trkpt>
      <trkpt lat="42.56868" lon="1.88981">
        <ele>2150.208</ele>
        <time>2015-08-27T01:04:40Z</time>
      </trkpt>
      <trkpt lat="42.56841" lon="1.8898">
        <ele>2152.194</ele>
        <time>2015-08-27T01:05:00Z</time>
      </trkpt>
      <trkpt lat="42.56814" lon="1.88991">
        <ele>2158.199</ele>
        <time>2015-08-27T01:05:20Z</time>
      </trkpt>
      <trkpt lat="42.56799" lon="1.89013">
        <ele>2156.01</ele>
        <time>2015-08-27T01:05:40Z</time>
      </trkpt>
      <trkpt lat="42.56774" lon="1.89029">
        <ele>2153.235</ele>
        <time>2015-08-27T01:06:00Z</time>
      </trkpt>
      <trkpt lat="42.56747" lon="1.89035">
        <ele>2143.264</ele>
        <time>2015-08-27T01:06:20Z</time>
      </trkpt>
      <trkpt lat="42.56722" lon="1.89014">
        <ele>2141.747</ele>
        <time>2015-08-27T01:06:40Z</time>
      </trkpt>
      <trkpt lat="42.56712" lon="1.88999">
        <ele>2148.134</ele>
        <time>2015-08-27T01:07:00Z</time>
      </trkpt>
      <trkpt lat="42.56682" lon="1.88984">
        <ele>2156.098</ele>
        <time>2015-08-27T01:07:20Z</time>
      </trkpt>
      <trkpt lat="42.56666" lon="1.88993">
        <ele>2157.161</ele>
        <time>2015-08-27T01:07:40Z</time>
      </trkpt>
      <trkpt lat="42.5665" lon="1.89026">
        <ele>2148.621</ele>
        <time>2015-08-27T01:08:00Z</time>
      </trkpt>
      <trkpt lat="42.56624" lon="1.89032">
        <ele>2142.213</ele>
        <time>2015-08-27T01:08:20Z</time>
      </trkpt>
      <trkpt lat="42.56598" lon="1.89009">
        <ele>2150.808</ele>
        <time>2015-08-27T01:08:40Z</time>
      </trkpt>
      <trkpt lat="42.56582" lon="1.89009">
        <ele>2146.752</ele>
        <time>2015-08-27T01:09:00Z</time>
      </trkpt>
      <trkpt lat="42.56573" lon="1.89001">
        <ele>2154.067</ele>
        <time>2015-08-27T01:09:20Z</time>
      </trkpt>
      <trkpt lat="42.56541" lon="1.89011">
        <ele>2154.388</ele>
        <time>2015-08-27T01:09:40Z</time>
      </trkpt>
      <trkpt lat="42.56513" lon="1.89029">
        <ele>2152.953</ele>
        <time>2015-08-27T01:10:00Z</time>
      </trkpt>
      <trkpt lat="42.56501" lon="1.8902">
        <ele>2160.692</ele>
        <time>2015-08-27T01:10:20Z</time>
      </trkpt>
      <trkpt lat="42.56489" lon="1.8904">
        <ele>2155.585</ele>
        <time>2015-08-27T01:10:40Z</time>
      </trkpt>
      <trkpt lat="42.56476" lon="1.89045">
        <ele>2158.262</ele>
        <time>2015-08-27T01:11:00Z</time>
      </trkpt>
      <trkpt lat="42.56448" lon="1.89085">
        <ele>2148.676</ele>
        <time>2015-08-27T01:11:20Z</time>
      </trkpt>
      <trkpt lat="42.56424" lon="1.89084">
        <ele>2158.043</ele>
        <time>2015-08-27T01:11:40Z</time>
      </trkpt>
      <trkpt lat="42.56414" lon="1.89101">
        <ele>2149.464</ele>
        <time>2015-08-27T01:12:00Z</time>
      </trkpt>
      <trkpt lat="42.56384" lon="1.891">
        <ele>2142.71</ele>
        <time>2015-08-27T01:12:20Z</time>
      </trkpt>
      <trkpt lat="42.56344" lon="1.89063">
        <ele>2128.208</ele>
        <time>2015-08-27T01:12:40Z</time>
      </trkpt>
      <trkpt lat="42.56344" lon="1.89024">
        <ele>2146.89</ele>
        <time>2015-08-27T01:13:00Z</time>
      </trkpt>
      <trkpt lat="42.56321" lon="1.89022">
        <ele>2134.535</ele>
        <time>2015-08-27T01:13:20Z</time>
      </trkpt>
      <trkpt lat="42.56293" lon="1.88975">
        <ele>2140.086</ele>
        <time>2015-08-27T01:13:40Z</time>
      </trkpt>
      <trkpt lat="42.56251" lon="1.88939">
        <ele>2136.641</ele>
        <time>2015-08-27T01:14:00Z</time>
      </trkpt>
      <trkpt lat="42.56243" lon="1.88924">
        <ele>2140.79</ele>
        <time>2015-08-27T01:14:20Z</time>
      </trkpt>
      <trkpt lat="42.56216" lon="1.88899">
        <ele>2140.353</ele>
        <time>2015-08-27T01:14:40Z</time>
      </trkpt>
      <trkpt lat="42.56194" lon="1.88888">
        <ele>2130.65</ele>
        <time>2015-08-27T01:15:00Z</time>
      </trkpt>
      <trkpt lat="42.5618" lon="1.88838">
        <ele>2128.754</ele>
        <time>2015-08-27T01:15:20Z</time>
      </trkpt>
      <trkpt lat="42.5618" lon="1.88813">
        <ele>2134.268</ele>
        <time>2015-08-27T01:15:40Z</time>
      </trkpt>
      <trkpt lat="42.56167" lon="1.88791">
        <ele>2128.242</ele>
        <time>2015-08-27T01:16:00Z</time>
      </trkpt>
      <trkpt lat="42.56161" lon="1.88761">
        <ele>2128.726</ele>
        <time>2015-08-27T01:16:20Z</time>
      </trkpt>
      <trkpt lat="42.56155" lon="1.88709">
        <ele>2129.008</ele>
        <time>2015-08-27T01:16:40Z</time>
      </trkpt>
      <trkpt lat="42.56155" lon="1.8867">
        <ele>2130.832</ele>
        <time>2015-08-27T01:17:00Z</time>
      </trkpt>
      <trkpt lat="42.56135" lon="1.88635">
        <ele>2116.887</ele>
        <time>2015-08-27T01:17:20Z</time>
      </trkpt>
      <trkpt lat="42.56127" lon="1.88605">
        <ele>2109.788</ele>
        <time>2015-08-27T01:17:40Z</time>
      </trkpt>
      <trkpt lat="42.56097" lon="1.88502">
        <ele>2086.023</ele>
        <time>2015-08-27T01:18:00Z</time>
      </trkpt>
      <trkpt lat="42.56097" lon="1.88474">
        <ele>2082.822</ele>
        <time>2015-08-27T01:18:20Z</time>
      </trkpt>
      <trkpt lat="42.56102" lon="1.88448">
        <ele>2083.145</ele>
        <time>2015-08-27T01:18:40Z</time>
      </trkpt>
      <trkpt lat="42.56098" lon="1.884">
        <ele>2075.882</ele>
        <time>2015-08-27T01:19:00Z</time>
      </trkpt>
      <trkpt lat="42.5608" lon="1.88346">
        <ele>2063.496</ele>
        <time>2015-08-27T01:19:20Z</time>
      </trkpt>
      <trkpt lat="42.56079" lon="1.88305">
        <ele>2059.245</ele>
        <time>2015-08-27T01:19:40Z</time>
      </trkpt>
      <trkpt lat="42.5603" lon="1.881">
        <ele>2031.047</ele>
        <time>2015-08-27T01:20:00Z</time>
      </trkpt>
      <trkpt lat="42.56032" lon="1.88062">
        <ele>2027.911</ele>
        <time>2015-08-27T01:20:20Z</time>
      </trkpt>
      <trkpt lat="42.56027" lon="1.8802">
        <ele>2023.708</ele>
        <time>2015-08-27T01:20:40Z</time>
      </trkpt>
      <trkpt lat="42.56014" lon="1.87989">
        <ele>2017.47</ele>
        <time>2015-08-27T01:21:00Z</time>
      </trkpt>
      <trkpt lat="42.55997" lon="1.87931">
        <ele>2013.545</ele>
        <time>2015-08-27T01:21:20Z</time>
      </trkpt>
      <trkpt lat="42.55939" lon="1.8782">
        <ele>1999.776</ele>
        <time>2015-08-27T01:21:40Z</time>
      </trkpt>
      <trkpt lat="42.55932" lon="1.87797">
        <ele>2000.281</ele>
        <time>2015-08-27T01:22:00Z</time>
      </trkpt>
      <trkpt lat="42.55887" lon="1.87744">
        <ele>1990.25</ele>
        <time>2015-08-27T01:22:20Z</time>
      </trkpt>
      <trkpt lat="42.55871" lon="1.87712">
        <ele>1989.253</ele>
        <time>2015-08-27T01:22:40Z</time>
      </trkpt>
      <trkpt lat="42.55839" lon="1.87695">
        <ele>1979.88</ele>
        <time>2015-08-27T01:23:00Z</time>
      </trkpt>
      <trkpt lat="42.55789" lon="1.87677">
        <ele>1967.234</ele>
        <time>2015-08-27T01:23:20Z</time>
      </trkpt>
      <trkpt lat="42.55763" lon="1.87659">
        <ele>1959.615</ele>
        <time>2015-08-27T01:23:40Z</time>
      </trkpt>
      <trkpt lat="42.5574" lon="1.87575">
        <ele>1947.365</ele>
        <time>2015-08-27T01:24:00Z</time>
      </trkpt>
      <trkpt lat="42.5574" lon="1.87547">
        <ele>1947.311</ele>
        <time>2015-08-27T01:24:20Z</time>
      </trkpt>
      <trkpt lat="42.55728" lon="1.87497">
        <ele>1942.608</ele>
        <time>2015-08-27T01:24:40Z</time>
      </trkpt>
      <trkpt lat="42.5572" lon="1.87478">
        <ele>1938.637</ele>
        <time>2015-08-27T01:25:00Z</time>
      </trkpt>
      <trkpt lat="42.55712" lon="1.87416">
        <ele>1931.672</ele>
        <time>2015-08-27T01:25:20Z</time>
      </trkpt>
      <trkpt lat="42.5572" lon="1.87368">
        <ele>1932.183</ele>
        <time>2015-08-27T01:25:40Z</time>
      </trkpt>
      <trkpt lat="42.55706" lon="1.87206">
        <ele>1920.998</ele>
        <time>2015-08-27T01:26:00Z</time>
      </trkpt>
      <trkpt lat="42.55688" lon="1.87138">
        <ele>1904.717</ele>
        <time>2015-08-27T01:26:20Z</time>
      </trkpt>
      <trkpt lat="42.55684" lon="1.87055">
        <ele>1890.83</ele>
        <time>2015-08-27T01:26:40Z</time>
      </trkpt>
      <trkpt lat="42.55661" lon="1.86947">
        <ele>1867.557</ele>
        <time>2015-08-27T01:27:00Z</time>
      </trkpt>
      <trkpt lat="42.55669" lon="1.86913">
        <ele>1866.951</ele>
        <time>2015-08-27T01:27:20Z</time>
      </trkpt>
      <trkpt lat="42.55664" lon="1.86835">
        <ele>1857.161</ele>
        <time>2015-08-27T01:27:40Z</time>
      </trkpt>
      <trkpt lat="42.55666" lon="1.86762">
        <ele>1850.621</ele>
        <time>2015-08-27T01:28:00Z</time>
      </trkpt>
      <trkpt lat="42.55675" lon="1.86745">
        <ele>1854.913</ele>
        <time>2015-08-27T01:28:20Z</time>
      </trkpt>
      <trkpt lat="42.55646" lon="1.8669">
        <ele>1843.208</ele>
        <time>2015-08-27T01:28:40Z</time>
      </trkpt>
      <trkpt lat="42.55647" lon="1.8666">
        <ele>1844.112</ele>
        <time>2015-08-27T01:29:00Z</time>
      </trkpt>
      <trkpt lat="42.55633" lon="1.86635">
        <ele>1837.687</ele>
        <time>2015-08-27T01:29:20Z</time>
      </trkpt>
      <trkpt lat="42.55635" lon="1.86609">
        <ele>1839.378</ele>
        <time>2015-08-27T01:29:40Z</time>
      </trkpt>
      <trkpt lat="42.55621" lon="1.86582">
        <ele>1833.333</ele>
        <time>2015-08-27T01:30:00Z</time>
      </trkpt>
      <trkpt lat="42.55605" lon="1.86489">
        <ele>1826.662</ele>
        <time>2015-08-27T01:30:20Z</time>
      </trkpt>
      <trkpt lat="42.55592" lon="1.86454">
        <ele>1819.845</ele>
        <time>2015-08-27T01:30:40Z</time>
      </trkpt>
      <trkpt lat="42.55599" lon="1.86427">
        <ele>1824.662</ele>
        <time>2015-08-27T01:31:00Z</time>
      </trkpt>
      <trkpt lat="42.55587" lon="1.86407">
        <ele>1820.856</ele>
        <time>2015-08-27T01:31:20Z</time>
      </trkpt>
      <trkpt lat="42.55578" lon="1.86406">
        <ele>1816.697</ele>
        <time>2015-08-27T01:31:40Z</time>
      </trkpt>
      <trkpt lat="42.55549" lon="1.8635">
        <ele>1810.823</ele>
        <time>2015-08-27T01:32:00Z</time>
      </trkpt>
      <trkpt lat="42.55528" lon="1.86327">
        <ele>1805.125</ele>
        <time>2015-08-27T01:32:20Z</time>
      </trkpt>
      <trkpt lat="42.55501" lon="1.86268">
        <ele>1802.808</ele>
        <time>2015-08-27T01:32:40Z</time>
      </trkpt>
      <trkpt lat="42.55485" lon="1.86244">
        <ele>1798.235</ele>
        <time>2015-08-27T01:33:00Z</time>
      </trkpt>
      <trkpt lat="42.55476" lon="1.86211">
        <ele>1798.69</ele>
        <time>2015-08-27T01:33:20Z</time>
      </trkpt>
      <trkpt lat="42.55462" lon="1.86178">
        <ele>1795.581</ele>
        <time>2015-08-27T01:33:40Z</time>
      </trkpt>
      <trkpt lat="42.5544" lon="1.86111">
        <ele>1790.946</ele>
        <time>2015-08-27T01:34:00Z</time>
      </trkpt>
      <trkpt lat="42.55433" lon="1.8607">
        <ele>1793.275</ele>
        <time>2015-08-27T01:34:20Z</time>
      </trkpt>
      <trkpt lat="42.55418" lon="1.86036">
        <ele>1787.878</ele>
        <time>2015-08-27T01:34:40Z</time>
      </trkpt>
      <trkpt lat="42.55412" lon="1.86007">
        <ele>1788.355</ele>
        <time>2015-08-27T01:35:00Z</time>
      </trkpt>
      <trkpt lat="42.55364" lon="1.85882">
        <ele>1774.619</ele>
        <time>2015-08-27T01:35:20Z</time>
      </trkpt>
      <trkpt lat="42.55364" lon="1.85855">
        <ele>1777.333</ele>
        <time>2015-08-27T01:35:40Z</time>
      </trkpt>
      <trkpt lat="42.5535" lon="1.85812">
        <ele>1769.523</ele>
        <time>2015-08-27T01:36:00Z</time>
      </trkpt>
      <trkpt lat="42.55352" lon="1.85778">
        <ele>1774.015</ele>
        <time>2015-08-27T01:36:20Z</time>
      </trkpt>
      <trkpt lat="42.55335" lon="1.85722">
        <ele>1762.908</ele>
        <time>2015-08-27T01:36:40Z</time>
      </trkpt>
      <trkpt lat="42.55339" lon="1.85682">
        <ele>1765.629</ele>
        <time>2015-08-27T01:37:00Z</time>
      </trkpt>
      <trkpt lat="42.55337" lon="1.85645">
        <ele>1764.474</ele>
        <time>2015-08-27T01:37:20Z</time>
      </trkpt>
      <trkpt lat="42.55316" lon="1.85557">
        <ele>1757.175</ele>
        <time>2015-08-27T01:37:40Z</time>
      </trkpt>
      <trkpt lat="42.55317" lon="1.85534">
        <ele>1760.49</ele>
        <time>2015-08-27T01:38:00Z</time>
      </trkpt>
      <trkpt lat="42.5528" lon="1.85458">
        <ele>1748.689</ele>
        <time>2015-08-27T01:38:20Z</time>
      </trkpt>
      <trkpt lat="42.55278" lon="1.85436">
        <ele>1751.322</ele>
        <time>2015-08-27T01:38:40Z</time>
      </trkpt>
      <trkpt lat="42.55261" lon="1.85404">
        <ele>1747.489</ele>
        <time>2015-08-27T01:39:00Z</time>
      </trkpt>
      <trkpt lat="42.55256" lon="1.85381">
        <ele>1748.333</ele>
        <time>2015-08-27T01:39:20Z</time>
      </trkpt>
      <trkpt lat="42.55262" lon="1.85357">
        <ele>1752.755</ele>
        <time>2015-08-27T01:39:40Z</time>
      </trkpt>
      <trkpt lat="42.55249" lon="1.8533">
        <ele>1746.207</ele>
        <time>2015-08-27T01:40:00Z</time>
      </trkpt>
      <trkpt lat="42.55256" lon="1.85293">
        <ele>1751.717</ele>
        <time>2015-08-27T01:40:20Z</time>
      </trkpt>
      <trkpt lat="42.55237" lon="1.85274">
        <ele>1743.508</ele>
        <time>2015-08-27T01:40:40Z</time>
      </trkpt>
      <trkpt lat="42.55215" lon="1.85159">
        <ele>1740.961</ele>
        <time>2015-08-27T01:41:00Z</time>
      </trkpt>
      <trkpt lat="42.55222" lon="1.8513">
        <ele>1745.316</ele>
        <time>2015-08-27T01:41:20Z</time>
      </trkpt>
      <trkpt lat="42.55203" lon="1.85087">
        <ele>1736.567</ele>
        <time>2015-08-27T01:41:40Z</time>
      </trkpt>
      <trkpt lat="42.55194" lon="1.8503">
        <ele>1734.662</ele>
        <time>2015-08-27T01:42:00Z</time>
      </trkpt>
      <trkpt lat="42.55182" lon="1.84998">
        <ele>1729.031</ele>
        <time>2015-08-27T01:42:20Z</time>
      </trkpt>
      <trkpt lat="42.55167" lon="1.8491">
        <ele>1724.564</ele>
        <time>2015-08-27T01:42:40Z</time>
      </trkpt>
      <trkpt lat="42.5515" lon="1.84833">
        <ele>1719.091</ele>
        <time>2015-08-27T01:43:00Z</time>
      </trkpt>
      <trkpt lat="42.55092" lon="1.84659">
        <ele>1712.295</ele>
        <time>2015-08-27T01:43:20Z</time>
      </trkpt>
      <trkpt lat="42.5507" lon="1.84615">
        <ele>1704.031</ele>
        <time>2015-08-27T01:43:40Z</time>
      </trkpt>
      <trkpt lat="42.55063" lon="1.84563">
        <ele>1704.361</ele>
        <time>2015-08-27T01:44:00Z</time>
      </trkpt>
      <trkpt lat="42.55063" lon="1.84485">
        <ele>1700.107</ele>
        <time>2015-08-27T01:44:20Z</time>
      </trkpt>
      <trkpt lat="42.55048" lon="1.84417">
        <ele>1692.308</ele>
        <time>2015-08-27T01:44:40Z</time>
      </trkpt>
      <trkpt lat="42.55047" lon="1.8439">
        <ele>1693.529</ele>
        <time>2015-08-27T01:45:00Z</time>
      </trkpt>
      <trkpt lat="42.5504" lon="1.84357">
        <ele>1690.154</ele>
        <time>2015-08-27T01:45:20Z</time>
      </trkpt>
      <trkpt lat="42.55038" lon="1.84287">
        <ele>1691.545</ele>
        <time>2015-08-27T01:45:40Z</time>
      </trkpt>
      <trkpt lat="42.55012" lon="1.84212">
        <ele>1679.16</ele>
        <time>2019-03-29T18:40:42Z</time>
      </trkpt>
      <trkpt lat="42.54996" lon="1.84232">
        <ele>1669.419</ele>
        <time>2019-03-29T18:41:02Z</time>
      </trkpt>
      <trkpt lat="42.55006" lon="1.8427">
        <ele>1671.752</ele>
        <time>2019-03-29T18:41:22Z</time>
      </trkpt>
      <trkpt lat="42.54978" lon="1.84251">
        <ele>1659.349</ele>
        <time>2019-03-29T18:41:42Z</time>
      </trkpt>
      <trkpt lat="42.54951" lon="1.84207">
        <ele>1654.623</ele>
        <time>2015-08-27T01:46:20Z</time>
      </trkpt>
      <trkpt lat="42.54941" lon="1.84111">
        <ele>1654.133</ele>
        <time>2015-08-27T01:46:40Z</time>
      </trkpt>
      <trkpt lat="42.54916" lon="1.84016">
        <ele>1643.523</ele>
        <time>2015-08-27T01:47:00Z</time>
      </trkpt>
      <trkpt lat="42.54922" lon="1.83908">
        <ele>1641.315</ele>
        <time>2015-08-27T01:47:20Z</time>
      </trkpt>
      <trkpt lat="42.54901" lon="1.83627">
        <ele>1628.908</ele>
        <time>2015-08-27T01:47:40Z</time>
      </trkpt>
      <trkpt lat="42.54903" lon="1.83505">
        <ele>1626.589</ele>
        <time>2015-08-27T01:48:00Z</time>
      </trkpt>
      <trkpt lat="42.54886" lon="1.83398">
        <ele>1627.264</ele>
        <time>2015-08-27T01:48:20Z</time>
      </trkpt>
      <trkpt lat="42.54877" lon="1.83335">
        <ele>1627.755</ele>
        <time>2019-03-29T18:44:22Z</time>
      </trkpt>
      <trkpt lat="42.54862" lon="1.83318">
        <ele>1624.07</ele>
        <time>2019-03-29T18:44:42Z</time>
      </trkpt>
      <trkpt lat="42.54828" lon="1.83298">
        <ele>1619.539</ele>
        <time>2019-03-29T18:45:02Z</time>
      </trkpt>
      <trkpt lat="42.54847" lon="1.83293">
        <ele>1620.332</ele>
        <time>2015-08-27T01:50:00Z</time>
      </trkpt>
      <trkpt lat="42.54853" lon="1.83257">
        <ele>1619.529</ele>
        <time>2015-08-27T01:50:20Z</time>
      </trkpt>
      <trkpt lat="42.54847" lon="1.8322">
        <ele>1619.643</ele>
        <time>2015-08-27T01:50:40Z</time>
      </trkpt>
      <trkpt lat="42.54846" lon="1.83184">
        <ele>1621.599</ele>
        <time>2015-08-27T01:51:00Z</time>
      </trkpt>
      <trkpt lat="42.54815" lon="1.83138">
        <ele>1620.307</ele>
        <time>2015-08-27T01:51:20Z</time>
      </trkpt>
      <trkpt lat="42.54802" lon="1.83097">
        <ele>1618.027</ele>
        <time>2015-08-27T01:51:40Z</time>
      </trkpt>
      <trkpt lat="42.54802" lon="1.83055">
        <ele>1616.508</ele>
        <time>2015-08-27T01:52:00Z</time>
      </trkpt>
      <trkpt lat="42.54795" lon="1.82969">
        <ele>1612.425</ele>
        <time>2015-08-27T01:52:20Z</time>
      </trkpt>
      <trkpt lat="42.54739" lon="1.82898">
        <ele>1604.14</ele>
        <time>2015-08-27T01:52:40Z</time>
      </trkpt>
      <trkpt lat="42.54685" lon="1.82584">
        <ele>1604.251</ele>
        <time>2015-08-27T01:53:00Z</time>
      </trkpt>
      <trkpt lat="42.54672" lon="1.82572">
        <ele>1603.026</ele>
        <time>2015-08-27T01:53:20Z</time>
      </trkpt>
      <trkpt lat="42.54611" lon="1.82568">
        <ele>1601.955</ele>
        <time>2015-08-27T01:53:40Z</time>
      </trkpt>
      <trkpt lat="42.54593" lon="1.82551">
        <ele>1604.868</ele>
        <time>2015-08-27T01:54:00Z</time>
      </trkpt>
      <trkpt lat="42.54572" lon="1.82558">
        <ele>1603.225</ele>
        <time>2015-08-27T01:54:20Z</time>
      </trkpt>
      <trkpt lat="42.54534" lon="1.82558">
        <ele>1603.599</ele>
        <time>2015-08-27T01:54:40Z</time>
      </trkpt>
      <trkpt lat="42.545" lon="1.82547">
        <ele>1608.855</ele>
        <time>2015-08-27T01:55:00Z</time>
      </trkpt>
      <trkpt lat="42.54416" lon="1.82563">
        <ele>1615.407</ele>
        <time>2015-08-27T01:55:20Z</time>
      </trkpt>
      <trkpt lat="42.54391" lon="1.82582">
        <ele>1612.517</ele>
        <time>2015-08-27T01:55:40Z</time>
      </trkpt>
      <trkpt lat="42.54358" lon="1.82599">
        <ele>1613.508</ele>
        <time>2015-08-27T01:56:00Z</time>
      </trkpt>
      <trkpt lat="42.54323" lon="1.82622">
        <ele>1607.871</ele>
        <time>2015-08-27T01:56:20Z</time>
      </trkpt>
      <trkpt lat="42.54291" lon="1.82633">
        <ele>1608.826</ele>
        <time>2015-08-27T01:56:40Z</time>
      </trkpt>
      <trkpt lat="42.54199" lon="1.82679">
        <ele>1604.987</ele>
        <time>2015-08-27T01:57:00Z</time>
      </trkpt>
      <trkpt lat="42.54158" lon="1.82694">
        <ele>1597.252</ele>
        <time>2015-08-27T01:57:20Z</time>
      </trkpt>
      <trkpt lat="42.54144" lon="1.82649">
        <ele>1596.211</ele>
        <time>2015-08-27T01:57:40Z</time>
      </trkpt>
      <trkpt lat="42.54144" lon="1.82598">
        <ele>1592.914</ele>
        <time>2015-08-27T01:58:00Z</time>
      </trkpt>
      <trkpt lat="42.54168" lon="1.82549">
        <ele>1587.071</ele>
        <time>2015-08-27T01:58:20Z</time>
      </trkpt>
      <trkpt lat="42.54171" lon="1.82507">
        <ele>1580.535</ele>
        <time>2015-08-27T01:58:40Z</time>
      </trkpt>
      <trkpt lat="42.54153" lon="1.8244">
        <ele>1574.171</ele>
        <time>2015-08-27T01:59:00Z</time>
      </trkpt>
      <trkpt lat="42.54139" lon="1.82417">
        <ele>1572.041</ele>
        <time>2015-08-27T01:59:20Z</time>
      </trkpt>
      <trkpt lat="42.5412" lon="1.82404">
        <ele>1570.915</ele>
        <time>2015-08-27T01:59:40Z</time>
      </trkpt>
      <trkpt lat="42.54113" lon="1.82389">
        <ele>1570.308</ele>
        <time>2015-08-27T02:00:00Z</time>
      </trkpt>
      <trkpt lat="42.5411" lon="1.82347">
        <ele>1573.993</ele>
        <time>2015-08-27T02:00:20Z</time>
      </trkpt>
      <trkpt lat="42.54098" lon="1.82331">
        <ele>1574.928</ele>
        <time>2015-08-27T02:00:40Z</time>
      </trkpt>
      <trkpt lat="42.54049" lon="1.82309">
        <ele>1571.029</ele>
        <time>2015-08-27T02:01:00Z</time>
      </trkpt>
      <trkpt lat="42.53968" lon="1.8226">
        <ele>1561.134</ele>
        <time>2015-08-27T02:01:20Z</time>
      </trkpt>
      <trkpt lat="42.53929" lon="1.82225">
        <ele>1563.443</ele>
        <time>2015-08-27T02:01:40Z</time>
      </trkpt>
      <trkpt lat="42.53895" lon="1.82235">
        <ele>1559.016</ele>
        <time>2015-08-27T02:02:00Z</time>
      </trkpt>
      <trkpt lat="42.53854" lon="1.82222">
        <ele>1556.023</ele>
        <time>2015-08-27T02:02:20Z</time>
      </trkpt>
      <trkpt lat="42.53822" lon="1.82271">
        <ele>1550.137</ele>
        <time>2015-08-27T02:02:40Z</time>
      </trkpt>
      <trkpt lat="42.53794" lon="1.82271">
        <ele>1549.614</ele>
        <time>2015-08-27T02:03:00Z</time>
      </trkpt>
      <trkpt lat="42.5373" lon="1.82229">
        <ele>1548.354</ele>
        <time>2015-08-27T02:03:20Z</time>
      </trkpt>
      <trkpt lat="42.53701" lon="1.82193">
        <ele>1547.309</ele>
        <time>2015-08-27T02:03:40Z</time>
      </trkpt>
      <trkpt lat="42.53665" lon="1.82134">
        <ele>1548.108</ele>
        <time>2015-08-27T02:04:00Z</time>
      </trkpt>
      <trkpt lat="42.53598" lon="1.82133">
        <ele>1546.897</ele>
        <time>2015-08-27T02:04:20Z</time>
      </trkpt>
      <trkpt lat="42.53519" lon="1.82111">
        <ele>1546.712</ele>
        <time>2015-08-27T02:04:40Z</time>
      </trkpt>
      <trkpt lat="42.53446" lon="1.82122">
        <ele>1544.883</ele>
        <time>2015-08-27T02:05:00Z</time>
      </trkpt>
      <trkpt lat="42.53333" lon="1.82135">
        <ele>1540.078</ele>
        <time>2015-08-27T02:05:20Z</time>
      </trkpt>
      <trkpt lat="42.53322" lon="1.82159">
        <ele>1540.047</ele>
        <time>2015-08-27T02:05:40Z</time>
      </trkpt>
      <trkpt lat="42.53291" lon="1.8215">
        <ele>1540.01</ele>
        <time>2015-08-27T02:06:00Z</time>
      </trkpt>
      <trkpt lat="42.53262" lon="1.82116">
        <ele>1540.057</ele>
        <time>2015-08-27T02:06:20Z</time>
      </trkpt>
      <trkpt lat="42.53219" lon="1.82104">
        <ele>1540.041</ele>
        <time>2015-08-27T02:06:40Z</time>
      </trkpt>
      <trkpt lat="42.53175" lon="1.82063">
        <ele>1540.058</ele>
        <time>2015-08-27T02:07:00Z</time>
      </trkpt>
      <trkpt lat="42.53149" lon="1.82063">
        <ele>1540.052</ele>
        <time>2015-08-27T02:07:20Z</time>
      </trkpt>
      <trkpt lat="42.5311" lon="1.82104">
        <ele>1538.117</ele>
        <time>2015-08-27T02:07:40Z</time>
      </trkpt>
      <trkpt lat="42.53008" lon="1.82203">
        <ele>1532.708</ele>
        <time>2015-08-27T02:08:00Z</time>
      </trkpt>
      <trkpt lat="42.52996" lon="1.8224">
        <ele>1535.431</ele>
        <time>2015-08-27T02:08:20Z</time>
      </trkpt>
      <trkpt lat="42.52971" lon="1.82261">
        <ele>1530.996</ele>
        <time>2015-08-27T02:08:40Z</time>
      </trkpt>
      <trkpt lat="42.52956" lon="1.823">
        <ele>1531.687</ele>
        <time>2015-08-27T02:09:00Z</time>
      </trkpt>
      <trkpt lat="42.52926" lon="1.82315">
        <ele>1526.452</ele>
        <time>2015-08-27T02:09:20Z</time>
      </trkpt>
      <trkpt lat="42.52904" lon="1.82353">
        <ele>1525.621</ele>
        <time>2015-08-27T02:09:40Z</time>
      </trkpt>
      <trkpt lat="42.52859" lon="1.82371">
        <ele>1521.654</ele>
        <time>2015-08-27T02:10:00Z</time>
      </trkpt>
      <trkpt lat="42.52799" lon="1.82365">
        <ele>1518.161</ele>
        <time>2015-08-27T02:10:20Z</time>
      </trkpt>
      <trkpt lat="42.52782" lon="1.82372">
        <ele>1516.385</ele>
        <time>2015-08-27T02:10:40Z</time>
      </trkpt>
      <trkpt lat="42.5273" lon="1.82342">
        <ele>1511.452</ele>
        <time>2015-08-27T02:11:00Z</time>
      </trkpt>
      <trkpt lat="42.52656" lon="1.82293">
        <ele>1510.053</ele>
        <time>2015-08-27T02:11:20Z</time>
      </trkpt>
      <trkpt lat="42.5254" lon="1.8227">
        <ele>1509.008</ele>
        <time>2015-08-27T02:11:40Z</time>
      </trkpt>
      <trkpt lat="42.52452" lon="1.82185">
        <ele>1505.008</ele>
        <time>2015-08-27T02:12:00Z</time>
      </trkpt>
      <trkpt lat="42.5238" lon="1.82098">
        <ele>1500.761</ele>
        <time>2015-08-27T02:12:20Z</time>
      </trkpt>
      <trkpt lat="42.52383" lon="1.82073">
        <ele>1501.176</ele>
        <time>2015-08-27T02:12:40Z</time>
      </trkpt>
      <trkpt lat="42.52369" lon="1.82047">
        <ele>1501.277</ele>
        <time>2015-08-27T02:13:00Z</time>
      </trkpt>
      <trkpt lat="42.52389" lon="1.8195">
        <ele>1507.842</ele>
        <time>2015-08-27T02:13:20Z</time>
      </trkpt>
      <trkpt lat="42.52367" lon="1.81918">
        <ele>1509.941</ele>
        <time>2015-08-27T02:13:40Z</time>
      </trkpt>
      <trkpt lat="42.52354" lon="1.81885">
        <ele>1514.324</ele>
        <time>2015-08-27T02:14:00Z</time>
      </trkpt>
      <trkpt lat="42.52353" lon="1.81822">
        <ele>1523.371</ele>
        <time>2015-08-27T02:14:20Z</time>
      </trkpt>
      <trkpt lat="42.52296" lon="1.81772">
        <ele>1529.615</ele>
        <time>2015-08-27T02:14:40Z</time>
      </trkpt>
      <trkpt lat="42.52282" lon="1.81736">
        <ele>1535.856</ele>
        <time>2015-08-27T02:15:00Z</time>
      </trkpt>
      <trkpt lat="42.52264" lon="1.81714">
        <ele>1536.859</ele>
        <time>2015-08-27T02:15:20Z</time>
      </trkpt>
      <trkpt lat="42.52245" lon="1.81638">
        <ele>1551.614</ele>
        <time>2019-03-29T19:11:02Z</time>
      </trkpt>
      <trkpt lat="42.52194" lon="1.81602">
        <ele>1567.008</ele>
        <time>2019-03-29T19:11:22Z</time>
      </trkpt>
      <trkpt lat="42.52142" lon="1.81603">
        <ele>1568.821</ele>
        <time>2015-08-27T02:17:20Z</time>
      </trkpt>
      <trkpt lat="42.52117" lon="1.81594">
        <ele>1574.166</ele>
        <time>2015-08-27T02:17:40Z</time>
      </trkpt>
      <trkpt lat="42.52076" lon="1.81541">
        <ele>1583.257</ele>
        <time>2015-08-27T02:18:00Z</time>
      </trkpt>
      <trkpt lat="42.52055" lon="1.81529">
        <ele>1585.942</ele>
        <time>2015-08-27T02:18:20Z</time>
      </trkpt>
      <trkpt lat="42.52003" lon="1.81523">
        <ele>1592.681</ele>
        <time>2015-08-27T02:18:40Z</time>
      </trkpt>
      <trkpt lat="42.51914" lon="1.81487">
        <ele>1611.774</ele>
        <time>2015-08-27T02:19:00Z</time>
      </trkpt>
      <trkpt lat="42.51871" lon="1.81458">
        <ele>1627.581</ele>
        <time>2015-08-27T02:19:20Z</time>
      </trkpt>
      <trkpt lat="42.51784" lon="1.81425">
        <ele>1639.895</ele>
        <time>2015-08-27T02:19:40Z</time>
      </trkpt>
      <trkpt lat="42.51767" lon="1.81405">
        <ele>1641.526</ele>
        <time>2015-08-27T02:20:00Z</time>
      </trkpt>
      <trkpt lat="42.51759" lon="1.81363">
        <ele>1647.447</ele>
        <time>2015-08-27T02:20:20Z</time>
      </trkpt>
      <trkpt lat="42.51747" lon="1.81328">
        <ele>1651.111</ele>
        <time>2015-08-27T02:20:40Z</time>
      </trkpt>
      <trkpt lat="42.51722" lon="1.81221">
        <ele>1666.408</ele>
        <time>2015-08-27T02:21:00Z</time>
      </trkpt>
      <trkpt lat="42.51706" lon="1.81176">
        <ele>1673.748</ele>
        <time>2015-08-27T02:21:20Z</time>
      </trkpt>
      <trkpt lat="42.51682" lon="1.81126">
        <ele>1677.073</ele>
        <time>2015-08-27T02:21:40Z</time>
      </trkpt>
      <trkpt lat="42.51684" lon="1.81028">
        <ele>1695.554</ele>
        <time>2015-08-27T02:22:00Z</time>
      </trkpt>
      <trkpt lat="42.51672" lon="1.80979">
        <ele>1699.929</ele>
        <time>2015-08-27T02:22:20Z</time>
      </trkpt>
      <trkpt lat="42.51667" lon="1.80951">
        <ele>1703.248</ele>
        <time>2015-08-27T02:22:40Z</time>
      </trkpt>
      <trkpt lat="42.51648" lon="1.8088">
        <ele>1708.571</ele>
        <time>2015-08-27T02:23:00Z</time>
      </trkpt>
      <trkpt lat="42.51632" lon="1.80861">
        <ele>1707.498</ele>
        <time>2015-08-27T02:23:20Z</time>
      </trkpt>
      <trkpt lat="42.51628" lon="1.80834">
        <ele>1709.752</ele>
        <time>2015-08-27T02:23:40Z</time>
      </trkpt>
      <trkpt lat="42.51604" lon="1.80799">
        <ele>1709.891</ele>
        <time>2015-08-27T02:24:00Z</time>
      </trkpt>
      <trkpt lat="42.51576" lon="1.80781">
        <ele>1709.481</ele>
        <time>2015-08-27T02:24:20Z</time>
      </trkpt>
      <trkpt lat="42.51547" lon="1.8071">
        <ele>1716.819</ele>
        <time>2015-08-27T02:24:40Z</time>
      </trkpt>
      <trkpt lat="42.51546" lon="1.80673">
        <ele>1722.108</ele>
        <time>2015-08-27T02:25:00Z</time>
      </trkpt>
      <trkpt lat="42.51559" lon="1.80643">
        <ele>1729.245</ele>
        <time>2015-08-27T02:25:20Z</time>
      </trkpt>
      <trkpt lat="42.51546" lon="1.80584">
        <ele>1732.83</ele>
        <time>2015-08-27T02:25:40Z</time>
      </trkpt>
      <trkpt lat="42.51524" lon="1.80537">
        <ele>1734.791</ele>
        <time>2015-08-27T02:26:00Z</time>
      </trkpt>
      <trkpt lat="42.51479" lon="1.80491">
        <ele>1738.756</ele>
        <time>2015-08-27T02:26:20Z</time>
      </trkpt>
      <trkpt lat="42.51467" lon="1.8046">
        <ele>1740.625</ele>
        <time>2015-08-27T02:26:40Z</time>
      </trkpt>
      <trkpt lat="42.51469" lon="1.80429">
        <ele>1744.138</ele>
        <time>2015-08-27T02:27:00Z</time>
      </trkpt>
      <trkpt lat="42.51443" lon="1.80328">
        <ele>1748.665</ele>
        <time>2015-08-27T02:27:20Z</time>
      </trkpt>
      <trkpt lat="42.51441" lon="1.80284">
        <ele>1753.639</ele>
        <time>2015-08-27T02:27:40Z</time>
      </trkpt>
      <trkpt lat="42.51397" lon="1.80225">
        <ele>1759.185</ele>
        <time>2015-08-27T02:28:00Z</time>
      </trkpt>
      <trkpt lat="42.51386" lon="1.80196">
        <ele>1760.889</ele>
        <time>2015-08-27T02:28:20Z</time>
      </trkpt>
      <trkpt lat="42.5136" lon="1.80059">
        <ele>1771.317</ele>
        <time>2015-08-27T02:28:40Z</time>
      </trkpt>
      <trkpt lat="42.51322" lon="1.79992">
        <ele>1776.108</ele>
        <time>2015-08-27T02:29:00Z</time>
      </trkpt>
      <trkpt lat="42.51298" lon="1.79959">
        <ele>1779.614</ele>
        <time>2015-08-27T02:29:20Z</time>
      </trkpt>
      <trkpt lat="42.51288" lon="1.79931">
        <ele>1783.589</ele>
        <time>2015-08-27T02:29:40Z</time>
      </trkpt>
      <trkpt lat="42.51254" lon="1.79889">
        <ele>1785.62</ele>
        <time>2015-08-27T02:30:00Z</time>
      </trkpt>
      <trkpt lat="42.5124" lon="1.79848">
        <ele>1788.045</ele>
        <time>2015-08-27T02:30:20Z</time>
      </trkpt>
      <trkpt lat="42.51239" lon="1.79819">
        <ele>1790.834</ele>
        <time>2015-08-27T02:30:40Z</time>
      </trkpt>
      <trkpt lat="42.51225" lon="1.79736">
        <ele>1793.617</ele>
        <time>2015-08-27T02:31:00Z</time>
      </trkpt>
      <trkpt lat="42.51224" lon="1.79688">
        <ele>1796.824</ele>
        <time>2015-08-27T02:31:20Z</time>
      </trkpt>
      <trkpt lat="42.51206" lon="1.79633">
        <ele>1798.328</ele>
        <time>2015-08-27T02:31:40Z</time>
      </trkpt>
      <trkpt lat="42.51199" lon="1.79589">
        <ele>1802.181</ele>
        <time>2015-08-27T02:32:00Z</time>
      </trkpt>
      <trkpt lat="42.51185" lon="1.79529">
        <ele>1809.161</ele>
        <time>2015-08-27T02:32:20Z</time>
      </trkpt>
      <trkpt lat="42.5117" lon="1.79479">
        <ele>1815.417</ele>
        <time>2015-08-27T02:32:40Z</time>
      </trkpt>
      <trkpt lat="42.5116" lon="1.79434">
        <ele>1824.608</ele>
        <time>2015-08-27T02:33:00Z</time>
      </trkpt>
      <trkpt lat="42.51112" lon="1.79351">
        <ele>1838.954</ele>
        <time>2015-08-27T02:33:20Z</time>
      </trkpt>
      <trkpt lat="42.51102" lon="1.79319">
        <ele>1842.899</ele>
        <time>2015-08-27T02:33:40Z</time>
      </trkpt>
      <trkpt lat="42.51096" lon="1.79279">
        <ele>1845.67</ele>
        <time>2015-08-27T02:34:00Z</time>
      </trkpt>
      <trkpt lat="42.51107" lon="1.79214">
        <ele>1855.865</ele>
        <time>2015-08-27T02:34:20Z</time>
      </trkpt>
      <trkpt lat="42.51082" lon="1.79152">
        <ele>1859.614</ele>
        <time>2015-08-27T02:34:40Z</time>
      </trkpt>
      <trkpt lat="42.51093" lon="1.79031">
        <ele>1882.527</ele>
        <time>2015-08-27T02:35:00Z</time>
      </trkpt>
      <trkpt lat="42.51076" lon="1.78995">
        <ele>1882.844</ele>
        <time>2015-08-27T02:35:20Z</time>
      </trkpt>
      <trkpt lat="42.51078" lon="1.78945">
        <ele>1890.568</ele>
        <time>2015-08-27T02:35:40Z</time>
      </trkpt>
      <trkpt lat="42.51071" lon="1.78918">
        <ele>1889.799</ele>
        <time>2015-08-27T02:36:00Z</time>
      </trkpt>
      <trkpt lat="42.51073" lon="1.78885">
        <ele>1895.507</ele>
        <time>2015-08-27T02:36:20Z</time>
      </trkpt>
      <trkpt lat="42.51066" lon="1.78836">
        <ele>1900.127</ele>
        <time>2015-08-27T02:36:40Z</time>
      </trkpt>
      <trkpt lat="42.51045" lon="1.78788">
        <ele>1904.908</ele>
        <time>2015-08-27T02:37:00Z</time>
      </trkpt>
      <trkpt lat="42.51035" lon="1.78739">
        <ele>1913.275</ele>
        <time>2015-08-27T02:37:20Z</time>
      </trkpt>
      <trkpt lat="42.51015" lon="1.7871">
        <ele>1915.45</ele>
        <time>2015-08-27T02:37:40Z</time>
      </trkpt>
      <trkpt lat="42.51" lon="1.78671">
        <ele>1920.341</ele>
        <time>2015-08-27T02:38:00Z</time>
      </trkpt>
      <trkpt lat="42.50994" lon="1.78623">
        <ele>1924.126</ele>
        <time>2015-08-27T02:38:20Z</time>
      </trkpt>
      <trkpt lat="42.50991" lon="1.7855">
        <ele>1927.825</ele>
        <time>2015-08-27T02:38:40Z</time>
      </trkpt>
      <trkpt lat="42.50993" lon="1.78523">
        <ele>1930.118</ele>
        <time>2015-08-27T02:39:00Z</time>
      </trkpt>
      <trkpt lat="42.50969" lon="1.78425">
        <ele>1938.495</ele>
        <time>2015-08-27T02:39:20Z</time>
      </trkpt>
      <trkpt lat="42.50943" lon="1.78364">
        <ele>1946.619</ele>
        <time>2015-08-27T02:39:40Z</time>
      </trkpt>
      <trkpt lat="42.50931" lon="1.78319">
        <ele>1951.752</ele>
        <time>2015-08-27T02:40:00Z</time>
      </trkpt>
      <trkpt lat="42.50907" lon="1.7829">
        <ele>1953.853</ele>
        <time>2015-08-27T02:40:20Z</time>
      </trkpt>
      <trkpt lat="42.50896" lon="1.78258">
        <ele>1958.408</ele>
        <time>2015-08-27T02:40:40Z</time>
      </trkpt>
      <trkpt lat="42.50859" lon="1.78207">
        <ele>1962.908</ele>
        <time>2015-08-27T02:41:00Z</time>
      </trkpt>
      <trkpt lat="42.50863" lon="1.78177">
        <ele>1965.421</ele>
        <time>2015-08-27T02:41:20Z</time>
      </trkpt>
      <trkpt lat="42.50858" lon="1.78127">
        <ele>1970.276</ele>
        <time>2015-08-27T02:41:40Z</time>
      </trkpt>
      <trkpt lat="42.50843" lon="1.78087">
        <ele>1974.827</ele>
        <time>2015-08-27T02:42:00Z</time>
      </trkpt>
      <trkpt lat="42.50846" lon="1.78055">
        <ele>1981.262</ele>
        <time>2015-08-27T02:42:20Z</time>
      </trkpt>
      <trkpt lat="42.50834" lon="1.78048">
        <ele>1983.281</ele>
        <time>2015-08-27T02:42:40Z</time>
      </trkpt>
      <trkpt lat="42.50831" lon="1.78034">
        <ele>1987.024</ele>
        <time>2015-08-27T02:43:00Z</time>
      </trkpt>
      <trkpt lat="42.50858" lon="1.77986">
        <ele>1996.761</ele>
        <time>2015-08-27T02:43:20Z</time>
      </trkpt>
      <trkpt lat="42.50848" lon="1.77959">
        <ele>1999.385</ele>
        <time>2015-08-27T02:43:40Z</time>
      </trkpt>
      <trkpt lat="42.50856" lon="1.77903">
        <ele>2008.338</ele>
        <time>2015-08-27T02:44:00Z</time>
      </trkpt>
      <trkpt lat="42.50867" lon="1.7787">
        <ele>2015.47</ele>
        <time>2015-08-27T02:44:20Z</time>
      </trkpt>
      <trkpt lat="42.50869" lon="1.77839">
        <ele>2022.217</ele>
        <time>2015-08-27T02:44:40Z</time>
      </trkpt>
      <trkpt lat="42.50847" lon="1.7782">
        <ele>2020.808</ele>
        <time>2015-08-27T02:45:00Z</time>
      </trkpt>
      <trkpt lat="42.50835" lon="1.77777">
        <ele>2022.649</ele>
        <time>2015-08-27T02:45:20Z</time>
      </trkpt>
      <trkpt lat="42.50834" lon="1.77755">
        <ele>2025.474</ele>
        <time>2015-08-27T02:45:40Z</time>
      </trkpt>
      <trkpt lat="42.50826" lon="1.77717">
        <ele>2026.535</ele>
        <time>2015-08-27T02:46:00Z</time>
      </trkpt>
      <trkpt lat="42.50822" lon="1.77629">
        <ele>2031.27</ele>
        <time>2015-08-27T02:46:20Z</time>
      </trkpt>
      <trkpt lat="42.50831" lon="1.77596">
        <ele>2036.789</ele>
        <time>2015-08-27T02:46:40Z</time>
      </trkpt>
      <trkpt lat="42.50821" lon="1.7757">
        <ele>2033.362</ele>
        <time>2015-08-27T02:47:00Z</time>
      </trkpt>
      <trkpt lat="42.5082" lon="1.77522">
        <ele>2035.329</ele>
        <time>2015-08-27T02:47:20Z</time>
      </trkpt>
      <trkpt lat="42.50831" lon="1.77476">
        <ele>2039.273</ele>
        <time>2015-08-27T02:47:40Z</time>
      </trkpt>
      <trkpt lat="42.50831" lon="1.77454">
        <ele>2039.597</ele>
        <time>2015-08-27T02:48:00Z</time>
      </trkpt>
      <trkpt lat="42.50852" lon="1.77367">
        <ele>2047.023</ele>
        <time>2015-08-27T02:48:20Z</time>
      </trkpt>
      <trkpt lat="42.5089" lon="1.77309">
        <ele>2058.625</ele>
        <time>2015-08-27T02:48:40Z</time>
      </trkpt>
      <trkpt lat="42.50897" lon="1.77252">
        <ele>2061.608</ele>
        <time>2015-08-27T02:49:00Z</time>
      </trkpt>
      <trkpt lat="42.50863" lon="1.77213">
        <ele>2058.685</ele>
        <time>2015-08-27T02:49:20Z</time>
      </trkpt>
      <trkpt lat="42.50857" lon="1.77143">
        <ele>2066.52</ele>
        <time>2015-08-27T02:49:40Z</time>
      </trkpt>
      <trkpt lat="42.50836" lon="1.77143">
        <ele>2066.661</ele>
        <time>2015-08-27T02:50:00Z</time>
      </trkpt>
      <trkpt lat="42.50832" lon="1.77106">
        <ele>2070.666</ele>
        <time>2015-08-27T02:50:20Z</time>
      </trkpt>
      <trkpt lat="42.50838" lon="1.77068">
        <ele>2074.285</ele>
        <time>2015-08-27T02:50:40Z</time>
      </trkpt>
      <trkpt lat="42.50824" lon="1.77018">
        <ele>2080.478</ele>
        <time>2015-08-27T02:51:00Z</time>
      </trkpt>
      <trkpt lat="42.50823" lon="1.76991">
        <ele>2082.185</ele>
        <time>2015-08-27T02:51:20Z</time>
      </trkpt>
      <trkpt lat="42.50818" lon="1.76972">
        <ele>2083.169</ele>
        <time>2015-08-27T02:51:40Z</time>
      </trkpt>
      <trkpt lat="42.50813" lon="1.76919">
        <ele>2086.019</ele>
        <time>2015-08-27T02:52:00Z</time>
      </trkpt>
      <trkpt lat="42.50824" lon="1.76889">
        <ele>2085.009</ele>
        <time>2015-08-27T02:52:20Z</time>
      </trkpt>
      <trkpt lat="42.50826" lon="1.76802">
        <ele>2086.219</ele>
        <time>2015-08-27T02:52:40Z</time>
      </trkpt>
      <trkpt lat="42.50834" lon="1.76736">
        <ele>2084.308</ele>
        <time>2015-08-27T02:53:00Z</time>
      </trkpt>
      <trkpt lat="42.50831" lon="1.76678">
        <ele>2088.667</ele>
        <time>2015-08-27T02:53:20Z</time>
      </trkpt>
      <trkpt lat="42.50837" lon="1.76632">
        <ele>2091.192</ele>
        <time>2015-08-27T02:53:40Z</time>
      </trkpt>
      <trkpt lat="42.50821" lon="1.7654">
        <ele>2098.413</ele>
        <time>2015-08-27T02:54:00Z</time>
      </trkpt>
      <trkpt lat="42.5083" lon="1.76468">
        <ele>2102.568</ele>
        <time>2015-08-27T02:54:20Z</time>
      </trkpt>
      <trkpt lat="42.50829" lon="1.76443">
        <ele>2103.627</ele>
        <time>2015-08-27T02:54:40Z</time>
      </trkpt>
      <trkpt lat="42.50838" lon="1.76425">
        <ele>2102.81</ele>
        <time>2015-08-27T02:55:00Z</time>
      </trkpt>
      <trkpt lat="42.50833" lon="1.76401">
        <ele>2105.747</ele>
        <time>2015-08-27T02:55:20Z</time>
      </trkpt>
      <trkpt lat="42.50848" lon="1.76369">
        <ele>2105.571</ele>
        <time>2015-08-27T02:55:40Z</time>
      </trkpt>
      <trkpt lat="42.50853" lon="1.76316">
        <ele>2109.363</ele>
        <time>2015-08-27T02:56:00Z</time>
      </trkpt>
      <trkpt lat="42.50873" lon="1.76186">
        <ele>2114.744</ele>
        <time>2015-08-27T02:56:20Z</time>
      </trkpt>
      <trkpt lat="42.50872" lon="1.76128">
        <ele>2119.218</ele>
        <time>2015-08-27T02:56:40Z</time>
      </trkpt>
      <trkpt lat="42.50849" lon="1.76082">
        <ele>2130.608</ele>
        <time>2015-08-27T02:57:00Z</time>
      </trkpt>
      <trkpt lat="42.50844" lon="1.76013">
        <ele>2132.992</ele>
        <time>2015-08-27T02:57:20Z</time>
      </trkpt>
      <trkpt lat="42.50835" lon="1.75986">
        <ele>2136.517</ele>
        <time>2015-08-27T02:57:40Z</time>
      </trkpt>
      <trkpt lat="42.50838" lon="1.75963">
        <ele>2134.488</ele>
        <time>2015-08-27T02:58:00Z</time>
      </trkpt>
      <trkpt lat="42.50821" lon="1.75939">
        <ele>2141.163</ele>
        <time>2015-08-27T02:58:20Z</time>
      </trkpt>
      <trkpt lat="42.50801" lon="1.75894">
        <ele>2145.832</ele>
        <time>2015-08-27T02:58:40Z</time>
      </trkpt>
      <trkpt lat="42.50795" lon="1.75863">
        <ele>2145.925</ele>
        <time>2015-08-27T02:59:00Z</time>
      </trkpt>
      <trkpt lat="42.50782" lon="1.75845">
        <ele>2147.572</ele>
        <time>2015-08-27T02:59:20Z</time>
      </trkpt>
      <trkpt lat="42.50779" lon="1.75799">
        <ele>2145.686</ele>
        <time>2015-08-27T02:59:40Z</time>
      </trkpt>
      <trkpt lat="42.50743" lon="1.75726">
        <ele>2145.092</ele>
        <time>2015-08-27T03:00:00Z</time>
      </trkpt>
      <trkpt lat="42.50738" lon="1.75698">
        <ele>2144.173</ele>
        <time>2015-08-27T03:00:20Z</time>
      </trkpt>
      <trkpt lat="42.50737" lon="1.75644">
        <ele>2145.42</ele>
        <time>2015-08-27T03:00:40Z</time>
      </trkpt>
      <trkpt lat="42.50766" lon="1.75566">
        <ele>2151.008</ele>
        <time>2015-08-27T03:01:00Z</time>
      </trkpt>
      <trkpt lat="42.50761" lon="1.75477">
        <ele>2158.385</ele>
        <time>2015-08-27T03:01:20Z</time>
      </trkpt>
      <trkpt lat="42.50742" lon="1.75393">
        <ele>2168.37</ele>
        <time>2015-08-27T03:01:40Z</time>
      </trkpt>
      <trkpt lat="42.50716" lon="1.75327">
        <ele>2179.551</ele>
        <time>2015-08-27T03:02:00Z</time>
      </trkpt>
      <trkpt lat="42.50693" lon="1.7525">
        <ele>2197.046</ele>
        <time>2015-08-27T03:02:20Z</time>
      </trkpt>
      <trkpt lat="42.50655" lon="1.75211">
        <ele>2203.775</ele>
        <time>2015-08-27T03:02:40Z</time>
      </trkpt>
      <trkpt lat="42.50636" lon="1.75172">
        <ele>2208.928</ele>
        <time>2015-08-27T03:03:00Z</time>
      </trkpt>
      <trkpt lat="42.50618" lon="1.75162">
        <ele>2209.135</ele>
        <time>2015-08-27T03:03:20Z</time>
      </trkpt>
      <trkpt lat="42.50608" lon="1.75038">
        <ele>2220.299</ele>
        <time>2015-08-27T03:03:40Z</time>
      </trkpt>
      <trkpt lat="42.50626" lon="1.7499">
        <ele>2229.787</ele>
        <time>2015-08-27T03:04:00Z</time>
      </trkpt>
      <trkpt lat="42.50643" lon="1.74894">
        <ele>2244.342</ele>
        <time>2015-08-27T03:04:20Z</time>
      </trkpt>
      <trkpt lat="42.50645" lon="1.74872">
        <ele>2247.026</ele>
        <time>2015-08-27T03:04:40Z</time>
      </trkpt>
      <trkpt lat="42.50652" lon="1.74851">
        <ele>2250.308</ele>
        <time>2015-08-27T03:05:00Z</time>
      </trkpt>
      <trkpt lat="42.50653" lon="1.74813">
        <ele>2253.284</ele>
        <time>2015-08-27T03:05:20Z</time>
      </trkpt>
      <trkpt lat="42.50665" lon="1.74779">
        <ele>2255.969</ele>
        <time>2015-08-27T03:05:40Z</time>
      </trkpt>
      <trkpt lat="42.50649" lon="1.74719">
        <ele>2261.62</ele>
        <time>2015-08-27T03:06:00Z</time>
      </trkpt>
      <trkpt lat="42.50647" lon="1.74683">
        <ele>2268.285</ele>
        <time>2015-08-27T03:06:20Z</time>
      </trkpt>
      <trkpt lat="42.50652" lon="1.74665">
        <ele>2271.854</ele>
        <time>2015-08-27T03:06:40Z</time>
      </trkpt>
      <trkpt lat="42.50651" lon="1.74625">
        <ele>2278.877</ele>
        <time>2015-08-27T03:07:00Z</time>
      </trkpt>
      <trkpt lat="42.50644" lon="1.74586">
        <ele>2284.744</ele>
        <time>2015-08-27T03:07:20Z</time>
      </trkpt>
      <trkpt lat="42.50658" lon="1.74547">
        <ele>2290.098</ele>
        <time>2015-08-27T03:07:40Z</time>
      </trkpt>
      <trkpt lat="42.50654" lon="1.74501">
        <ele>2294.634</ele>
        <time>2015-08-27T03:08:00Z</time>
      </trkpt>
      <trkpt lat="42.50696" lon="1.7432">
        <ele>2314.755</ele>
        <time>2015-08-27T03:08:20Z</time>
      </trkpt>
      <trkpt lat="42.5069" lon="1.74268">
        <ele>2315.01</ele>
        <time>2015-08-27T03:08:40Z</time>
      </trkpt>
      <trkpt lat="42.50693" lon="1.74252">
        <ele>2314.908</ele>
        <time>2015-08-27T03:09:00Z</time>
      </trkpt>
      <trkpt lat="42.50687" lon="1.74233">
        <ele>2314.969</ele>
        <time>2015-08-27T03:09:20Z</time>
      </trkpt>
      <trkpt lat="42.50693" lon="1.74206">
        <ele>2317.614</ele>
        <time>2015-08-27T03:09:40Z</time>
      </trkpt>
      <trkpt lat="42.50692" lon="1.74183">
        <ele>2319.275</ele>
        <time>2015-08-27T03:10:00Z</time>
      </trkpt>
      <trkpt lat="42.50675" lon="1.74153">
        <ele>2318.93</ele>
        <time>2015-08-27T03:10:20Z</time>
      </trkpt>
      <trkpt lat="42.50664" lon="1.74099">
        <ele>2318.969</ele>
        <time>2015-08-27T03:10:40Z</time>
      </trkpt>
      <trkpt lat="42.50655" lon="1.74024">
        <ele>2320.052</ele>
        <time>2015-08-27T03:11:00Z</time>
      </trkpt>
      <trkpt lat="42.50657" lon="1.73984">
        <ele>2320.289</ele>
        <time>2015-08-27T03:11:20Z</time>
      </trkpt>
      <trkpt lat="42.50655" lon="1.73959">
        <ele>2320.973</ele>
        <time>2015-08-27T03:11:40Z</time>
      </trkpt>
      <trkpt lat="42.50658" lon="1.73916">
        <ele>2324.114</ele>
        <time>2015-08-27T03:12:00Z</time>
      </trkpt>
      <trkpt lat="42.50672" lon="1.73895">
        <ele>2326.554</ele>
        <time>2015-08-27T03:12:20Z</time>
      </trkpt>
      <trkpt lat="42.50668" lon="1.73861">
        <ele>2330.009</ele>
        <time>2015-08-27T03:12:40Z</time>
      </trkpt>
      <trkpt lat="42.50688" lon="1.73795">
        <ele>2336.708</ele>
        <time>2015-08-27T03:13:00Z</time>
      </trkpt>
      <trkpt lat="42.50676" lon="1.738">
        <ele>2335.327</ele>
        <time>2015-08-27T03:13:20Z</time>
      </trkpt>
      <trkpt lat="42.50684" lon="1.73722">
        <ele>2342.822</ele>
        <time>2015-08-27T03:13:40Z</time>
      </trkpt>
      <trkpt lat="42.50679" lon="1.73658">
        <ele>2347.113</ele>
        <time>2015-08-27T03:14:00Z</time>
      </trkpt>
      <trkpt lat="42.50694" lon="1.73591">
        <ele>2354.458</ele>
        <time>2015-08-27T03:14:20Z</time>
      </trkpt>
      <trkpt lat="42.50682" lon="1.73555">
        <ele>2356.787</ele>
        <time>2015-08-27T03:14:40Z</time>
      </trkpt>
      <trkpt lat="42.5067" lon="1.73537">
        <ele>2357.36</ele>
        <time>2015-08-27T03:15:00Z</time>
      </trkpt>
      <trkpt lat="42.50635" lon="1.73442">
        <ele>2364.357</ele>
        <time>2015-08-27T03:15:20Z</time>
      </trkpt>
      <trkpt lat="42.50636" lon="1.73405">
        <ele>2367.971</ele>
        <time>2015-08-27T03:15:40Z</time>
      </trkpt>
      <trkpt lat="42.50628" lon="1.7338">
        <ele>2370.366</ele>
        <time>2015-08-27T03:16:00Z</time>
      </trkpt>
      <trkpt lat="42.50631" lon="1.73361">
        <ele>2372.029</ele>
        <time>2015-08-27T03:16:20Z</time>
      </trkpt>
      <trkpt lat="42.5062" lon="1.73307">
        <ele>2375.921</ele>
        <time>2015-08-27T03:16:40Z</time>
      </trkpt>
      <trkpt lat="42.50619" lon="1.73254">
        <ele>2378.708</ele>
        <time>2015-08-27T03:17:00Z</time>
      </trkpt>
    </trkseg>
  </trk>
</gpx>